[[{"header":{"parameterUnit":"m.s-1","parameterCategory":1,"la1":30.6,"la2":28.766,"lo1":-90.7593,"lo2":-88.6598,"dy":0.0162,"dx":0.0183,"nx":116,"ny":114,"refTime":"2023-05-29T06:00:00:Z","depth":0,"parameterNumber":2,"parameterNumberName":"U-component_of_WINDS"},"data":[0.0,0.0,0.0,0.0,0.0,0.0,0.0,0.0,0.0,0.0,0.0,0.0,0.0,0.0,0.0,0.0,0.0,0.0,0.0,0.0,0.0,0.0,0.0,0.0,0.0,0.0,0.0,0.0,0.0,0.0,0.0,0.0,0.0,0.0,0.0,0.0,0.0,0.0,0.0,0.0,0.0,0.0,0.0,0.0,0.0,0.0,0.0,0.0,0.0,0.0,0.0,0.0,0.0,0.0,0.0,0.0,0.0,0.0,0.0,0.0,0.0,0.0,0.0,0.0,0.0,0.0,0.0,0.0,0.0,0.0,0.0,0.0,0.0,0.0,0.0,0.0,0.0,0.0,0.0,0.0,0.0,0.0,0.0,0.0,0.0,0.0,0.0,0.0,0.0,0.0,0.0,0.0,0.0,0.0,0.0,0.0,0.0,0.0,0.0,0.0,0.0,0.0,0.0,0.0,0.0,0.0,0.0,0.0,0.0,0.0,0.0,0.0,0.0,0.0,0.0,0.0,0.0,0.0,0.0,0.0,0.0,0.0,0.0,0.0,0.0,0.0,0.0,0.0,0.0,0.0,0.0,0.0,0.0,0.0,0.0,0.0,0.0,0.0,0.0,0.0,0.0,0.0,0.0,0.0,0.0,0.0,0.0,0.0,0.0,0.0,0.0,0.0,0.0,0.0,0.0,0.0,0.0,0.0,0.0,0.0,0.0,0.0,0.0,0.0,0.0,0.0,0.0,0.0,0.0,0.0,0.0,0.0,0.0,0.0,0.0,0.0,0.0,0.0,0.0,0.0,0.0,0.0,0.0,0.0,0.0,0.0,0.0,0.0,0.0,0.0,0.0,0.0,0.0,0.0,0.0,0.0,0.0,0.0,0.0,0.0,0.0,0.0,0.0,0.0,0.0,0.0,0.0,0.0,0.0,0.0,0.0,0.0,0.0,0.0,0.0,0.0,0.0,0.0,0.0,0.0,0.0,0.0,0.0,0.0,0.0,0.0,0.0,0.0,0.0,0.0,0.0,0.0,0.0,0.0,0.0,0.0,0.0,0.0,0.0,0.0,0.0,0.0,0.0,0.0,0.0,0.0,0.0,0.0,0.0,0.0,0.0,0.0,0.0,0.0,0.0,0.0,0.0,0.0,0.0,0.0,0.0,0.0,0.0,0.0,0.0,0.0,0.0,0.0,0.0,0.0,0.0,0.0,0.0,0.0,0.0,0.0,0.0,0.0,0.0,0.0,0.0,0.0,0.0,0.0,0.0,0.0,0.0,0.0,0.0,0.0,0.0,0.0,0.0,0.0,0.0,0.0,0.0,0.0,0.0,0.0,0.0,0.0,0.0,0.0,0.0,0.0,0.0,0.0,0.0,0.0,0.0,0.0,0.0,0.0,0.0,0.0,0.0,0.0,0.0,0.0,0.0,0.0,0.0,0.0,0.0,0.0,0.0,0.0,0.0,0.0,0.0,0.0,0.0,0.0,0.0,0.0,0.0,0.0,0.0,0.0,0.0,0.0,0.0,0.0,0.0,0.0,0.0,0.0,0.0,0.0,0.0,0.0,0.0,0.0,0.0,0.0,0.0,0.0,0.0,0.0,0.0,0.0,0.0,0.0,0.0,0.0,0.0,0.0,0.0,0.0,0.0,0.0,0.0,0.0,0.0,0.0,0.0,0.0,0.0,0.0,0.0,0.0,0.0,0.0,0.0,0.0,0.0,0.0,0.0,0.0,0.0,0.0,0.0,0.0,0.0,0.0,0.0,0.0,0.0,0.0,0.0,0.0,0.0,0.0,0.0,0.0,0.0,0.0,0.0,0.0,0.0,0.0,0.0,0.0,0.0,0.0,0.0,0.0,0.0,0.0,0.0,0.0,0.0,0.0,0.0,0.0,0.0,0.0,0.0,0.0,0.0,0.0,0.0,0.0,0.0,0.0,0.0,0.0,0.0,0.0,0.0,0.0,0.0,0.0,0.0,0.0,0.0,0.0,0.0,0.0,0.0,0.0,0.0,0.0,0.0,0.0,0.0,0.0,0.0,0.0,0.0,0.0,0.0,0.0,0.0,0.0,0.0,0.0,0.0,0.0,0.0,0.0,0.0,0.0,0.0,0.0,0.0,0.0,0.0,0.0,0.0,0.0,0.0,0.0,0.0,0.0,0.0,0.0,0.0,0.0,0.0,0.0,0.0,0.0,0.0,0.0,0.0,0.0,0.0,0.0,0.0,0.0,0.0,0.0,0.0,0.0,0.0,0.0,0.0,0.0,0.0,0.0,0.0,0.0,0.0,0.0,0.0,0.0,0.0,0.0,0.0,0.0,0.0,0.0,0.0,0.0,0.0,0.0,0.0,0.0,0.0,0.0,0.0,0.0,0.0,0.0,0.0,0.0,0.0,0.0,0.0,0.0,0.0,0.0,0.0,0.0,0.0,0.0,0.0,0.0,0.0,0.0,0.0,0.0,0.0,0.0,0.0,0.0,0.0,0.0,0.0,0.0,0.0,0.0,0.0,0.0,0.0,0.0,0.0,0.0,0.0,0.0,0.0,0.0,0.0,0.0,0.0,0.0,0.0,0.0,0.0,0.0,0.0,0.0,0.0,0.0,0.0,0.0,0.0,0.0,0.0,0.0,0.0,0.0,0.0,0.0,0.0,0.0,0.0,0.0,0.0,0.0,0.0,0.0,0.0,0.0,0.0,0.0,0.0,0.0,0.0,0.0,0.0,0.0,0.0,0.0,0.0,0.0,0.0,0.0,0.0,0.0,0.0,0.0,0.0,0.0,0.0,0.0,0.0,0.0,0.0,0.0,0.0,0.0,0.0,0.0,0.0,0.0,0.0,0.0,0.0,0.0,0.0,0.0,0.0,0.0,0.0,0.0,0.0,0.0,0.0,0.0,0.0,0.0,0.0,0.0,0.0,0.0,0.0,0.0,0.0,0.0,0.0,0.0,0.0,0.0,0.0,0.0,0.0,0.0,0.0,0.0,0.0,0.0,0.0,0.0,0.0,0.0,0.0,0.0,0.0,0.0,0.0,0.0,0.0,0.0,0.0,0.0,0.0,0.0,0.0,0.0,0.0,0.0,0.0,0.0,0.0,0.0,0.0,0.0,0.0,0.0,0.0,0.0,0.0,0.0,0.0,0.0,0.0,0.0,0.0,0.0,0.0,0.0,0.0,0.0,0.0,0.0,0.0,0.0,0.0,0.0,0.0,0.0,0.0,0.0,0.0,0.0,0.0,0.0,0.0,0.0,0.0,0.0,0.0,0.0,0.0,0.0,0.0,0.0,0.0,0.0,0.0,0.0,0.0,0.0,0.0,0.0,0.0,0.0,0.0,0.0,0.0,0.0,0.0,0.0,0.0,0.0,0.0,0.0,0.0,0.0,0.0,0.0,0.0,0.0,0.0,0.0,0.0,0.0,0.0,0.0,0.0,0.0,0.0,0.0,0.0,0.0,0.0,0.0,0.0,0.0,0.0,0.0,0.0,0.0,0.0,0.0,0.0,0.0,0.0,0.0,0.0,0.0,0.0,0.0,0.0,0.0,0.0,0.0,0.0,0.0,0.0,0.0,0.0,0.0,0.0,0.0,0.0,0.0,0.0,0.0,0.0,0.0,0.0,0.0,0.0,0.0,0.0,0.0,0.0,0.0,0.0,0.0,0.0,0.0,0.0,0.0,0.0,0.0,0.0,0.0,0.0,0.0,0.0,0.0,0.0,0.0,0.0,0.0,0.0,0.0,0.0,0.0,0.0,0.0,0.0,0.0,0.0,0.0,0.0,0.0,0.0,0.0,0.0,0.0,0.0,0.0,0.0,0.0,0.0,0.0,0.0,0.0,0.0,0.0,0.0,0.0,0.0,0.0,0.0,0.0,0.0,0.0,0.0,0.0,0.0,0.0,0.0,0.0,0.0,0.0,0.0,0.0,0.0,0.0,0.0,0.0,0.0,0.0,0.0,0.0,0.0,0.0,0.0,0.0,0.0,0.0,0.0,0.0,0.0,0.0,0.0,0.0,0.0,0.0,0.0,0.0,0.0,0.0,0.0,0.0,0.0,0.0,0.0,0.0,0.0,0.0,0.0,0.0,0.0,0.0,0.0,0.0,0.0,0.0,0.0,0.0,0.0,0.0,0.0,0.0,0.0,0.0,0.0,0.0,0.0,0.0,0.0,0.0,0.0,0.0,0.0,0.0,0.0,0.0,0.0,0.0,0.0,0.0,0.0,0.0,0.0,0.0,0.0,0.0,0.0,0.0,0.0,0.0,0.0,0.0,0.0,0.0,0.0,0.0,0.0,0.0,0.0,0.0,0.0,0.0,0.0,0.0,0.0,0.0,0.0,0.0,0.0,0.0,0.0,0.0,0.0,0.0,0.0,0.0,0.0,0.0,0.0,0.0,0.0,0.0,0.0,0.0,0.0,0.0,0.0,0.0,0.0,0.0,0.0,0.0,0.0,0.0,0.0,0.0,0.0,0.0,0.0,0.0,0.0,0.0,0.0,0.0,0.0,0.0,0.0,0.0,0.0,0.0,0.0,0.0,0.0,0.0,0.0,0.0,0.0,0.0,0.0,0.0,0.0,0.0,0.0,0.0,0.0,0.0,0.0,0.0,0.0,0.0,0.0,0.0,0.0,0.0,0.0,0.0,0.0,0.0,0.0,0.0,0.0,0.0,0.0,0.0,0.0,0.0,0.0,0.0,0.0,0.0,0.0,0.0,0.0,0.0,0.0,0.0,0.0,0.0,0.0,0.0,0.0,0.0,0.0,0.0,0.0,0.0,0.0,0.0,0.0,0.0,0.0,0.0,0.0,0.0,0.0,0.0,0.0,0.0,0.0,0.0,0.0,0.0,0.0,0.0,0.0,0.0,0.0,0.0,0.0,0.0,0.0,0.0,0.0,0.0,0.0,0.0,0.0,0.0,0.0,0.0,0.0,0.0,0.0,0.0,0.0,0.0,0.0,0.0,0.0,0.0,0.0,0.0,0.0,0.0,0.0,0.0,0.0,0.0,0.0,0.0,0.0,0.0,0.0,0.0,0.0,0.0,0.0,0.0,0.0,0.0,0.0,0.0,0.0,0.0,0.0,0.0,0.0,0.0,0.0,0.0,0.0,0.0,0.0,0.0,0.0,0.0,0.0,0.0,0.0,0.0,0.0,0.0,0.0,0.0,0.0,0.0,0.0,0.0,0.0,0.0,0.0,0.0,0.0,0.0,0.0,0.0,0.0,0.0,0.0,0.0,0.0,0.0,0.0,0.0,0.0,0.0,0.0,0.0,0.0,0.0,0.0,0.0,0.0,0.0,0.0,0.0,0.0,0.0,0.0,0.0,0.0,0.0,0.0,0.0,0.0,0.0,0.0,0.0,0.0,0.0,0.0,0.0,0.0,0.0,0.0,0.0,0.0,0.0,0.0,0.0,0.0,0.0,0.0,0.0,0.0,0.0,0.0,0.0,0.0,0.0,0.0,0.0,0.0,0.0,0.0,0.0,0.0,0.0,0.0,0.0,0.0,0.0,0.0,0.0,0.0,0.0,0.0,0.0,0.0,0.0,0.0,0.0,0.0,0.0,0.0,0.0,0.0,0.0,0.0,0.0,0.0,0.0,0.0,0.0,0.0,0.0,0.0,0.0,0.0,0.0,0.0,0.0,0.0,0.0,0.0,0.0,0.0,0.0,0.0,0.0,0.0,0.0,0.0,0.0,0.0,0.0,0.0,0.0,0.0,0.0,0.0,0.0,0.0,0.0,0.0,0.0,0.0,0.0,0.0,0.0,0.0,0.0,0.0,0.0,0.0,0.0,0.0,0.0,0.0,0.0,0.0,0.0,0.0,0.0,0.0,0.0,0.0,0.0,0.0,0.0,0.0,0.0,0.0,0.0,0.0,0.0,0.0,0.0,0.0,0.0,0.0,0.0,0.0,0.0,0.0,0.0,0.0,0.0,0.0,0.0,0.0,0.0,0.0,0.0,0.0,0.0,0.0,0.0,0.0,0.0,0.0,0.0,0.0,0.0,0.0,0.0,0.0,0.0,0.0,0.0,0.0,0.0,0.0,0.0,0.0,0.0,0.0,0.0,0.0,0.0,0.0,0.0,0.0,0.0,0.0,0.0,0.0,0.0,0.0,0.0,1.2801,1.2705,0.0,0.0,0.0,0.0,0.0,0.0,0.0,0.0,0.0,0.0,0.0,0.0,0.0,0.0,0.0,0.0,0.0,0.0,0.0,0.0,0.0,0.0,0.0,0.0,0.0,0.0,0.0,0.0,0.0,0.0,0.0,0.0,0.0,0.0,0.0,0.0,0.0,0.0,0.0,0.0,0.0,0.0,0.0,0.0,0.0,0.0,0.0,0.0,0.0,0.0,0.0,0.0,0.0,0.0,0.0,0.0,0.0,0.0,0.0,0.0,0.0,0.0,0.0,0.0,0.0,0.0,0.0,0.0,0.0,0.0,0.0,0.0,0.0,0.0,0.0,0.0,0.0,0.0,0.0,0.0,0.0,0.0,0.0,0.0,0.0,0.0,0.0,0.0,0.0,0.0,0.0,0.0,0.0,0.0,0.0,0.0,0.0,0.0,0.0,0.0,0.0,0.0,0.0,0.0,0.0,0.0,0.0,0.0,0.0,0.0,0.0,0.0,0.0,0.0,1.3111,1.2665,0.0,0.0,0.0,0.0,0.0,0.0,0.0,0.0,0.0,0.0,0.0,0.0,0.0,0.0,0.0,0.0,0.0,0.0,0.0,0.0,0.0,0.0,0.0,0.0,0.0,0.0,0.0,0.0,0.0,0.0,0.0,0.0,0.0,0.0,0.0,0.0,0.0,0.0,0.0,0.0,0.0,0.0,0.0,0.0,0.0,0.0,0.0,0.0,0.0,0.0,0.0,0.0,0.0,0.0,0.0,0.0,0.0,0.0,0.0,0.0,0.0,0.0,0.0,0.0,0.0,0.0,0.0,0.0,0.0,0.0,0.0,0.0,0.0,0.0,0.0,0.0,0.0,0.0,0.0,0.0,0.0,0.0,0.0,0.0,0.0,0.0,0.0,0.0,0.0,0.0,0.0,0.0,0.0,0.0,0.0,0.0,0.0,0.0,0.0,0.0,0.0,0.0,0.0,0.0,0.0,0.0,0.0,0.0,1.387,1.4087,1.4298,1.4346,1.4395,1.4401,1.3732,1.2979,1.231,1.2963,0.0,0.0,0.0,0.0,0.0,0.0,0.0,0.0,0.0,0.0,0.0,0.0,0.0,0.0,0.0,0.0,0.0,0.0,0.0,0.0,0.0,0.0,1.7467,1.7868,1.7277,0.0,0.0,0.0,0.0,0.0,0.0,0.0,0.0,0.0,0.0,0.0,0.0,0.0,2.0154,2.1023,2.1414,2.13,2.0065,0.0,0.0,0.0,0.0,0.0,0.0,0.0,0.0,0.0,0.0,0.0,0.0,0.0,0.0,0.0,0.0,0.0,0.0,0.0,0.0,0.0,0.0,0.0,0.0,0.0,0.0,0.0,0.0,0.0,0.0,0.0,0.0,0.0,0.0,0.0,0.0,0.0,0.0,0.0,0.0,0.0,0.0,0.0,1.3921,1.3836,0.0,0.0,0.0,0.0,0.0,0.0,0.0,0.0,0.0,0.0,0.0,0.0,0.0,1.3749,1.3749,1.4008,1.4159,1.4189,1.4226,1.4262,1.4304,1.4552,1.4762,1.4992,1.489,0.0,1.3636,1.3746,0.0,0.0,0.0,0.0,0.0,0.0,0.0,0.0,0.0,0.0,0.0,0.0,0.0,0.0,0.0,0.0,0.0,0.0,0.0,0.0,0.0,1.7456,1.7592,1.8061,1.8023,1.8073,0.0,0.0,0.0,0.0,0.0,0.0,0.0,0.0,0.0,0.0,1.9841,2.0503,2.1189,2.1621,2.1807,2.1797,2.1464,2.1029,2.0503,2.0245,0.0,0.0,0.0,0.0,0.0,0.0,0.0,0.0,0.0,0.0,0.0,0.0,0.0,0.0,0.0,0.0,0.0,0.0,0.0,0.0,0.0,0.0,0.0,0.0,0.0,0.0,0.0,0.0,0.0,0.0,0.0,0.0,0.0,0.0,0.0,0.0,0.0,0.0,0.0,1.5007,1.4291,1.3756,1.3831,1.3713,0.0,0.0,0.0,0.0,0.0,0.0,0.0,0.0,0.0,1.3779,1.4008,1.4201,1.4358,1.4624,1.498,1.5433,1.5578,1.5801,1.6091,1.6211,1.6332,1.6441,1.6441,1.6157,1.5561,1.3909,1.2576,1.1595,0.0,0.0,0.0,0.0,1.1437,1.14,0.0,0.0,0.0,0.0,0.0,0.0,0.0,0.0,0.0,0.0,0.0,0.0,1.7602,1.7777,1.8073,1.8588,1.8749,1.8813,1.8744,0.0,0.0,0.0,0.0,0.0,0.0,0.0,0.0,2.0578,2.094,2.1468,2.2159,2.2397,2.2492,2.2492,2.2749,2.2273,2.1251,2.0909,2.0452,0.0,0.0,0.0,0.0,0.0,0.0,0.0,0.0,0.0,0.0,0.0,0.0,0.0,0.0,0.0,0.0,0.0,0.0,0.0,0.0,0.0,0.0,0.0,0.0,0.0,0.0,0.0,0.0,0.0,0.0,0.0,0.0,0.0,0.0,0.0,0.0,0.0,0.0,1.4891,1.4389,1.3542,1.3746,1.362,0.0,0.0,0.0,0.0,0.0,0.0,1.3786,1.4135,1.4431,1.4696,1.4841,1.504,1.5324,1.5584,1.6012,1.6616,1.6809,1.7105,1.7485,1.7581,1.7404,1.7073,1.7073,1.6613,1.5697,1.3963,1.2438,1.1177,1.0926,1.0957,1.1115,1.0972,1.098,1.0993,0.0,0.0,0.0,0.0,0.0,0.0,0.0,0.0,0.0,0.0,0.0,1.7638,1.752,1.8298,1.91,1.976,1.9083,1.9064,2.0124,1.8668,0.0,0.0,0.0,0.0,0.0,0.0,0.0,2.1054,2.2397,2.307,2.3163,2.3981,2.4363,2.4342,2.3991,2.3069,2.1766,2.1745,2.1199,2.033,0.0,0.0,0.0,0.0,0.0,0.0,0.0,0.0,0.0,0.0,0.0,0.0,0.0,0.0,0.0,0.0,0.0,0.0,0.0,0.0,0.0,0.0,0.0,0.0,0.0,0.0,0.0,0.0,0.0,0.0,0.0,0.0,0.0,0.0,0.0,0.0,0.0,0.0,0.0,1.2814,1.322,0.0,0.0,0.0,0.0,1.3437,1.3948,1.4358,1.4617,1.5143,1.5535,1.5801,1.6308,1.6706,1.6966,1.726,1.7411,1.7454,1.7436,1.7455,1.752,1.7768,1.7156,1.5883,1.5883,1.4589,1.2553,1.408,1.4488,1.4033,1.258,1.2013,1.1932,1.1055,1.0707,1.0603,0.0,0.0,0.0,0.0,0.0,0.0,0.0,0.0,0.0,1.6878,1.7197,1.7745,1.8559,1.914,1.9804,2.061,2.0393,2.0142,1.9986,1.9404,0.0,0.0,0.0,0.0,0.0,0.0,2.1075,2.2449,2.2946,2.3484,2.4043,2.4342,2.4497,2.4487,2.4353,2.3846,2.3121,2.2501,2.189,2.1251,2.0814,2.02,0.0,0.0,0.0,0.0,0.0,0.0,0.0,0.0,0.0,0.0,0.0,0.0,0.0,0.0,0.0,0.0,0.0,0.0,0.0,0.0,0.0,0.0,0.0,0.0,0.0,0.0,0.0,0.0,0.0,0.0,0.0,0.0,0.0,0.0,0.0,0.0,0.0,1.441,1.447,0.0,1.4268,1.4166,1.4304,1.4763,1.5119,1.5517,1.597,1.6332,1.6646,1.6905,1.7133,1.7328,1.7623,1.772,1.7937,1.8257,1.8257,1.7904,1.7173,1.7294,1.654,1.5214,1.5214,1.4747,1.3914,1.3528,1.2608,1.1364,1.0652,1.0349,1.034,1.0077,1.0054,1.0102,0.0,0.0,0.0,0.0,0.0,0.0,0.0,0.0,0.0,1.6959,1.7417,1.8176,1.9346,2.0066,2.0726,2.1383,2.1226,2.0811,2.016,1.9765,0.0,0.0,1.9253,0.0,0.0,2.0951,2.188,2.3442,2.3567,2.3929,2.4497,2.4497,2.4397,2.4204,2.4204,2.4134,2.3963,2.3061,2.241,2.2004,2.1538,2.099,2.0438,0.0,0.0,0.0,0.0,0.0,0.0,0.0,0.0,0.0,0.0,0.0,0.0,0.0,0.0,0.0,0.0,0.0,0.0,0.0,0.0,0.0,0.0,0.0,0.0,0.0,0.0,0.0,0.0,0.0,0.0,0.0,0.0,0.0,0.0,1.5132,1.5317,1.5253,1.5478,1.5505,1.5143,1.5113,1.5258,1.5602,1.6042,1.6489,1.6942,1.7304,1.7618,1.7907,1.7889,1.804,1.8306,1.8312,1.8494,1.8813,1.8813,1.8192,1.7012,1.7012,1.5971,1.4189,1.4189,1.3927,1.3394,1.2393,1.1219,1.0093,0.9802,0.9713,0.9733,0.9852,0.9964,1.0059,0.0,0.0,0.0,0.0,0.0,0.0,0.0,0.0,1.707,1.7269,1.8055,1.8918,1.9758,2.1018,2.1894,2.2105,2.1487,2.099,2.0719,1.9691,0.0,0.0,0.0,0.0,2.1042,2.1988,2.2937,2.3898,2.4332,2.4506,2.4495,2.4538,2.4201,2.358,2.3602,2.3858,2.4198,2.335,2.2801,2.2454,2.1988,2.179,2.1647,0.0,0.0,0.0,0.0,0.0,0.0,0.0,0.0,0.0,0.0,0.0,0.0,0.0,0.0,0.0,0.0,0.0,0.0,0.0,0.0,0.0,0.0,0.0,0.0,0.0,0.0,0.0,0.0,0.0,0.0,0.0,0.0,0.0,1.431,1.501,1.5433,1.5185,1.6079,1.6314,1.5294,1.5644,1.5952,1.6003,1.67,1.7284,1.755,1.8028,1.8432,1.8686,1.8735,1.8862,1.9116,1.9122,1.9084,1.9058,1.9046,1.8253,1.6883,1.6856,1.5359,1.2717,1.2758,1.1971,1.0688,1.0688,1.0688,1.0657,1.0405,1.0293,1.0342,1.0449,1.05,1.05,0.0,0.0,0.0,0.0,0.0,0.0,0.0,1.6923,1.6963,1.7255,1.8055,1.9158,2.0594,2.1383,2.2096,2.2829,2.1804,2.0917,2.0505,0.0,0.0,0.0,0.0,0.0,2.013,2.1307,2.2552,2.3827,2.4615,2.4773,2.437,2.5145,2.4601,2.2982,2.3764,2.3738,2.3117,2.2871,2.2721,2.2592,2.1981,2.1352,2.0682,0.0,0.0,0.0,0.0,0.0,0.0,0.0,0.0,0.0,0.0,0.0,0.0,0.0,0.0,0.0,0.0,0.0,0.0,0.0,0.0,0.0,0.0,0.0,0.0,0.0,0.0,0.0,0.0,0.0,0.0,0.0,1.4787,1.4817,1.463,1.5445,1.6115,1.6247,1.6688,1.702,1.7133,1.7103,1.7286,1.7901,1.8155,1.8391,1.8657,1.8808,1.8923,1.8995,1.9183,1.9322,1.9388,1.9388,1.8868,1.7877,1.7655,1.6295,1.396,1.406,1.3062,1.1284,1.1368,1.1154,1.0688,1.0688,1.0688,1.0677,1.0629,1.0599,1.0605,1.0643,1.0656,1.0639,0.0,0.0,0.0,0.0,0.0,0.0,0.0,1.6881,1.7009,1.7607,1.8412,1.9544,2.1165,2.195,2.2445,2.2711,2.1532,2.0587,2.0175,0.0,0.0,0.0,0.0,1.9411,2.0201,2.1363,2.2522,2.3663,2.4227,2.431,2.3959,2.4375,2.3766,2.2347,2.2977,2.302,2.2611,2.2418,2.2347,2.2354,2.1766,2.1389,2.1066,2.0154,1.9551,1.9122,1.8403,1.7869,1.7456,1.7241,0.0,0.0,0.0,0.0,0.0,0.0,0.0,0.0,0.0,0.0,0.0,0.0,0.0,0.0,0.0,0.0,0.0,0.0,0.0,0.0,0.0,0.0,0.0,0.0,1.5578,1.5885,1.5734,1.6332,1.6916,1.7159,1.7624,1.7956,1.807,1.804,1.8137,1.8524,1.8076,1.7877,1.8027,1.7585,1.7363,1.7423,1.7532,1.7621,1.7752,1.7681,1.7284,1.6519,1.6349,1.5125,1.3006,1.2992,1.2224,1.0907,1.0904,1.0863,1.0782,1.0782,1.0745,1.0688,0.0,0.0,0.0,0.0,1.0688,1.0674,0.0,0.0,0.0,0.0,0.0,0.0,0.0,1.6934,1.7191,1.8093,1.8887,1.9917,2.1376,2.2239,2.2513,2.2056,2.0774,1.9844,1.954,0.0,0.0,1.8437,1.8924,1.966,2.0648,2.1669,2.2572,2.3327,2.3444,2.3439,2.3368,2.3006,2.2442,2.1701,2.1824,2.2036,2.2282,2.1869,2.1775,2.1848,2.1411,2.1565,2.192,2.0993,2.0083,1.9234,1.871,1.766,1.6492,1.6452,0.0,0.0,0.0,0.0,0.0,0.0,0.0,0.0,0.0,0.0,0.0,0.0,0.0,0.0,0.0,0.0,0.0,0.0,0.0,0.0,0.0,0.0,0.0,0.0,1.6344,1.7159,1.7219,1.7484,1.7726,1.7925,1.8584,1.8813,1.8384,1.8547,1.8539,1.8174,1.722,1.6572,1.6414,1.5475,0.0,0.0,0.0,1.5087,1.5346,1.5231,1.5164,1.5112,1.5089,1.4365,1.307,1.2893,1.2233,1.1193,1.1046,1.0955,1.0938,1.0938,1.085,1.0711,1.0694,1.0688,1.0688,1.0688,1.0688,1.0688,0.0,0.0,0.0,0.0,0.0,0.0,0.0,1.7211,1.7488,1.8266,1.8831,1.9501,2.0395,2.0366,2.0601,2.1403,1.9354,1.7984,0.0,0.0,1.8564,1.8554,1.9441,1.9878,1.983,2.0916,2.177,2.228,2.306,2.3175,2.2718,2.3466,2.2844,2.1119,2.1971,2.1929,2.119,2.1126,2.1094,2.1111,2.1021,2.0957,2.0805,1.9989,1.9777,1.9825,1.9032,1.8543,1.8257,1.7993,1.766,1.7284,1.6686,0.0,0.0,0.0,0.0,0.0,0.0,0.0,0.0,0.0,0.0,0.0,0.0,0.0,0.0,0.0,0.0,0.0,0.0,0.0,0.0,1.6525,1.7098,1.7557,1.7998,1.8287,1.8421,1.8233,1.8348,1.8487,1.8601,1.8656,1.8299,1.732,1.7049,1.6427,1.53,1.5134,1.5063,1.5101,1.5392,1.5584,1.5625,1.5587,1.5036,1.4002,1.3787,0.0,1.161,1.1674,1.1525,1.1203,1.1263,1.1236,1.1155,1.1155,1.1036,1.086,1.0735,1.0688,1.0688,1.0688,1.0688,1.0688,0.0,0.0,0.0,0.0,0.0,0.0,0.0,1.7015,1.722,1.8401,1.8453,1.8833,1.9983,1.9913,1.9883,2.0124,1.8868,0.0,0.0,1.8363,1.8962,1.908,1.9582,1.9887,1.9997,2.0815,2.1565,2.2244,2.2723,2.2918,2.2904,2.3161,2.2736,2.1725,2.2249,2.23,2.1989,2.1722,2.1724,2.187,2.1362,2.1091,2.0916,2.0183,1.9942,1.9942,1.951,1.9241,1.9074,1.8922,1.8597,1.8208,1.7662,1.727,1.6921,0.0,0.0,0.0,0.0,0.0,0.0,0.0,0.0,0.0,0.0,0.0,0.0,0.0,0.0,1.4714,1.5378,0.0,1.6513,1.7177,1.7738,1.7959,1.7496,1.7685,1.7748,1.7471,1.7582,1.7418,1.6834,1.6786,1.6572,1.6003,1.5289,1.4613,1.3994,1.3328,1.3093,1.3237,1.3394,1.3493,1.364,1.3586,1.3239,1.2662,1.2509,1.2089,1.1392,1.1392,1.1392,1.1392,1.1392,1.1348,1.1305,1.123,1.1155,1.1043,1.086,1.0752,1.0688,1.0688,1.0688,1.0688,0.0,0.0,0.0,0.0,0.0,0.0,0.0,0.0,0.0,1.8111,1.7812,1.7944,1.919,1.9261,1.8963,1.8331,1.8419,0.0,0.0,1.8585,1.9428,1.9875,2.0031,2.0324,2.0842,2.1246,2.1803,2.2501,2.2501,2.2728,2.3129,2.2703,2.2544,2.2604,2.2604,2.2792,2.3038,2.2595,2.2532,2.2657,2.1849,2.146,2.1333,2.0788,2.0377,2.0091,2.002,1.9733,1.9399,1.9399,1.9129,1.8757,1.8471,1.8208,1.7898,1.7364,1.693,0.0,0.0,0.0,0.0,0.0,0.0,0.0,0.0,1.4279,1.4383,1.498,1.5439,1.5891,1.6416,1.7115,1.7528,1.7363,1.7925,1.7889,1.6477,1.6476,1.6421,1.5919,1.6283,1.6138,1.5005,1.4913,1.4833,1.4543,1.3525,1.2812,1.2645,1.1587,1.111,1.1385,1.1336,1.1369,1.1616,1.1497,1.1497,1.1584,1.1584,1.1584,1.1616,1.1491,1.1504,1.1577,1.1491,1.1436,1.1423,1.1305,1.124,1.1227,1.1046,1.0863,1.0728,1.0698,1.0688,1.0688,0.0,0.0,0.0,0.0,0.0,0.0,0.0,0.0,0.0,1.6802,1.6764,1.6762,1.6877,1.6564,1.6154,1.5667,0.0,0.0,1.7538,1.8671,1.9835,2.0894,2.15,2.2018,2.2427,2.237,2.2408,2.2501,2.2501,2.2526,2.2577,2.2526,2.2698,2.304,2.304,2.2994,2.2917,2.2863,2.2542,2.2092,2.1971,2.1719,2.1388,2.1309,2.1081,2.074,2.0448,1.994,1.9399,1.9399,1.9129,1.8796,1.8757,1.8717,1.8437,1.7223,1.6609,1.616,1.5376,1.4926,1.451,1.3849,1.3825,1.4217,0.0,1.5327,1.5541,1.632,1.6525,1.6724,1.7278,1.7641,1.7617,1.6822,1.6976,1.6716,1.5292,1.5121,1.467,1.3373,1.4371,1.507,1.4912,1.5002,1.4569,1.3307,1.3227,1.2684,1.1479,1.1371,1.1358,1.1389,1.1508,1.1586,1.1584,1.1603,1.1603,1.1584,1.1584,1.1584,1.1584,1.1567,1.1603,1.1616,1.1567,1.1592,1.1582,1.1426,1.1365,1.1352,1.1234,1.105,1.0874,1.0738,1.0688,1.0688,0.0,0.0,0.0,0.0,0.0,0.0,0.0,0.0,0.0,0.0,1.6261,1.5913,1.6436,1.6071,1.5796,1.5831,0.0,0.0,1.8512,1.948,2.0541,2.1632,2.2155,2.2496,2.2585,2.2525,2.2652,2.2979,2.2979,2.3277,2.3845,2.3845,2.405,2.4442,2.4442,2.4534,2.4659,2.3945,2.3659,2.3554,2.2647,2.208,2.1703,2.1272,2.0772,2.0314,2.0163,1.9805,0.0,0.0,1.9098,1.9105,1.8876,1.8409,1.7781,1.7024,1.6374,1.581,1.5398,1.485,1.4392,1.4407,1.4757,1.5221,1.5831,1.6205,1.6567,1.7056,1.7406,1.7744,1.8143,1.776,1.727,1.6892,1.6309,1.5397,1.3879,1.3756,1.3215,1.1646,1.2034,1.2458,1.2458,1.2521,1.2337,1.1805,1.1879,1.1725,1.1357,1.1355,1.1433,1.1521,1.1586,1.1584,1.1584,1.1584,1.1584,1.1584,1.1584,1.1584,1.1584,1.1584,1.1584,1.1584,1.1584,1.1584,1.1613,1.1552,1.1525,1.1508,1.1355,1.126,1.1175,1.0907,1.0765,1.0688,0.0,0.0,0.0,0.0,0.0,0.0,0.0,0.0,0.0,0.0,0.0,0.0,0.0,1.5703,1.5689,1.6094,0.0,0.0,0.0,1.9886,2.0831,2.194,2.247,2.2755,2.2772,2.2901,2.3154,2.3562,2.3562,2.3924,2.4636,2.4636,2.4847,2.5242,2.5352,2.5539,2.5701,2.4939,2.4615,2.4552,2.3412,2.2643,2.2075,2.1415,2.0596,1.979,1.9646,1.9264,0.0,0.0,1.837,1.8503,1.8195,1.7606,1.6927,1.649,1.5777,1.5125,1.5089,1.4867,1.4739,1.5209,1.5777,1.6314,1.6664,1.7092,1.7515,1.7883,1.8233,1.8472,1.8274,1.7545,1.6769,1.6014,1.5134,1.399,1.2478,1.2325,1.1899,1.0651,1.0555,1.0616,1.0653,1.0701,1.0813,1.0961,1.1012,1.1147,1.144,1.1453,1.1504,1.1616,1.1584,1.1584,1.1584,1.1584,1.1584,1.1584,1.1584,1.1584,1.1584,1.1584,1.1584,1.1584,1.1584,1.1584,1.1616,1.1572,1.1582,1.1563,1.1406,1.1328,1.1297,1.1009,1.0843,1.0742,0.0,0.0,0.0,0.0,0.0,0.0,0.0,0.0,0.0,0.0,0.0,0.0,0.0,0.0,1.5276,1.5686,0.0,0.0,0.0,1.9474,2.0451,2.1655,2.2469,2.3058,2.345,2.3926,2.4152,2.4177,2.4177,2.4186,2.422,2.422,2.4415,2.4838,2.5223,2.5302,2.5138,2.551,2.5093,2.422,2.4157,2.3483,2.2442,2.2042,2.0936,1.9541,1.9021,0.0,0.0,1.6973,1.6657,1.6392,1.6374,1.6348,1.6197,1.5456,1.4625,1.4001,1.4267,1.489,1.5529,1.5801,1.6465,1.7189,1.7738,1.8082,1.8402,1.8953,1.9074,1.8658,1.7291,1.7007,1.6135,1.3532,1.3097,1.2572,1.1175,1.0849,1.0699,1.051,1.0407,1.0348,1.0483,1.0735,1.0968,1.1179,1.1294,1.1447,1.1603,1.1577,1.1613,1.1584,1.1584,1.1584,1.1584,1.1584,1.1584,1.1584,1.1584,1.1584,1.1584,1.1584,1.1584,1.1584,1.1584,1.1584,1.1606,1.146,1.1487,1.1553,1.1322,1.1203,1.1186,1.0968,1.0911,1.0887,0.0,0.0,0.0,0.0,0.0,0.0,0.0,0.0,0.0,0.0,0.0,0.0,0.0,0.0,0.0,0.0,1.5953,1.6615,0.0,1.8916,1.9914,2.0866,2.1938,2.2579,2.2707,2.3376,2.3749,2.3749,2.4048,2.4349,2.4599,2.4599,2.481,2.5205,2.5333,2.5367,2.5293,2.5014,2.4845,2.4709,2.3788,2.3202,2.269,2.0769,1.9427,1.8353,0.0,0.0,1.6487,1.5483,1.5353,1.5641,1.5653,1.5291,1.4801,1.4245,1.4232,1.4539,1.4974,1.5686,1.6441,1.7085,1.7551,1.8028,1.8584,1.8778,1.8893,1.9074,1.8832,1.8173,1.6893,1.5721,1.4435,1.286,1.2023,1.1409,1.0842,1.0921,1.0883,1.0437,1.0483,1.0514,1.0368,1.0531,1.0751,1.0968,1.1158,1.1342,1.146,1.1565,1.1584,1.1584,1.1584,1.1584,1.1584,1.1584,1.1584,1.1584,1.1584,1.1584,1.1584,1.1584,1.1584,1.1584,1.1584,1.1584,1.1616,1.1562,1.1511,1.1457,1.1355,1.1288,1.1179,1.0968,1.0914,1.0894,0.0,0.0,0.0,0.0,0.0,0.0,0.0,0.0,0.0,0.0,0.0,0.0,0.0,0.0,0.0,0.0,0.0,1.6202,1.7413,0.0,1.9173,1.9822,2.0875,2.1443,2.1443,2.224,2.2579,2.2442,2.3015,2.3378,2.3474,2.362,2.3904,2.429,2.4436,2.4583,2.4695,2.4296,2.4215,2.4217,2.3172,2.2602,2.2137,1.9901,1.8534,0.0,0.0,0.0,1.5234,1.4379,1.4282,1.4535,1.4402,1.4178,1.3957,1.3919,1.4419,1.513,1.5873,1.6579,1.7286,1.8022,1.8403,1.8693,1.9032,1.911,1.8922,1.8312,1.7888,1.7074,1.5192,1.3944,1.2847,1.1831,1.1099,1.0698,1.0762,1.0873,1.0836,1.0477,1.0514,1.051,1.0371,1.0439,1.0619,1.089,1.1084,1.1264,1.1382,1.1538,1.1584,1.1584,1.1634,1.1634,1.1584,1.1634,1.1634,1.1584,1.1584,1.1584,1.1584,1.1584,1.1584,1.1584,1.1584,1.1584,1.1584,1.1584,1.1531,1.1385,1.1366,1.1219,1.1067,1.0887,1.0833,1.0819,0.0,0.0,0.0,0.0,0.0,0.0,0.0,0.0,0.0,0.0,0.0,0.0,0.0,0.0,0.0,0.0,0.0,0.0,1.7358,0.0,0.0,1.8613,1.941,1.985,1.985,2.0619,2.0839,2.0463,2.1238,2.1453,2.1117,2.1498,2.1892,2.2295,2.2666,2.305,2.3407,2.3407,2.3187,2.2803,2.2414,2.1751,2.0858,1.9368,0.0,0.0,0.0,0.0,1.3652,1.3652,1.3469,1.3169,1.2857,1.3127,1.369,1.4497,1.5137,1.5789,1.6845,1.7544,1.807,1.8602,1.8923,1.9104,1.9092,1.901,1.8498,1.6821,1.6416,1.5417,1.2436,1.1861,1.1503,1.0458,1.0315,1.0456,1.0853,1.0711,1.0585,1.0684,1.049,1.0375,1.0504,1.0521,1.0646,1.0904,1.1087,1.1264,1.1382,1.1545,1.1626,1.1584,1.1729,1.1736,1.1584,1.1715,1.1715,1.1584,1.1584,1.1584,1.1584,1.1584,1.1584,1.1584,1.1584,1.1584,1.1584,1.1584,1.1531,1.1375,1.1257,1.1077,1.0894,1.0742,1.0688,1.0688,0.0,0.0,0.0,0.0,0.0,0.0,0.0,0.0,0.0,0.0,0.0,0.0,0.0,0.0,0.0,0.0,0.0,0.0,1.6578,0.0,0.0,0.0,0.0,0.0,0.0,0.0,0.0,2.006,2.0564,2.0903,2.1108,2.1196,2.1471,2.1874,2.1952,2.2053,2.2153,2.2153,2.2099,2.197,0.0,2.0888,1.9922,0.0,0.0,0.0,0.0,0.0,1.296,1.296,1.3166,1.3432,1.3565,1.3827,1.4256,1.5065,1.5819,1.6579,1.7472,1.8101,1.859,1.8923,1.9056,1.9056,1.8862,1.7956,1.6968,1.6325,1.5046,1.3548,1.1886,1.1437,1.1,1.007,1.0314,1.0654,1.0884,1.107,1.1094,1.0877,1.0917,1.0944,1.0806,1.0928,1.106,1.1135,1.1176,1.1264,1.1382,1.1636,1.1692,1.1587,1.187,1.1881,1.1584,1.1617,1.1617,1.1584,1.1584,1.1584,1.1584,1.1584,1.1584,1.1584,1.1584,1.1584,1.1584,1.1584,1.1531,1.1375,1.1257,1.1077,1.0894,1.0742,1.0688,1.0688,0.0,0.0,0.0,0.0,0.0,0.0,0.0,0.0,0.0,0.0,0.0,0.0,0.0,0.0,0.0,0.0,0.0,0.0,0.0,0.0,0.0,0.0,0.0,0.0,0.0,0.0,0.0,0.0,0.0,0.0,1.9776,1.9776,1.9996,2.0399,2.0573,2.0747,2.09,2.09,0.0,0.0,0.0,0.0,0.0,0.0,0.0,0.0,0.0,0.0,1.3097,1.3416,1.3672,1.3924,1.431,1.469,1.5203,1.6235,1.6863,1.7442,1.8354,1.8741,1.8953,1.9213,1.8732,1.8096,1.7796,1.6657,1.5314,1.4292,1.3224,1.2016,1.0617,1.0311,1.0152,0.9769,1.0089,1.0515,1.0867,1.1056,1.1185,1.1114,1.1155,1.1166,1.105,1.1118,1.1227,1.1291,1.1324,1.1399,1.1487,1.1708,1.1826,1.1813,1.1908,1.1881,1.1678,1.1675,1.1644,1.1584,1.1584,1.1584,1.1584,1.1584,1.1584,1.1584,1.1584,1.1584,1.1584,1.1584,1.1531,1.1375,1.1257,1.1077,1.0894,1.0742,1.0688,1.0694,0.0,0.0,0.0,0.0,0.0,0.0,0.0,0.0,0.0,0.0,0.0,0.0,0.0,0.0,0.0,0.0,0.0,0.0,0.0,0.0,0.0,0.0,0.0,0.0,0.0,1.7238,1.7413,1.7413,1.7761,0.0,0.0,0.0,0.0,0.0,0.0,0.0,0.0,0.0,0.0,0.0,0.0,0.0,0.0,0.0,0.0,0.0,0.0,1.312,1.3666,1.436,1.4515,1.4509,1.5125,1.5656,1.6329,1.7629,1.8034,1.8221,1.9015,1.906,1.8891,1.8909,1.7764,1.6578,1.6266,1.5098,1.3597,1.1802,1.1302,1.0684,0.9179,0.9055,0.9288,0.9585,0.9856,1.0258,1.086,1.0961,1.1076,1.1389,1.1304,1.1264,1.1285,1.1285,1.1349,1.147,1.1623,1.1655,1.1614,1.1766,1.1962,1.2152,1.1952,1.1824,1.1824,1.1803,1.1722,1.1584,1.1584,1.1584,1.1584,1.1584,1.1584,1.1584,1.1584,1.1584,1.1584,1.1584,1.1541,1.1406,1.1288,1.1104,1.0894,1.0558,1.0432,1.0402,0.0,0.0,0.0,0.0,0.0,0.0,0.0,0.0,0.0,0.0,1.4772,1.4573,0.0,0.0,0.0,0.0,0.0,0.0,0.0,0.0,0.0,0.0,0.0,0.0,1.6908,1.6972,1.7009,1.7009,1.7065,1.7284,0.0,0.0,0.0,0.0,0.0,0.0,0.0,0.0,0.0,0.0,0.0,0.0,0.0,0.0,0.0,0.0,1.3434,1.352,1.3923,0.0,1.4765,1.5137,1.6115,1.6634,1.7098,1.8215,1.8729,1.8744,1.8111,1.7796,1.7396,1.6163,1.5403,1.4854,1.4573,1.3209,1.1873,1.128,1.0188,0.9248,0.8947,0.9055,0.9322,0.9717,1.0039,1.0449,1.1077,1.1233,1.1379,1.1558,1.1555,1.1586,1.1704,1.1714,1.1779,1.1972,1.2088,1.2064,1.1773,1.206,1.2277,1.242,1.2162,1.2057,1.2057,1.1894,1.1722,1.1584,1.1584,1.1584,1.1584,1.1584,1.1584,1.1584,1.1584,1.1584,1.1584,1.1584,1.1603,1.1565,1.1409,1.1295,1.0983,0.9644,0.9052,0.8807,0.0,0.0,0.0,0.0,0.0,0.0,0.0,1.5526,1.5726,1.5452,1.5239,1.5047,1.4836,1.4634,0.0,0.0,0.0,0.0,0.0,0.0,0.0,0.0,0.0,0.0,0.0,1.711,1.7303,1.7523,0.0,1.7523,1.8119,1.7697,1.7697,1.8118,1.832,1.8521,1.8685,0.0,0.0,1.7934,1.6836,1.6004,0.0,0.0,0.0,0.0,0.0,1.381,1.3992,1.4603,1.5023,1.5523,1.6724,1.7388,1.7925,1.8994,1.9328,1.9123,1.824,1.7717,1.7075,1.5673,1.4359,1.3323,1.3026,1.1617,1.0312,1.0008,0.9401,0.8912,0.8912,0.9055,0.9277,0.9544,0.9846,1.0222,1.0774,1.1012,1.1246,1.1474,1.1636,1.1719,1.1786,1.1904,1.1982,1.2094,1.2203,1.2227,1.2077,1.2281,1.2362,1.2274,1.2284,1.2179,1.1945,1.1948,1.184,1.1584,1.1584,1.1584,1.1584,1.1584,1.1584,1.1548,1.0743,1.0416,1.0344,0.9543,0.9216,0.9205,0.9054,0.897,0.8806,0.791,0.7578,0.7413,0.0,0.0,0.0,0.0,0.0,0.0,0.0,1.6236,1.6437,1.5898,1.5826,1.5707,1.5395,1.4912,1.494,0.0,0.0,0.0,0.0,0.0,0.0,0.0,0.0,0.0,0.0,0.0,0.0,1.7972,1.766,0.0,0.0,0.0,0.0,0.0,1.843,1.8613,1.8675,1.83,1.7916,0.0,0.0,1.5135,0.0,0.0,0.0,0.0,0.0,1.4033,1.4092,1.482,1.5258,1.5704,1.694,1.778,1.8469,1.9368,1.943,1.8984,1.8041,1.7161,1.6217,1.4844,1.3171,1.1775,1.1506,1.0333,0.9222,0.896,0.8912,0.8912,0.8912,0.9032,0.9196,0.9379,0.9578,0.9907,1.0419,1.0694,1.0999,1.1396,1.1643,1.1786,1.1881,1.201,1.2125,1.219,1.2267,1.2335,1.2335,1.244,1.2396,1.22,1.2379,1.2301,1.1884,1.204,1.1915,1.1584,1.1584,1.1436,1.1109,1.1109,1.0926,1.0563,0.9327,0.8817,0.8709,0.7512,0.7004,0.6998,0.6894,0.6822,0.6729,0.6289,0.6084,0.6045,0.0,0.0,0.0,0.0,0.0,0.0,0.0,1.6474,1.6852,1.6324,1.6241,1.6231,1.6195,1.5499,1.5377,0.0,0.0,0.0,0.0,0.0,0.0,0.0,0.0,0.0,0.0,0.0,0.0,1.755,1.7513,0.0,0.0,0.0,0.0,0.0,0.0,1.8357,1.8695,1.8655,0.0,0.0,0.0,0.0,0.0,0.0,0.0,0.0,0.0,1.4139,1.4293,1.5084,1.539,1.5563,1.6485,1.7476,1.836,1.8698,1.8486,1.7801,1.6182,1.4783,1.3359,1.1736,1.0663,1.0035,1.0008,0.9439,0.8943,0.8916,0.8912,0.8912,0.8912,0.8923,0.9021,0.9334,0.9434,0.9673,1.0392,1.0636,1.0921,1.1492,1.1587,1.1799,1.221,1.2173,1.221,1.244,1.2474,1.2481,1.2481,1.2494,1.2488,1.2464,1.2488,1.2352,1.2081,1.2091,1.1915,1.1584,1.1584,1.0854,0.9507,0.9507,0.8745,0.7404,0.7259,0.7223,0.7185,0.704,0.7004,0.7004,0.6996,0.6909,0.6638,0.5342,0.4749,0.4423,0.0,0.0,0.0,0.0,0.0,0.0,1.6952,1.7773,1.8008,1.6824,1.6934,1.7018,1.6704,1.6158,1.5947,0.0,0.0,0.0,0.0,0.0,0.0,0.0,0.0,0.0,0.0,0.0,1.7458,1.7853,1.7853,0.0,0.0,0.0,0.0,0.0,0.0,1.8788,1.8685,1.8406,0.0,0.0,0.0,0.0,0.0,0.0,0.0,0.0,0.0,0.0,1.3865,1.4458,1.4695,1.485,1.553,1.6245,1.6913,1.7137,1.711,1.664,1.4765,1.3823,1.3004,1.1321,1.0346,0.9792,0.9792,0.9335,0.8912,0.8912,0.8912,0.8912,0.8912,0.8912,0.895,0.9068,0.9088,0.9279,0.9758,1.0029,1.037,1.1006,1.1318,1.1623,1.1979,1.2125,1.2284,1.2484,1.2501,1.2501,1.2501,1.2501,1.2501,1.2501,1.2501,1.2362,1.2101,1.2098,1.1466,1.0233,1.0233,0.9399,0.7912,0.7912,0.7584,0.6934,0.6031,0.5634,0.5525,0.4581,0.4183,0.4183,0.4183,0.4135,0.4011,0.3452,0.3194,0.3074,0.0,0.0,0.0,0.0,0.0,1.7992,1.7743,1.8476,1.861,1.7314,1.7321,1.7321,1.6934,1.6644,1.6479,1.6479,0.0,0.0,0.0,0.0,0.0,0.0,0.0,0.0,0.0,0.0,1.7587,1.8109,1.8109,1.8503,0.0,0.0,1.8695,1.8715,0.0,0.0,0.0,0.0,0.0,0.0,0.0,0.0,0.0,0.0,0.0,0.0,0.0,0.0,0.0,0.0,0.0,1.4345,1.4837,1.4962,0.0,1.5564,1.5699,1.5302,1.3555,1.2883,1.2372,1.1095,1.0282,0.9781,0.9737,0.9305,0.8912,0.8912,0.8912,0.8912,0.8912,0.8912,0.8912,0.0,0.0,0.9014,0.934,0.9635,0.9998,1.0585,1.0972,1.1345,1.1695,1.2084,1.2349,1.2491,1.2501,1.2269,1.1798,1.176,1.176,1.176,1.176,1.139,1.0666,1.0664,0.9974,0.8636,0.8636,0.7804,0.632,0.632,0.6065,0.5559,0.4475,0.4004,0.3895,0.2769,0.2296,0.2296,0.2296,0.2296,0.2296,0.2296,0.2296,0.2296,0.0,0.0,0.0,0.0,0.0,0.0,1.7774,1.8155,1.8307,1.7757,1.7218,1.6908,1.6908,1.6899,1.6882,1.6882,0.0,0.0,0.0,0.0,0.0,0.0,0.0,0.0,0.0,0.0,1.7294,1.8109,1.8109,1.8503,1.9292,1.8898,1.8695,1.8677,0.0,0.0,0.0,0.0,0.0,0.0,0.0,0.0,0.0,0.0,0.0,0.0,0.0,0.0,0.0,0.0,0.0,0.0,0.0,0.0,0.0,0.0,1.428,1.3694,1.2689,1.1675,1.0843,1.0571,1.0158,0.9754,0.9642,0.9234,0.8912,0.8912,0.8912,0.8912,0.8912,0.8912,0.8912,0.8912,0.8912,0.9014,0.934,0.9635,0.9988,1.0439,1.0633,1.0931,1.1526,1.2026,1.2349,1.2491,1.2501,1.176,1.0125,1.0045,1.0045,1.0045,1.0045,0.9122,0.7279,0.7263,0.7172,0.7042,0.7042,0.6212,0.4729,0.4729,0.3859,0.2333,0.2333,0.2333,0.2333,0.2296,0.2296,0.2296,0.2296,0.2296,0.2296,0.2296,0.2296,0.2296,0.0,0.0,0.0,0.0,0.0,0.0,0.0,1.9004,1.9015,1.7373,1.7638,1.7706,1.6968,1.6908,1.6908,1.6908,0.0,0.0,0.0,0.0,0.0,0.0,0.0,0.0,0.0,0.0,1.7294,1.8109,1.8109,1.8503,1.9292,1.8898,1.8549,1.8283,1.8164,1.8173,0.0,0.0,0.0,0.0,0.0,0.0,1.4067,0.0,0.0,0.0,0.0,0.0,0.0,0.0,0.0,0.0,0.0,0.0,0.0,1.2459,1.2078,1.1532,1.0714,1.0377,1.0255,1.0083,0.9774,0.9507,0.9462,0.9159,0.8912,0.8912,0.8912,0.8912,0.8912,0.8912,0.8912,0.8912,0.8912,0.8943,0.9038,0.9477,0.9988,1.0439,1.1077,1.1519,1.1709,1.1989,1.2234,1.2345,1.14,1.0552,1.0045,0.8917,0.8294,0.8294,0.8275,0.7944,0.7204,0.7189,0.6622,0.5418,0.5418,0.4584,0.306,0.306,0.2769,0.2296,0.2296,0.2296,0.2296,0.2296,0.2296,0.2296,0.2296,0.2296,0.2296,0.2296,0.2296,0.2296,0.0,0.0,0.0,0.0,0.0,0.0,0.0,1.8771,1.8798,1.7647,1.791,1.7935,1.727,1.721,1.7124,1.6926,0.0,0.0,0.0,0.0,0.0,0.0,0.0,0.0,0.0,1.6908,1.7294,1.8109,1.8109,1.8503,1.9292,1.8898,1.8485,1.8109,1.8109,1.8109,0.0,0.0,0.0,0.0,0.0,0.0,1.4067,0.0,0.0,0.0,0.0,0.0,0.0,0.0,0.0,0.0,0.0,0.0,0.0,0.0,1.0679,0.9798,0.9539,0.9693,0.9896,0.9748,0.9561,0.9393,0.9335,0.911,0.8912,0.8912,0.8912,0.8912,0.8912,0.8912,0.8912,0.8912,0.8912,0.8929,0.9011,0.9453,1.0001,1.0562,1.1307,1.1736,1.179,1.1455,1.129,1.1431,0.9968,0.8798,0.8134,0.7121,0.6252,0.5643,0.6187,0.6161,0.5399,0.5381,0.4839,0.3787,0.3787,0.3278,0.2296,0.2296,0.2296,0.2296,0.2296,0.2296,0.0,0.2296,0.2296,0.2296,0.2296,0.2296,0.2296,0.2296,0.2296,0.2296,0.0,0.0,0.0,0.0,0.0,0.0,0.0,0.0,1.791,1.8324,1.7986,1.7689,1.7655,1.7638,1.7442,1.6934,0.0,0.0,0.0,0.0,0.0,0.0,0.0,0.0,0.0,1.6936,1.7321,1.8109,1.8137,1.854,1.9292,1.8898,1.8494,1.8146,1.8118,1.8118,0.0,0.0,0.0,0.0,0.0,0.0,0.0,0.0,0.0,0.0,0.0,0.0,0.0,0.0,0.0,0.0,0.0,0.0,0.0,0.0,0.0,0.0,0.0,0.9432,0.9697,0.9595,0.9456,0.9342,0.9199,0.9035,0.0,0.8912,0.8912,0.8912,0.8912,0.8912,0.8912,0.8912,0.8912,0.896,0.9162,0.9585,1.014,1.086,1.135,1.1704,1.1769,1.0583,0.9867,0.9973,0.8324,0.6653,0.5085,0.4895,0.4094,0.2547,0.3956,0.3966,0.242,0.2325,0.2296,0.2296,0.2296,0.2296,0.2296,0.2296,0.2296,0.2296,0.2296,0.2296,0.2296,0.2296,0.2296,0.2296,0.2296,0.2296,0.2296,0.2296,0.2296,0.2296,0.0,0.0,0.0,0.0,0.0,0.0,0.0,0.0,0.0,0.0,1.7518,1.7545,1.7141,1.7089,1.7038,0.0,0.0,0.0,0.0,0.0,0.0,0.0,0.0,0.0,0.0,1.7202,1.7605,1.8109,1.8411,1.8805,1.9292,1.8898,1.865,1.8549,1.8237,1.8274,0.0,0.0,0.0,0.0,0.0,0.0,0.0,0.0,0.0,0.0,1.3267,1.3468,0.0,0.0,0.0,0.0,0.0,0.0,0.0,0.0,0.9389,0.8556,0.8754,0.0,0.9109,0.9075,0.9041,0.9004,0.0,0.8936,0.8912,0.8912,0.8912,0.8912,0.8912,0.8912,0.8912,0.8912,0.8912,0.896,0.9162,1.0036,1.0799,1.124,1.1789,1.2013,1.1661,1.0533,0.9796,0.9772,0.7161,0.5422,0.5024,0.3785,0.2889,0.2509,0.2819,0.2787,0.2389,0.2352,0.2296,0.2296,0.2296,0.2296,0.2296,0.2296,0.2296,0.2296,0.2296,0.2296,0.2296,0.2296,0.2296,0.2296,0.2296,0.2296,0.2296,0.2296,0.2296,0.2296,0.0,0.0,0.0,0.0,0.0,0.0,0.0,0.0,0.0,0.0,0.0,0.0,0.0,0.0,0.0,0.0,0.0,0.0,0.0,0.0,0.0,0.0,0.0,1.7092,1.6891,1.7293,1.7697,1.8109,1.8503,1.8916,1.9292,1.9081,1.8889,1.8686,1.8466,1.8595,0.0,0.0,0.0,0.0,1.4671,0.0,0.0,0.0,0.0,0.0,1.346,1.3653,0.0,1.3466,1.345,1.339,0.0,0.0,0.0,0.0,0.9298,0.8621,0.8747,0.8848,0.8912,0.8912,0.8912,0.8912,0.8912,0.8912,0.8912,0.8912,0.8912,0.8912,0.8912,0.8912,0.8912,0.8912,0.8912,0.9034,0.9412,1.0198,1.0928,1.1433,1.1843,1.1762,1.094,0.9568,0.8398,0.761,0.527,0.3853,0.3822,0.2978,0.2473,0.2467,0.2412,0.2395,0.2415,0.2348,0.2296,0.2296,0.2296,0.2296,0.2296,0.2296,0.2296,0.2296,0.2296,0.2296,0.2296,0.2296,0.2296,0.2296,0.2296,0.2296,0.2296,0.2296,0.2296,0.2296,0.0,0.0,0.0,0.0,0.0,0.0,0.0,0.0,0.0,0.0,0.0,0.0,0.0,0.0,0.0,0.0,0.0,0.0,0.0,0.0,0.0,0.0,0.0,1.7546,1.7122,1.7494,1.7862,1.8192,1.8595,1.8971,1.9301,1.9301,1.9127,1.8787,1.8787,1.897,0.0,0.0,0.0,0.0,1.4544,0.0,0.0,0.0,0.0,0.0,0.0,0.0,0.0,1.298,1.2702,1.2509,1.1317,0.0,0.0,0.0,0.0,0.0,0.8869,0.8912,0.8912,0.8912,0.8912,0.8912,0.8912,0.8912,0.8912,0.8912,0.8912,0.8912,0.8912,0.8912,0.8912,0.8912,0.897,0.9227,0.9842,1.0324,1.085,1.1502,1.1749,1.1366,1.0078,0.8457,0.6801,0.512,0.3456,0.2478,0.2389,0.2448,0.2474,0.2417,0.2415,0.2413,0.2371,0.2345,0.2296,0.2296,0.2296,0.2296,0.2296,0.2296,0.2296,0.2296,0.2296,0.2296,0.2296,0.2296,0.2296,0.2296,0.2296,0.2296,0.2296,0.2296,0.2296,0.2296,0.0,0.0,0.0,0.0,0.0,0.0,0.0,0.0,0.0,0.0,0.0,0.0,0.0,0.0,0.0,0.0,0.0,0.0,0.0,0.0,0.0,1.8702,1.875,1.8542,1.8104,1.8378,1.8559,1.8604,1.9017,1.9246,1.9301,1.9301,1.9265,1.921,1.921,1.9246,1.9202,0.0,0.0,0.0,1.4686,0.0,0.0,0.0,0.0,0.0,0.0,0.0,0.0,1.306,1.2702,1.2363,1.046,0.0,0.0,0.0,0.0,0.0,0.8869,0.8912,0.8912,0.8912,0.8912,0.8912,0.8912,0.8912,0.8912,0.8912,0.8912,0.8912,0.8912,0.8912,0.8912,0.8912,0.923,0.9758,1.0447,1.086,1.1234,1.1575,1.1976,1.1548,0.9828,0.8347,0.6817,0.5116,0.3402,0.2395,0.2386,0.2428,0.2414,0.2416,0.2415,0.2366,0.2303,0.2299,0.2296,0.2296,0.2296,0.2296,0.2296,0.2296,0.2296,0.2296,0.2296,0.2296,0.2296,0.2296,0.2296,0.2296,0.2296,0.2296,0.2296,0.2296,0.2296,0.2296,0.0,0.0,0.0,0.0,0.0,0.0,0.0,0.0,0.0,0.0,0.0,0.0,0.0,0.0,0.0,0.0,0.0,0.0,0.0,0.0,0.0,1.9786,1.9684,1.9183,1.8217,1.8535,1.8695,1.8695,1.9109,1.9301,1.9301,1.9301,1.9301,1.9301,1.9301,1.9035,1.8507,1.7249,1.6368,0.0,0.0,0.0,0.0,0.0,0.0,0.0,0.0,0.0,0.0,0.0,1.1933,1.1618,0.9418,0.0,0.0,0.0,0.0,0.0,0.8892,0.8912,0.8912,0.8912,0.8912,0.8912,0.8912,0.8912,0.8912,0.8912,0.8912,0.8912,0.8912,0.9041,0.9227,0.947,0.9751,1.0117,1.0538,1.0785,1.1097,1.1565,1.1728,1.0931,0.8671,0.7796,0.6281,0.3775,0.2847,0.2371,0.2339,0.239,0.2385,0.2355,0.2354,0.2347,0.2296,0.2318,0.2318,0.2296,0.2296,0.2296,0.2296,0.2296,0.2296,0.2296,0.2296,0.2296,0.2296,0.2296,0.2296,0.2296,0.2296,0.2296,0.2296,0.2296,0.2296,0.2296,0.0,0.0,0.0,0.0,0.0,0.0,0.0,0.0,0.0,0.0,0.0,0.0,0.0,0.0,0.0,0.0,0.0,0.0,0.0,0.0,2.1325,2.0812,2.041,1.9649,1.8452,1.8708,1.8833,1.8833,1.9155,1.9301,1.9301,1.9301,1.9301,1.9301,1.9094,1.8627,1.7925,1.686,1.5979,0.0,0.0,0.0,0.0,0.0,0.0,0.0,0.0,0.0,0.0,0.0,0.0,0.0,0.0,0.0,0.0,0.857,0.8726,0.8912,0.8912,0.8912,0.8912,0.8912,0.8912,0.8919,0.8953,0.896,0.897,0.9007,0.8987,0.896,0.896,0.9205,0.9527,0.9947,1.0209,1.0419,1.0666,1.0802,1.1087,1.1653,1.1263,1.0062,0.7716,0.6977,0.5495,0.2612,0.2373,0.2348,0.2309,0.2358,0.2357,0.2297,0.2296,0.2293,0.2287,0.2302,0.2305,0.2296,0.2289,0.229,0.2296,0.2296,0.2296,0.2296,0.2296,0.2293,0.2287,0.2287,0.2283,0.2276,0.2276,0.2281,0.2287,0.2294,0.2296,0.2296,0.0,0.0,0.0,0.0,0.0,0.0,0.0,0.0,0.0,0.0,0.0,0.0,0.0,0.0,0.0,0.0,0.0,0.0,0.0,0.0,2.2029,2.1973,2.0847,1.9947,1.9411,1.9318,1.9256,1.9256,1.9283,1.9301,1.9301,1.9301,1.9301,1.9262,1.8447,1.8058,1.7893,1.6207,1.5354,1.508,0.0,0.0,0.0,0.0,0.0,0.0,0.0,0.0,0.0,0.0,0.0,0.0,0.0,0.0,0.871,0.8696,0.8784,0.8912,0.8912,0.8912,0.8912,0.8912,0.8912,0.8946,0.9134,0.9165,0.9206,0.9349,0.9264,0.9165,0.9165,0.9298,0.9527,0.9947,1.0258,1.0677,1.1246,1.1335,1.1514,1.2013,1.0635,0.9067,0.7638,0.6028,0.4332,0.2535,0.2334,0.235,0.2373,0.235,0.2298,0.2296,0.2296,0.2284,0.2294,0.2292,0.2305,0.2296,0.2306,0.2307,0.2296,0.2296,0.2296,0.2296,0.2296,0.2318,0.2294,0.2294,0.2277,0.2216,0.2216,0.2233,0.2297,0.2287,0.2296,0.2296,0.0,0.0,0.0,0.0,0.0,0.0,0.0,0.0,0.0,0.0,0.0,0.0,0.0,0.0,0.0,0.0,0.0,0.0,0.0,2.2243,2.1749,2.0953,2.0459,1.9934,1.9385,1.9337,1.9301,1.9301,1.9301,1.9301,1.9301,1.9301,1.9015,1.8476,1.8318,1.7548,1.6354,1.59,1.5256,1.4514,1.4278,0.0,0.0,0.0,0.0,0.0,0.0,0.0,0.0,0.0,1.1021,1.0441,0.888,0.8581,0.8804,0.871,0.8791,0.8912,0.8912,0.8912,0.8912,0.8912,0.8912,0.8973,0.9267,0.9325,0.9339,0.9396,0.9483,0.9568,0.9568,0.9693,0.9913,1.036,1.0714,1.1053,1.1474,1.1535,1.1266,1.0555,0.9838,0.8457,0.6103,0.5206,0.4129,0.2505,0.232,0.2294,0.2324,0.2313,0.2298,0.2243,0.2243,0.2238,0.2227,0.2244,0.2249,0.2242,0.2232,0.2242,0.2306,0.2251,0.2243,0.2243,0.2243,0.2237,0.2227,0.2227,0.222,0.221,0.221,0.2228,0.229,0.2246,0.2255,0.2307,0.0,0.0,0.0,0.0,0.0,0.0,0.0,0.0,0.0,0.0,0.0,0.0,0.0,0.0,0.0,0.0,0.0,0.0,2.2402,2.2214,2.1721,2.0847,2.0421,2.001,1.9598,1.94,1.9301,1.9301,1.9301,1.9301,1.9301,1.9301,1.8878,1.8124,1.802,1.7085,1.5546,1.5517,1.4985,1.4192,1.4231,1.4254,0.0,0.0,0.0,0.0,0.0,0.0,0.0,0.0,1.0583,1.0038,0.8851,0.8666,0.8889,0.8787,0.8828,0.8912,0.8912,0.8912,0.8912,0.8912,0.8912,0.9014,0.9432,0.9486,0.9479,0.9574,0.968,0.9737,0.9781,0.9876,1.0092,1.0575,1.0938,1.1288,1.1511,1.1553,1.1089,0.968,0.8962,0.7615,0.5132,0.4312,0.3509,0.2436,0.2336,0.2311,0.2292,0.2281,0.2232,0.2211,0.221,0.2206,0.2196,0.2211,0.2211,0.2196,0.2187,0.2238,0.2276,0.222,0.221,0.221,0.221,0.2205,0.2196,0.2196,0.2191,0.2183,0.2192,0.2244,0.2261,0.2214,0.2224,0.2277,0.0,0.0,0.0,0.0,0.0,0.0,0.0,0.0,0.0,0.0,0.0,0.0,0.0,0.0,0.0,0.0,0.0,0.0,2.3001,2.244,2.2101,2.2082,2.0876,2.0206,2.0177,1.9618,1.9301,1.9301,1.9301,1.9301,1.9301,1.9301,1.8961,1.8337,1.7488,1.6656,1.5828,1.4966,1.4454,1.421,1.4261,1.4298,1.4298,0.0,0.0,0.0,0.0,0.0,0.0,0.0,1.0084,0.9943,0.9139,0.8909,0.8912,0.8912,0.8912,0.8912,0.8912,0.8912,0.8912,0.8912,0.8912,0.9068,0.9656,0.968,0.9663,0.9957,0.9788,0.9656,0.9768,0.9795,0.9971,1.0419,1.0904,1.1251,1.1369,1.1485,1.1053,0.964,0.7974,0.6425,0.5,0.3302,0.2296,0.2296,0.2306,0.229,0.229,0.2226,0.221,0.221,0.221,0.2195,0.22,0.22,0.22,0.22,0.2203,0.2187,0.221,0.221,0.221,0.221,0.221,0.2193,0.22,0.22,0.2216,0.2192,0.2188,0.22,0.2204,0.2199,0.221,0.221,0.0,0.0,0.0,0.0,0.0,0.0,0.0,0.0,0.0,0.0,0.0,0.0,0.0,0.0,0.0,0.0,0.0,0.0,2.3001,2.2833,2.2354,2.149,2.1107,2.0489,1.9598,1.94,1.9301,1.9301,1.9301,1.9152,1.8871,1.9111,1.8356,1.6802,1.7004,1.6198,1.4691,1.4688,1.4516,1.4261,1.4292,1.4298,1.4298,0.0,0.0,0.0,0.0,0.0,0.0,0.0,0.0,0.0,0.8828,0.8825,0.8912,0.8912,0.8912,0.8912,0.8912,0.8912,0.8912,0.8912,0.9068,0.9323,0.9608,0.9557,0.9595,1.0107,1.0056,0.9934,1.0117,1.0226,1.0337,1.047,1.0904,1.0866,0.9906,0.9897,0.9016,0.6428,0.5683,0.4771,0.3223,0.2609,0.2303,0.2303,0.224,0.2214,0.2228,0.2219,0.2204,0.2216,0.2215,0.2211,0.2202,0.2202,0.2202,0.2201,0.2192,0.2209,0.2213,0.2191,0.2215,0.2215,0.2215,0.221,0.2202,0.2202,0.2197,0.219,0.2198,0.2215,0.2199,0.2186,0.2195,0.2214,0.0,0.0,0.0,0.0,0.0,0.0,0.0,0.0,0.0,0.0,0.0,0.0,0.0,0.0,0.0,0.0,0.0,0.0,0.0,2.2777,2.2203,2.1242,2.0953,2.0333,1.9321,1.9301,1.9222,1.9053,1.9053,1.9003,1.8902,1.8939,1.8073,1.6506,1.6914,1.6093,1.4405,1.462,1.4544,1.4298,1.4298,1.4298,1.4244,0.0,0.0,0.0,0.0,0.0,0.0,0.0,0.0,0.0,0.8737,0.8838,0.8912,0.8912,0.8912,0.8912,0.8912,0.8912,0.8926,0.9011,0.9205,0.9435,0.9646,0.9761,0.9944,1.0368,1.029,1.0205,1.0415,1.0429,1.0446,1.0565,1.0383,0.996,0.9098,0.8613,0.7438,0.4942,0.4657,0.4015,0.2405,0.2247,0.2273,0.2273,0.221,0.2185,0.2201,0.2189,0.2208,0.2189,0.2188,0.2188,0.2188,0.2188,0.2188,0.2188,0.2188,0.2198,0.2215,0.2197,0.2188,0.2188,0.2188,0.2188,0.2188,0.2188,0.2188,0.2188,0.2188,0.2199,0.2214,0.2195,0.22,0.2216,0.0,0.0,0.0,0.0,0.0,0.0,0.0,0.0,0.0,0.0,0.0,0.0,0.0,0.0,0.0,0.0,0.0,0.0,0.0,0.0,2.1882,2.1242,2.0508,1.9873,1.9321,1.9262,1.9071,1.8754,1.8718,1.8826,1.9065,1.8664,1.7951,1.7002,1.6964,1.6109,1.4664,1.4664,1.4514,1.4298,1.4298,1.4298,1.4172,1.3119,0.0,0.0,0.0,0.0,0.0,0.0,0.0,0.0,0.8814,0.8912,0.8912,0.8912,0.8912,0.8912,0.8912,0.8919,0.896,0.9148,0.9328,0.9523,0.9832,1.0219,1.0544,1.0623,1.0487,1.0402,1.067,1.05,1.0376,1.0475,0.9557,0.8687,0.8415,0.741,0.6115,0.4582,0.4372,0.3816,0.235,0.2208,0.2206,0.2206,0.2213,0.2196,0.2196,0.2204,0.2188,0.2188,0.2188,0.2188,0.2188,0.2188,0.2188,0.2188,0.2188,0.2188,0.2188,0.2188,0.2188,0.2188,0.2188,0.2188,0.2188,0.2188,0.2188,0.2188,0.2188,0.2188,0.2188,0.2188,0.2188,0.2188,0.0,0.0,0.0,0.0,0.0,0.0,0.0,0.0,0.0,0.0,0.0,0.0,0.0,0.0,0.0,0.0,0.0,0.0,0.0,0.0,2.2335,2.1261,2.0099,1.944,1.9301,1.8982,1.8923,1.9085,1.8842,1.8531,1.8175,1.776,1.7097,1.6227,1.5908,1.5255,1.4394,1.4394,1.4346,1.4298,1.4298,1.4298,1.4172,1.3119,1.2702,0.0,0.0,0.0,0.0,0.0,0.0,0.0,0.8814,0.8912,0.8912,0.8912,0.8912,0.8912,0.8912,0.9022,0.9141,0.9204,0.9534,0.9984,1.04,1.0569,1.0616,1.0415,1.051,1.0643,1.0674,1.0637,1.0277,0.9235,0.8912,0.7971,0.5586,0.5166,0.4512,0.2909,0.2699,0.2594,0.2245,0.2189,0.221,0.221,0.2215,0.2198,0.2198,0.2192,0.2188,0.2188,0.2188,0.2188,0.2188,0.2188,0.2188,0.2188,0.2188,0.2188,0.2188,0.2188,0.2188,0.2188,0.2188,0.2188,0.2188,0.2188,0.2188,0.2188,0.2188,0.2188,0.2188,0.2188,0.2188,0.2188,0.0,0.0,0.0,0.0,0.0,0.0,0.0,0.0,0.0,0.0,0.0,0.0,0.0,0.0,0.0,0.0,0.0,0.0,0.0,0.0,2.2014,2.0779,1.9618,1.9022,1.9022,1.8583,1.826,1.805,1.7867,1.7807,1.7834,1.7453,1.6694,1.5708,1.5485,1.4986,1.4298,1.4298,1.4298,1.4298,1.4298,1.4298,1.4124,1.2562,1.1974,1.1707,0.9583,0.0,0.0,0.0,0.0,0.0,0.0,0.0,0.8912,0.8912,0.8912,0.8912,0.8912,0.8967,0.9103,0.9345,0.9768,1.0207,1.0541,1.0633,1.0677,1.0524,1.0612,1.0688,1.0688,1.0688,1.0452,0.9712,0.8491,0.7114,0.5527,0.4236,0.3127,0.2305,0.2202,0.2202,0.2202,0.2187,0.2213,0.2213,0.2197,0.2188,0.2188,0.2188,0.2188,0.2188,0.2188,0.2188,0.2188,0.2188,0.2188,0.2188,0.2188,0.2188,0.2188,0.2188,0.2188,0.2188,0.2188,0.2188,0.2188,0.2188,0.2188,0.2188,0.2188,0.2188,0.2188,0.2188,0.2188,0.2188,0.0,0.0,0.0,0.0,0.0,0.0,0.0,0.0,0.0,0.0,0.0,0.0,0.0,0.0,0.0,0.0,0.0,0.0,0.0,0.0,0.0,2.0245,1.924,1.87,1.87,1.8161,1.7569,1.6879,1.6815,1.698,1.7372,1.6978,1.6304,1.5384,1.5272,1.4867,1.4298,1.4298,1.4298,1.4298,1.4298,1.4298,1.4076,1.2004,1.1194,1.0925,0.8775,0.7988,0.806,0.8381,0.0,0.0,0.0,0.0,0.8912,0.8912,0.8912,0.8912,0.8912,0.8929,0.9054,0.9534,0.9927,1.0246,1.0415,1.0571,1.068,1.068,1.0671,1.0688,1.0688,1.0688,1.0552,1.0047,0.7971,0.6233,0.5732,0.3662,0.2188,0.2188,0.2188,0.2188,0.2188,0.2188,0.2188,0.2188,0.2188,0.2188,0.2188,0.2188,0.2188,0.2188,0.2188,0.2188,0.2188,0.2188,0.2188,0.2188,0.2188,0.2188,0.2188,0.2188,0.2188,0.2188,0.2188,0.2188,0.2188,0.2188,0.2188,0.2188,0.2188,0.2188,0.2188,0.2188,0.2188,0.2188,0.0,0.0,0.0,0.0,0.0,0.0,0.0,0.0,0.0,0.0,2.3001,0.0,0.0,0.0,0.0,0.0,0.0,0.0,2.2252,0.0,0.0,2.0206,1.924,1.87,1.87,1.7907,1.7402,1.7235,1.6872,1.6383,1.5721,1.5375,1.5275,1.5361,1.4723,1.4394,1.4298,1.4298,1.4298,1.4298,1.4298,1.4298,1.4076,1.2004,1.1194,1.0925,0.8775,0.7988,0.806,0.8381,0.8509,0.0,0.0,0.0,0.8912,0.8912,0.8912,0.8912,0.8912,0.9028,0.926,0.968,0.9808,0.9958,1.0274,1.0419,1.0521,1.0521,1.0626,1.0688,1.0688,1.0688,0.9881,0.7369,0.6667,0.5531,0.3093,0.2423,0.2188,0.2188,0.2188,0.2188,0.2188,0.2188,0.2188,0.2188,0.2188,0.2188,0.2188,0.2188,0.2188,0.2188,0.2188,0.2188,0.2188,0.2188,0.2188,0.2188,0.2188,0.2188,0.2188,0.2188,0.2188,0.2188,0.2188,0.2188,0.2188,0.2188,0.2188,0.2188,0.2188,0.2188,0.2188,0.2188,0.2188,0.2188,0.0,0.0,0.0,0.0,0.0,0.0,0.0,0.0,0.0,0.0,0.0,2.3001,0.0,0.0,0.0,2.3001,2.3001,2.2598,2.1653,2.0721,1.9952,1.937,1.8683,1.821,1.7988,1.7128,1.6554,1.6286,1.5886,1.5374,1.4771,1.4622,1.4629,1.4771,1.4442,1.4298,1.4298,1.4298,1.4298,1.4244,1.3661,1.339,1.3167,1.1097,1.0293,1.0096,0.8552,0.7988,0.8047,0.8289,0.8444,0.8546,0.8716,0.0,0.0,0.0,0.8912,0.8912,0.8912,0.9045,0.923,0.9427,0.9635,0.9825,0.9992,1.0205,1.0407,1.0407,0.987,0.9659,1.0538,1.0047,0.9108,0.7836,0.6268,0.48,0.3564,0.2691,0.2188,0.2188,0.2188,0.2188,0.2188,0.2188,0.2188,0.2188,0.2188,0.2188,0.2188,0.2188,0.2188,0.2188,0.2188,0.2188,0.2188,0.2188,0.2188,0.2188,0.2188,0.2188,0.2188,0.2188,0.2188,0.2188,0.2188,0.2188,0.2188,0.2188,0.2188,0.2188,0.2188,0.2188,0.2188,0.2188,0.2188,0.2188,0.0,0.0,0.0,0.0,0.0,0.0,0.0,0.0,0.0,0.0,0.0,0.0,0.0,0.0,0.0,0.0,2.2777,2.226,2.103,2.0245,1.9489,1.874,1.8141,1.7716,1.742,1.6561,1.5901,1.551,1.511,1.4684,1.4298,1.4298,1.4298,1.4298,1.4298,1.4298,1.4298,1.4298,1.4148,1.383,1.3022,1.2557,1.212,1.0288,0.9608,0.946,0.8382,0.7988,0.8037,0.8243,0.8389,0.8536,0.8662,0.8787,0.0,0.0,0.0,0.8912,0.8912,0.9018,0.9134,0.92,0.9464,0.9627,0.9301,0.9503,0.9646,0.9295,0.8499,0.822,0.9363,0.8734,0.7928,0.7569,0.5691,0.4167,0.3831,0.2859,0.2188,0.2188,0.2188,0.2188,0.2188,0.2188,0.2188,0.2188,0.2188,0.2188,0.2188,0.2188,0.2188,0.2188,0.2188,0.2188,0.2188,0.2188,0.2188,0.2188,0.2188,0.2188,0.2188,0.2188,0.2188,0.2188,0.2188,0.2188,0.2188,0.2188,0.2188,0.2188,0.2188,0.2188,0.2188,0.2188,0.2188,0.2188,0.0,0.0,0.0,0.0,0.0,0.0,0.0,0.0,0.0,0.0,0.0,0.0,2.3001,2.3001,2.2777,2.2206,2.2138,2.1615,2.0343,1.934,1.876,1.87,1.7887,0.0,1.7392,1.6561,1.5901,1.551,1.511,1.4684,1.4298,1.4298,1.4298,1.4298,1.4298,1.4298,1.4298,1.4298,1.3709,1.278,1.2727,1.212,1.117,1.0022,0.9608,0.946,0.8382,0.7988,0.8037,0.8243,0.8389,0.8536,0.8662,0.8787,0.8912,0.0,0.0,0.0,0.8912,0.8916,0.8956,0.9148,0.9308,0.9117,0.7968,0.7972,0.7861,0.6574,0.6368,0.6436,0.6505,0.6517,0.6074,0.4749,0.4396,0.3831,0.249,0.2256,0.2188,0.2188,0.2188,0.2188,0.2188,0.2188,0.2188,0.2188,0.2188,0.2188,0.2188,0.2188,0.2188,0.2188,0.2188,0.2188,0.2188,0.2188,0.2188,0.2188,0.2188,0.2188,0.2188,0.2188,0.2188,0.2188,0.2188,0.2188,0.2188,0.2188,0.2188,0.2188,0.2188,0.2188,0.2188,0.2188,0.2188,0.2188,0.0,0.0,0.0,0.0,0.0,0.0,0.0,0.0,0.0,0.0,0.0,0.0,0.0,2.2421,2.2176,2.1577,2.1136,2.0586,1.9864,1.9121,1.846,1.7878,1.7575,1.7142,1.6587,1.6016,1.5518,1.5119,1.4718,1.444,1.4298,1.4298,1.4298,1.4298,1.4298,1.4298,1.4298,1.4298,1.3685,1.2635,1.1999,1.1121,1.0047,0.897,0.8581,0.8531,0.8137,0.7988,0.8023,0.8077,0.8282,0.8515,0.8547,0.871,0.8912,0.8912,0.8912,0.8912,0.8912,0.8912,0.8923,0.9001,0.8555,0.7999,0.7572,0.7068,0.6553,0.6058,0.5362,0.4805,0.4758,0.4899,0.484,0.4371,0.3509,0.2726,0.2222,0.2141,0.2129,0.2129,0.2147,0.2125,0.2125,0.2177,0.2188,0.2188,0.2188,0.2188,0.2188,0.2188,0.2188,0.2188,0.2188,0.2188,0.2188,0.2188,0.2188,0.2188,0.2188,0.2188,0.2188,0.2188,0.2188,0.2188,0.2188,0.2188,0.2188,0.2188,0.2188,0.2188,0.2188,0.2188,0.2188,0.2188,0.2188,0.2188,0.0,0.0,0.0,0.0,0.0,0.0,0.0,0.0,0.0,0.0,0.0,0.0,0.0,0.0,2.1501,2.0731,2.006,1.9519,1.9094,1.8563,1.8008,1.7441,1.7109,1.6687,1.6105,1.5483,1.5077,1.4909,1.4405,1.4214,1.4298,1.4298,1.4298,1.4298,1.4298,1.4298,1.4298,1.4298,1.3492,1.2145,1.1463,1.0342,0.8994,0.8258,0.7988,0.7988,0.7988,0.8047,0.8091,0.8091,0.8313,0.856,0.856,0.8733,0.8912,0.8912,0.8912,0.8912,0.8912,0.8912,0.8912,0.8912,0.8451,0.7775,0.6933,0.6271,0.5578,0.472,0.3896,0.3304,0.3271,0.3382,0.3477,0.3527,0.2716,0.2103,0.2091,0.2109,0.2096,0.2096,0.2091,0.2106,0.2095,0.2164,0.2184,0.2174,0.2182,0.2188,0.2188,0.2188,0.2188,0.2188,0.2188,0.2188,0.2188,0.2188,0.2188,0.2188,0.2188,0.2188,0.2188,0.2188,0.2188,0.2188,0.2188,0.2188,0.2188,0.2188,0.2188,0.2188,0.2188,0.2188,0.2188,0.2188,0.2188,0.2188,0.0,0.0,0.0,0.0,0.0,0.0,0.0,0.0,0.0,2.2082,0.0,0.0,0.0,0.0,0.0,1.9715,1.906,1.8509,1.8057,1.7624,1.738,1.7367,1.6553,1.6098,1.607,1.504,1.4637,1.4876,1.4238,1.4045,1.4298,1.4298,1.4298,1.4298,1.4274,1.4244,1.4244,1.4244,1.3076,1.1194,1.117,0.9875,0.7988,0.7995,0.7995,0.7995,0.8002,0.815,0.8304,0.8304,0.8469,0.871,0.8716,0.8791,0.8912,0.8912,0.8912,0.8912,0.0,0.0,0.0,0.8912,0.9014,0.8489,0.6009,0.5578,0.4987,0.2472,0.2017,0.2038,0.2008,0.2008,0.1986,0.2013,0.2042,0.2093,0.2095,0.2094,0.2093,0.2093,0.2088,0.2095,0.2098,0.2151,0.2174,0.2111,0.2171,0.2188,0.2188,0.2188,0.2188,0.2188,0.2188,0.2188,0.2188,0.2188,0.2188,0.2188,0.2188,0.2188,0.2188,0.2188,0.2188,0.2188,0.2188,0.2188,0.2188,0.2188,0.2188,0.2188,0.2188,0.2188,0.2188,0.2188,0.2188,0.2188,0.0,0.0,0.0,0.0,0.0,0.0,0.0,2.2214,2.1949,0.0,0.0,0.0,2.0927,2.0784,2.0565,2.0276,1.9577,1.8936,1.8454,1.7778,1.7109,1.65,1.6231,1.5828,1.5253,1.4937,1.468,1.4469,1.4279,1.4226,1.4298,1.4298,1.4298,1.4274,1.3487,1.3143,1.3143,1.3143,1.2393,1.1121,1.0366,0.9213,0.8027,0.8163,0.8208,0.8221,0.8323,0.8387,0.8451,0.8451,0.8554,0.873,0.8814,0.8879,0.8912,0.8912,0.8912,0.8912,0.8912,0.0,0.0,0.0,0.0,0.0,0.6848,0.6136,0.5158,0.3544,0.3291,0.3081,0.2161,0.2008,0.201,0.1987,0.2026,0.2039,0.2029,0.2014,0.2032,0.2032,0.2026,0.204,0.2032,0.2086,0.2119,0.211,0.2171,0.2188,0.2188,0.2188,0.2188,0.2188,0.2188,0.2188,0.2188,0.2188,0.2188,0.2188,0.2188,0.2188,0.2188,0.2188,0.2188,0.2188,0.2188,0.2188,0.2188,0.2188,0.2188,0.2188,0.2188,0.2188,0.2188,0.2188,0.2188,0.2188,0.0,0.0,0.0,0.0,0.0,0.0,2.1787,2.1482,2.1175,0.0,0.0,0.0,2.0674,2.0574,2.0428,2.0259,1.982,1.9143,1.8169,1.7663,1.6942,1.5893,1.5695,1.5376,1.4903,1.4638,1.4426,1.4298,1.4183,1.4189,1.4298,1.4298,1.4052,1.3607,1.2974,1.246,1.2047,1.1609,1.1072,1.0469,0.9913,0.9051,0.815,0.8328,0.8386,0.8396,0.8478,0.8549,0.8577,0.8577,0.8679,0.8794,0.8882,0.8912,0.8912,0.8912,0.8912,0.8912,0.0,0.0,0.8912,0.8912,0.0,0.0,0.6669,0.6001,0.5062,0.3304,0.3034,0.2867,0.213,0.2008,0.2008,0.2008,0.2008,0.2013,0.1999,0.1987,0.2008,0.2008,0.2001,0.1987,0.1987,0.2074,0.2109,0.2109,0.2171,0.2188,0.2188,0.2188,0.2188,0.2188,0.2188,0.2188,0.2188,0.2188,0.2188,0.2188,0.2188,0.2188,0.2188,0.2188,0.2188,0.2188,0.2188,0.2188,0.2188,0.2188,0.2188,0.2188,0.2188,0.2188,0.2188,0.2188,0.2188,0.2188,0.0,0.0,0.0,2.1203,2.1244,2.1245,2.1177,2.0684,2.033,0.0,2.0121,2.017,2.0527,2.0495,2.0288,1.9926,1.968,1.8916,1.7423,1.7239,1.6661,1.5485,1.5094,1.4882,1.4822,1.4246,1.4063,1.4298,1.4063,1.4021,1.4124,1.4124,1.3565,1.2538,1.2412,1.1853,1.095,0.9875,0.9422,0.9454,0.9588,0.91,0.8315,0.8471,0.8532,0.8536,0.8526,0.8621,0.8733,0.8733,0.8798,0.8912,0.8912,0.8912,0.8912,0.8912,0.8912,0.0,0.0,0.0,0.0,0.8933,0.895,0.0,0.63,0.588,0.5282,0.2971,0.2562,0.2587,0.2468,0.2315,0.2223,0.2223,0.2099,0.2008,0.2008,0.2008,0.2008,0.2008,0.1999,0.2014,0.2014,0.2065,0.2099,0.2099,0.2164,0.2185,0.2188,0.2188,0.2188,0.2188,0.2188,0.2188,0.2188,0.2188,0.2188,0.2188,0.2188,0.2188,0.2188,0.2188,0.2188,0.2188,0.2188,0.2188,0.2188,0.2188,0.2188,0.2188,0.2188,0.2188,0.2188,0.2188,0.2188,0.2188,0.0,0.0,0.0,2.1203,2.1477,2.1491,2.0955,2.1094,2.1058,2.0511,2.0694,2.0906,2.0958,2.0395,1.999,1.9909,1.8378,1.7273,1.6944,1.6261,1.5614,1.5048,1.4946,1.474,1.4428,1.4291,1.4244,1.4298,1.4244,1.3807,1.3022,1.3022,1.2465,1.1439,1.0583,1.0096,0.985,0.8775,0.841,0.8555,0.8587,0.8473,0.8325,0.8564,0.8665,0.8682,0.8777,0.8841,0.8869,0.8869,0.8885,0.8912,0.8912,0.8912,0.8912,0.8912,0.8912,0.8912,0.8912,0.9022,0.9141,0.9141,0.9233,0.0,0.8593,0.8555,0.8206,0.6655,0.6432,0.6239,0.5305,0.4244,0.3539,0.3539,0.2683,0.2008,0.2008,0.2008,0.2008,0.2008,0.2012,0.1984,0.1984,0.2016,0.2004,0.2004,0.2087,0.2129,0.2187,0.2188,0.2188,0.2188,0.2188,0.2188,0.2188,0.2188,0.2188,0.2188,0.2188,0.2188,0.2188,0.2188,0.2188,0.2188,0.2188,0.2188,0.2188,0.2188,0.2188,0.2188,0.2188,0.2188,0.2188,0.2188,0.2188,0.2188,0.0,2.0469,2.0322,2.0524,2.0725,2.0815,2.0667,2.0842,2.0878,2.0542,2.0336,2.0193,2.0172,1.9428,1.8941,1.8941,1.7995,1.7139,1.6533,1.61,1.547,1.4647,1.4612,1.4509,1.4292,1.4298,1.4298,1.4298,1.4298,1.4028,1.3487,1.295,1.2169,1.1146,1.0071,0.9312,0.8775,0.8233,0.813,0.8304,0.8372,0.8447,0.8516,0.871,0.8798,0.8808,0.8882,0.8956,0.9045,0.9045,0.9096,0.9161,0.9161,0.9161,0.9161,0.9161,0.9161,0.9161,0.9161,0.9211,0.9294,0.9294,0.9352,0.0,0.0,0.8393,0.8078,0.6904,0.6661,0.6487,0.6004,0.4794,0.3905,0.3905,0.2836,0.2008,0.2008,0.2008,0.2008,0.2008,0.2008,0.2013,0.1996,0.201,0.2,0.2061,0.2092,0.2123,0.2186,0.2188,0.2188,0.2188,0.2188,0.2188,0.2188,0.2188,0.2188,0.2188,0.2188,0.2188,0.2188,0.2188,0.2188,0.2188,0.2188,0.2188,0.2188,0.2188,0.2188,0.2188,0.2188,0.2188,0.2188,0.2188,0.2188,0.2188,2.004,1.9703,1.9511,1.9829,2.0033,2.0243,2.0564,2.0674,2.0644,2.0421,1.9826,1.9295,1.9,1.8172,1.7654,1.7654,1.7429,1.6868,1.5903,1.5832,1.5371,1.434,1.4298,1.4298,1.4298,1.4298,1.4298,1.4298,1.4298,1.41,1.3685,1.2829,1.1755,1.0558,0.9682,0.8844,0.8057,0.8057,0.8187,0.8393,0.8513,0.8625,0.8726,0.8852,0.8929,0.8956,0.8983,0.91,0.9226,0.9226,0.9308,0.941,0.941,0.941,0.941,0.941,0.941,0.941,0.941,0.943,0.9425,0.9425,0.9445,0.9222,0.0,0.0,0.0,0.6772,0.652,0.6487,0.6614,0.5345,0.4269,0.4289,0.3015,0.2006,0.1969,0.2003,0.2008,0.2008,0.2008,0.1986,0.2008,0.201,0.2035,0.2096,0.2101,0.2116,0.2186,0.2188,0.2188,0.2188,0.2188,0.2188,0.2188,0.2188,0.2188,0.2188,0.2188,0.2188,0.2188,0.2188,0.2188,0.2188,0.2188,0.2188,0.2188,0.2188,0.2188,0.2188,0.2188,0.2188,0.2188,0.2188,0.2188,0.2188,1.9474,1.9624,1.985,1.9895,2.0491,2.0989,2.1013,2.1333,2.1185,2.0107,1.9892,1.9403,1.8265,1.7095,1.6391,1.6391,1.5371,1.4669,1.4532,1.4532,1.446,1.4322,1.4298,1.4298,1.4298,1.4298,1.4298,1.4298,1.4298,1.3366,1.156,1.1439,1.0288,0.8357,0.8233,0.8213,0.827,0.827,0.8404,0.8672,0.8798,0.8787,0.8726,0.8852,0.9018,0.9175,0.9311,0.9369,0.9383,0.9383,0.9396,0.941,0.941,0.941,0.941,0.941,0.941,0.941,0.941,0.9479,0.9585,0.9585,0.968,0.9677,0.943,0.0,0.9318,0.9215,0.0,0.9201,0.9337,0.0,0.0,0.5678,0.3605,0.1967,0.191,0.196,0.2008,0.2008,0.2008,0.2009,0.2012,0.2012,0.2037,0.2097,0.2102,0.2127,0.2185,0.2188,0.2188,0.2188,0.2188,0.2188,0.2188,0.2188,0.2188,0.2188,0.2188,0.2188,0.2188,0.2188,0.2188,0.2188,0.2188,0.2188,0.2188,0.2188,0.2188,0.2188,0.2188,0.2188,0.2188,0.2188,0.2188,0.2188,2.0024,2.0134,2.0317,2.0555,2.0888,2.1169,2.1416,2.1136,2.0393,1.9041,1.8311,1.7615,1.6819,1.5887,1.503,1.4244,1.3825,1.3543,1.3372,1.3366,1.3661,1.4274,1.4298,1.4298,1.4298,1.4298,1.4004,1.3366,1.3366,1.2635,1.1194,1.0563,0.9801,0.8903,0.8406,0.8211,0.8301,0.8386,0.8516,0.8723,0.8848,0.8923,0.9012,0.9137,0.9232,0.9322,0.9386,0.9439,0.9513,0.9513,0.9568,0.9635,0.9635,0.9635,0.9635,0.9635,0.9635,0.9635,0.9635,0.9683,0.9704,0.9704,0.9748,0.9775,0.9714,0.9669,0.9632,0.9687,0.0,0.0,0.0,0.0,0.0,0.0,0.5479,0.3992,0.3176,0.3099,0.2836,0.2099,0.2008,0.2008,0.2008,0.2008,0.2025,0.2035,0.2086,0.2115,0.2126,0.2179,0.2188,0.2188,0.2188,0.2188,0.2188,0.2188,0.2188,0.2188,0.2188,0.2188,0.2188,0.2188,0.2188,0.2188,0.2188,0.2188,0.2188,0.2188,0.2188,0.2188,0.2188,0.2188,0.2188,0.2188,0.2188,0.2188,2.0811,2.0738,2.0747,2.1062,2.0973,2.0881,2.0908,2.0325,1.9371,1.7953,1.7091,1.6351,1.5673,1.4838,1.3958,1.2991,1.2778,1.2599,1.2409,1.2704,1.3098,1.3545,1.3893,1.3889,1.3522,1.3522,1.3118,1.229,1.229,1.1755,1.073,0.9973,0.9463,0.922,0.8573,0.8342,0.8427,0.8547,0.8696,0.8849,0.9014,0.9208,0.9373,0.9444,0.9445,0.9449,0.949,0.9574,0.9666,0.9666,0.9707,0.9792,0.9792,0.9792,0.9792,0.9792,0.9792,0.9792,0.9792,0.9792,0.9792,0.9792,0.9792,0.9792,0.9792,0.9744,0.9717,0.9778,0.9744,0.0,0.0,0.0,0.7908,0.7878,0.0,0.5552,0.4586,0.4141,0.3416,0.2161,0.2008,0.2008,0.2008,0.2008,0.1988,0.1985,0.2039,0.2097,0.2095,0.2159,0.2176,0.2176,0.2184,0.2188,0.2188,0.2188,0.2188,0.2188,0.2188,0.2188,0.2188,0.2188,0.2188,0.2188,0.2188,0.2188,0.2188,0.2188,0.2188,0.2188,0.2188,0.2188,0.2188,0.2188,0.2188,0.2188,2.1599,2.1352,2.1089,2.1108,2.0669,2.0005,1.9041,1.8857,1.8388,1.7107,1.6901,1.6448,1.5248,1.4126,1.3432,1.337,1.2315,1.1641,1.1637,1.272,1.2879,1.1735,1.2802,1.2832,1.1532,1.1502,1.1403,1.1243,1.1243,1.0705,0.9657,0.9608,0.0,0.0,0.832,0.8454,0.8706,0.8831,0.9008,0.9192,0.9466,0.9673,0.9754,0.9652,0.9602,0.9618,0.9727,0.9781,0.9785,0.9785,0.9788,0.9792,0.9792,0.9792,0.9792,0.9792,0.9792,0.9792,0.9792,0.9792,0.9792,0.9792,0.9792,0.9792,0.9792,0.99,0.9964,0.9819,0.9903,0.9961,0.9815,0.8745,0.7884,0.0,0.6721,0.0,0.0,0.4723,0.3416,0.2161,0.2008,0.2008,0.2008,0.2008,0.1988,0.1985,0.1988,0.2033,0.2096,0.2094,0.211,0.211,0.2172,0.2188,0.2188,0.2188,0.2188,0.2188,0.2188,0.2188,0.2188,0.2188,0.2188,0.2188,0.2188,0.2188,0.2188,0.2188,0.2188,0.2188,0.2188,0.2188,0.2188,0.2188,0.2188,0.2188,1.9892,1.9672,1.9791,2.045,1.987,1.8903,1.7723,1.7543,1.7217,1.6351,1.6237,1.5825,1.4744,1.4297,1.338,1.163,1.1188,1.0918,1.0742,1.1037,1.1324,1.1599,1.199,1.2013,1.1532,1.1527,1.1193,1.0463,1.0463,0.9931,0.8867,0.8867,0.0,0.0,0.8516,0.8618,0.8726,0.8974,0.9138,0.9234,0.9486,0.9693,0.9785,0.9737,0.9717,0.9724,0.9771,0.9792,0.9792,0.9792,0.9792,0.9792,0.9792,0.9792,0.9792,0.9792,0.9792,0.9792,0.9792,0.9863,0.994,0.994,0.994,0.994,0.994,0.9981,0.9974,0.9822,0.991,0.9971,0.9819,0.9454,0.9161,0.0,0.0,0.818,0.0,0.53,0.3416,0.2161,0.2008,0.2008,0.2008,0.2008,0.2011,0.199,0.2008,0.2023,0.2033,0.2063,0.2089,0.2108,0.2119,0.2168,0.2188,0.2188,0.2188,0.2188,0.2188,0.2188,0.2188,0.2188,0.2188,0.2188,0.2188,0.2188,0.2188,0.2188,0.2188,0.2188,0.2188,0.2188,0.2188,0.2188,0.2188,0.2188,1.8926,1.8511,1.8557,1.9467,1.8783,1.7771,1.6712,1.6641,1.6535,1.6087,1.5739,1.5253,1.4598,1.3755,1.2562,1.0855,1.0424,1.0128,0.9933,1.0224,1.0449,1.0618,1.1059,1.1054,1.057,1.057,1.0227,0.9544,0.9544,0.9182,0.8509,0.8509,0.0,0.0,0.8665,0.8767,0.8882,0.9158,0.9294,0.9366,0.9585,0.971,0.9792,0.9792,0.9792,0.9792,0.9792,0.9792,0.9792,0.9792,0.9792,0.9792,0.9792,0.9792,0.9792,0.9792,0.9792,0.9802,0.9856,0.9944,1.0032,1.0086,1.0099,1.0099,1.0099,1.014,1.0133,1.0015,1.0072,1.0113,0.991,0.9869,0.9852,0.0,0.0,0.0,0.0,0.5988,0.4122,0.2836,0.2284,0.2008,0.2008,0.2008,0.2008,0.2008,0.1993,0.2003,0.2003,0.2032,0.2062,0.2092,0.2104,0.2124,0.2188,0.2188,0.2188,0.2188,0.2188,0.2188,0.2188,0.2188,0.2188,0.2188,0.2188,0.2188,0.2188,0.2188,0.2188,0.2188,0.2188,0.2188,0.2188,0.2188,0.2188,0.2188,1.8673,1.7892,1.7456,1.8149,1.7496,1.6628,1.6006,1.6062,1.6209,1.6199,1.5357,1.4727,1.4677,1.2568,1.1112,1.1054,1.0033,0.9359,0.9241,1.0235,1.0275,0.8967,1.0013,1.0019,0.8774,0.873,0.8655,0.8543,0.8536,0.8532,0.8532,0.8532,0.0,0.8723,0.873,0.8889,0.9221,0.9352,0.9483,0.9632,0.9737,0.9792,0.9792,0.9792,0.9795,0.9802,0.9795,0.9792,0.9792,0.9792,0.9792,0.9792,0.9792,0.9795,0.9802,0.9802,0.9805,0.9846,0.9991,1.0035,1.0076,1.0253,1.0322,1.0322,1.0322,1.0395,1.0453,1.0342,1.0424,1.0402,1.0072,0.9987,0.9967,0.0,0.0,0.0,0.8072,0.6754,0.5406,0.4059,0.2774,0.2008,0.2008,0.2008,0.2008,0.2008,0.2008,0.2008,0.2008,0.2002,0.2031,0.2095,0.2092,0.2122,0.2188,0.2188,0.2188,0.2188,0.2188,0.2188,0.2188,0.2188,0.2188,0.2188,0.2188,0.2188,0.2188,0.2188,0.2188,0.2188,0.2188,0.2188,0.2188,0.2188,0.2188,0.2188,1.7036,1.657,1.6325,1.6516,1.6322,1.6106,1.5919,1.5329,1.49,1.4877,1.4269,1.3549,1.2802,1.2133,1.1384,1.0361,0.9826,0.9534,0.9496,0.9675,0.9619,0.9298,0.9465,0.9465,0.9237,0.8963,0.8913,0.9009,0.8876,0.8794,0.8794,0.8794,0.8814,0.8858,0.8991,0.9111,0.9228,0.9439,0.9635,0.9741,0.9775,0.9792,0.9792,0.9792,0.9859,0.9944,0.9832,0.9792,0.9792,0.9792,0.9792,0.9792,0.9792,0.9866,0.9961,0.9961,1.0042,1.0171,1.0212,1.0297,1.0388,1.0429,1.0436,1.0436,1.0436,1.0466,1.0453,1.0342,1.0424,1.0402,1.0072,0.9987,0.9967,0.9815,0.9792,0.9359,0.8072,0.6754,0.5406,0.4059,0.2774,0.2008,0.2008,0.2008,0.2008,0.2008,0.2008,0.2008,0.2008,0.2015,0.2042,0.2094,0.2104,0.2134,0.2188,0.2188,0.2188,0.2188,0.2188,0.2188,0.2188,0.2188,0.2188,0.2188,0.2188,0.2188,0.2188,0.2188,0.2188,0.2188,0.2188,0.2188,0.2188,0.2188,0.2188,0.2188,1.6549,1.6344,1.6244,1.6247,1.5934,1.559,1.5362,1.5263,1.5091,1.4711,1.3995,1.3278,1.273,1.182,1.0955,1.021,0.9907,0.9744,0.9677,0.9564,0.9452,0.9413,0.9328,0.9322,0.941,0.915,0.91,0.921,0.9008,0.8912,0.8912,0.8912,0.8912,0.8919,0.9117,0.9248,0.9301,0.9574,0.9717,0.9792,0.9792,0.9792,0.0,0.9863,0.9903,0.9927,1.0005,0.9947,0.9879,0.9812,0.9836,0.989,0.989,0.9994,1.012,1.012,1.0212,1.0293,1.0354,1.0432,1.0507,1.0575,1.0592,1.0592,1.0592,1.0592,1.0568,1.049,1.0534,1.0521,1.0255,1.0211,1.014,0.9927,0.9836,0.9545,0.8839,0.7612,0.6263,0.4948,0.3633,0.2621,0.2069,0.2008,0.2008,0.2008,0.2008,0.2008,0.2008,0.1988,0.2016,0.2095,0.2109,0.2139,0.2188,0.2188,0.2188,0.2188,0.2188,0.2188,0.2188,0.2188,0.2188,0.2188,0.2188,0.2188,0.2188,0.2188,0.2188,0.2188,0.2188,0.2188,0.2188,0.2188,0.2188,0.2188,1.6703,1.6743,1.673,1.6652,1.5925,1.5154,1.4505,1.5194,1.5485,1.4665,1.3716,1.3114,1.3114,1.1452,1.0342,1.0342,1.0116,0.9961,0.9829,0.9687,0.9578,0.9445,0.9422,0.9418,0.9439,0.9298,0.9241,0.9241,0.9039,0.8929,0.8912,0.8912,0.8912,0.8919,0.9138,0.9305,0.9456,0.9713,0.9792,0.9792,0.9812,0.9819,0.9839,0.9991,0.9978,0.9941,1.0192,1.0181,1.0001,0.989,0.9937,1.0049,1.0049,1.0185,1.0342,1.0342,1.0356,1.0365,1.0487,1.0521,1.0555,1.0654,1.0688,1.0688,1.0688,1.0688,1.0688,1.0688,1.0688,1.0673,1.0521,1.0477,1.0314,0.9835,0.9814,0.9727,0.9353,0.8367,0.7222,0.6039,0.4562,0.0,0.2346,0.2099,0.2008,0.2008,0.2008,0.2008,0.2008,0.2003,0.2033,0.2095,0.2093,0.2124,0.2188,0.2188,0.2188,0.2188,0.2188,0.2188,0.2188,0.2188,0.2188,0.2188,0.2188,0.2188,0.2188,0.2188,0.2188,0.2188,0.2188,0.2188,0.2188,0.2188,0.2188,0.2188,1.6695,1.6912,1.6964,1.6455,1.5662,1.4708,1.3678,1.3184,1.2773,1.2399,1.158,1.1041,1.1041,1.0677,1.0456,1.0456,1.0174,0.9977,0.9981,0.9839,0.9741,0.9744,0.9632,0.9625,0.9741,0.9479,0.9369,0.9369,0.9216,0.9055,0.8912,0.8912,0.8912,0.8923,0.9222,0.949,0.9747,0.9768,0.9792,0.9802,0.9927,0.9978,0.9994,1.0181,1.0297,1.0368,1.0335,1.0181,1.0035,1.0164,1.0219,1.0239,1.0239,1.0337,1.0456,1.0456,1.0544,1.0649,1.0673,1.0647,1.0654,1.0681,1.0688,1.0688,1.0688,1.0688,1.0688,1.0688,1.0688,1.0673,1.0521,1.0395,0.9911,0.8643,0.945,0.9368,0.7009,0.6565,0.6347,0.5954,0.3793,0.2655,0.3483,0.2621,0.2008,0.2008,0.2008,0.2008,0.2008,0.2003,0.2033,0.2095,0.2093,0.2124,0.2188,0.2188,0.2188,0.2188,0.2188,0.2188,0.2188,0.2188,0.2188,0.2188,0.2188,0.2188,0.2188,0.2188,0.2188,0.2188,0.2188,0.2188,0.2188,0.2188,0.2188,0.2188,1.7166,1.6687,1.6199,1.5935,1.4522,1.3244,1.2694,1.1937,1.1535,1.1862,1.1545,1.1293,1.1293,1.0868,1.0609,1.0609,1.0373,1.0248,1.0248,1.0035,0.9907,0.9907,0.9768,0.9721,0.9788,0.9608,0.95,0.95,0.9376,0.9223,0.9049,0.9049,0.9011,0.8923,0.9249,0.9544,0.9792,0.9792,0.9792,0.9798,0.9869,0.9947,1.0004,1.0222,1.0356,1.0424,1.0477,1.0409,1.0248,1.028,1.0363,1.0388,1.0388,1.049,1.0609,1.0609,1.0663,1.0688,1.0688,1.0688,1.0688,1.0688,1.0688,1.0688,1.0688,1.0688,1.0688,1.0688,1.0688,1.0664,1.0622,1.049,1.016,0.9446,0.9227,0.8669,0.7289,0.6522,0.5816,0.5007,0.3809,0.3006,0.2932,0.2345,0.2008,0.2008,0.2008,0.2008,0.2008,0.2018,0.2081,0.2096,0.2141,0.2173,0.2188,0.2188,0.2188,0.2188,0.2188,0.2188,0.2188,0.2188,0.2188,0.2188,0.2188,0.2188,0.2188,0.2188,0.2188,0.2188,0.2188,0.2188,0.2188,0.2188,0.2188,0.2188,1.6896,1.5878,1.5058,1.5111,1.3436,1.2061,1.2011,1.1265,1.0958,1.1631,1.1725,1.1725,1.1725,1.1127,1.0688,1.0688,1.0578,1.049,1.049,1.0184,0.9987,0.9987,0.9873,0.9792,0.9792,0.971,0.9639,0.9608,0.949,0.9366,0.921,0.9245,0.9157,0.9065,0.9327,0.9574,0.9792,0.9825,0.9839,0.9846,0.9907,1.0005,1.013,1.0314,1.0407,1.0402,1.0603,1.0643,1.0524,1.0412,1.0449,1.0541,1.0541,1.0622,1.0688,1.0688,1.0688,1.0688,1.0688,1.0688,1.0688,1.0688,1.0688,1.0688,1.0688,1.0688,1.0688,1.0688,1.0688,1.0688,1.0688,1.0622,1.0443,1.0143,0.9269,0.8328,0.7423,0.658,0.5579,0.4201,0.377,0.3272,0.2514,0.2165,0.2008,0.2008,0.2008,0.2008,0.2008,0.2064,0.2096,0.2096,0.2156,0.2188,0.2188,0.2188,0.2188,0.2188,0.2188,0.2188,0.2188,0.2188,0.2188,0.2188,0.2188,0.2188,0.2188,0.2188,0.2188,0.2188,0.2188,0.2188,0.2188,0.2188,0.2188,0.2188,1.4653,1.4171,1.3855,1.3863,1.3018,1.2294,1.2047,1.1265,1.0744,1.0812,1.0809,1.0809,1.0809,1.0737,1.0688,1.0688,1.0578,1.049,1.049,1.0184,0.9987,0.9987,0.9873,0.9792,0.9792,0.9778,0.9707,0.9608,0.9595,0.9439,0.9214,0.9325,0.9425,0.9547,0.9574,0.9676,0.9798,0.9937,0.9967,1.0021,1.0321,1.0436,1.0466,1.0619,1.0647,1.0683,1.0677,1.0677,1.0664,1.0683,1.0654,1.0667,1.0667,1.0674,1.0688,1.0688,1.0688,1.0688,1.0688,1.0688,1.0688,1.0688,1.0688,1.0688,1.0688,1.0688,1.0688,1.0688,1.0688,1.0688,1.0688,1.0674,1.0263,0.8991,0.9715,0.911,0.5217,0.5645,0.5811,0.4265,0.3014,0.2685,0.3712,0.2705,0.2008,0.2008,0.2008,0.2008,0.2008,0.2064,0.2096,0.2096,0.2156,0.2188,0.2188,0.2188,0.2188,0.2188,0.2188,0.2188,0.2188,0.2188,0.2188,0.2188,0.2188,0.2188,0.2188,0.2188,0.2188,0.2188,0.2188,0.2188,0.2188,0.2188,0.2188,0.2188,1.4267,1.3386,1.2723,1.2878,1.1932,1.1157,1.1218,1.0935,1.0688,1.0688,1.0688,1.0688,1.0688,1.0688,1.0688,1.0688,1.0663,1.0629,1.0629,1.0432,1.0314,1.0314,1.0055,0.9927,0.9927,0.9839,0.9761,0.9707,0.9707,0.9632,0.9429,0.949,0.9551,0.9608,0.9608,0.969,0.9802,0.9954,0.9987,1.0004,1.028,1.0415,1.05,1.0561,1.0639,1.0688,1.0688,1.0688,1.0688,1.0688,1.0688,1.0688,1.0688,1.0688,1.0688,1.0688,1.0688,1.0688,1.0688,1.0688,1.0688,1.0688,1.0688,1.0688,1.0688,1.0688,1.0688,1.0688,1.0688,1.0688,1.0688,1.0688,1.0518,0.9948,0.9613,0.8842,0.7138,0.5869,0.4909,0.4282,0.2981,0.2306,0.2814,0.2384,0.2061,0.2061,0.2028,0.2008,0.2008,0.2064,0.2096,0.2096,0.2156,0.2188,0.2188,0.2188,0.2188,0.2188,0.2188,0.2188,0.2188,0.2188,0.2188,0.2188,0.2188,0.2188,0.2188,0.2188,0.2188,0.2188,0.2188,0.2188,0.2188,0.2188,0.2188,0.2188,1.3206,1.226,1.1576,1.1861,1.1073,1.048,1.0654,1.0688,1.0688,1.0688,1.0688,1.0688,1.0688,1.0688,1.0688,1.0688,1.0688,1.0688,1.0688,1.0575,1.049,1.049,1.0174,0.9987,0.9987,0.9869,0.9792,0.9792,0.9792,0.9717,0.9608,0.9608,0.9632,0.9673,0.969,0.9765,0.9869,1.0065,1.015,1.016,1.0348,1.047,1.0558,1.0558,1.0626,1.0688,1.0688,1.0688,1.0688,1.0688,1.0688,1.0688,1.0688,1.0688,1.0688,1.0688,1.0688,1.0688,1.0688,1.0688,1.0688,1.0688,1.0688,1.0688,1.0688,1.0688,1.0688,1.0688,1.0688,1.0688,1.0688,1.0688,1.0688,1.0688,0.9881,0.9075,0.8673,0.647,0.475,0.434,0.3004,0.2101,0.2111,0.2102,0.2096,0.2096,0.2057,0.2034,0.2034,0.2082,0.2109,0.2109,0.2161,0.2188,0.2188,0.2188,0.2188,0.2188,0.2188,0.2188,0.2188,0.2188,0.2188,0.2188,0.2188,0.2188,0.2188,0.2188,0.2188,0.2188,0.2188,0.2188,0.2188,0.2188,0.2188,0.2188,1.0899,1.0527,1.04,1.0663,1.0714,1.0684,1.0688,1.0688,1.0688,1.0688,1.0688,1.0688,1.0688,1.0688,1.0688,1.0688,1.0688,1.0688,1.0688,1.0575,1.049,1.049,1.0174,0.9987,0.9987,0.9869,0.9792,0.9792,0.9792,0.9717,0.9608,0.9608,0.9683,0.9795,0.9947,0.9984,1.0035,1.0361,1.0487,1.05,1.0653,1.0684,1.0684,1.0684,1.0684,1.0688,1.0688,1.0688,1.0688,1.0688,1.0688,1.0688,1.0688,1.0688,1.0688,1.0688,1.0688,1.0688,1.0688,1.0688,1.0688,1.0688,1.0688,1.0688,1.0688,1.0688,1.0688,1.0688,1.0688,1.0688,1.0688,1.0688,1.0688,1.0688,1.0688,1.0183,0.8806,0.7303,0.5865,0.4466,0.2989,0.2109,0.2109,0.2114,0.2096,0.2096,0.2096,0.2095,0.2095,0.2092,0.2108,0.2108,0.2172,0.2188,0.2188,0.2188,0.2188,0.2188,0.2188,0.2188,0.2188,0.2188,0.2188,0.2188,0.2188,0.2188,0.2188,0.2188,0.2188,0.2188,0.2188,0.2188,0.2188,0.2188,0.2188,0.2188,1.0754,1.0644,1.0609,1.0704,1.0688,1.0688,1.0688,1.0688,1.0688,1.0688,1.0688,1.0688,1.0688,1.0688,1.0688,1.0688,1.0688,1.0688,1.0688,1.0673,1.0649,1.0649,1.0456,1.0351,1.0351,1.0072,0.9947,0.9947,0.9842,0.9768,0.9724,0.9832,0.9903,0.995,1.0106,1.0209,1.0219,1.0412,1.049,1.0507,1.066,1.0688,1.0688,1.0688,1.0688,1.0688,1.0688,1.0688,1.0688,1.0688,1.0688,1.0688,1.0688,1.0688,1.0688,1.0688,1.0688,1.0688,1.0688,1.0688,1.0688,1.0688,1.0688,1.0688,1.0688,1.0688,1.0688,1.0688,1.0688,1.0688,1.0688,1.0688,1.0688,1.0688,1.0688,1.0552,1.0084,0.8809,0.7369,0.59,0.4481,0.3207,0.2274,0.2165,0.2159,0.2159,0.2159,0.2141,0.2098,0.2093,0.2109,0.2109,0.2172,0.2188,0.2188,0.2188,0.2188,0.2188,0.2188,0.2188,0.2188,0.2188,0.2188,0.2188,0.2188,0.2188,0.2188,0.2188,0.2188,0.2188,0.2188,0.2188,0.2188,0.2188,0.2188,0.2188,1.0688,1.0688,1.0688,1.0688,1.0688,1.0688,1.0688,1.0688,1.0688,1.0688,1.0688,1.0688,1.0688,1.0688,1.0688,1.0688,1.0688,1.0688,1.0688,1.0688,1.0688,1.0688,1.0575,1.049,1.049,1.017,0.9987,0.9987,0.992,0.9907,0.9995,1.0059,1.0106,1.0113,1.0293,1.0393,1.0371,1.0517,1.0578,1.0585,1.068,1.0688,1.0688,1.0688,1.0688,1.0688,1.0688,1.0688,1.0688,1.0688,1.0688,1.0688,1.0688,1.0688,1.0688,1.0688,1.0688,1.0688,1.0688,1.0688,1.0688,1.0688,1.0688,1.0688,1.0688,1.0688,1.0688,1.0688,1.0688,1.0688,1.0688,1.0688,1.0688,1.0688,1.0688,1.0688,1.0688,0.9008,0.7436,0.65,0.4699,0.3162,0.2289,0.2188,0.2188,0.2188,0.2188,0.2171,0.2133,0.2149,0.2126,0.2126,0.2179,0.2188,0.2188,0.2188,0.2188,0.2188,0.2188,0.2188,0.2188,0.2188,0.2188,0.2188,0.2188,0.2188,0.2188,0.2188,0.2188,0.2188,0.2188,0.2188,0.2188,0.2188,0.2188,0.2188,1.0688,1.0688,1.0688,1.0688,1.0688,1.0688,1.0688,1.0688,1.0688,1.0688,1.0688,1.0688,1.0688,1.0688,1.0688,1.0688,1.0688,1.0688,1.0688,1.0688,1.0688,1.0688,1.0582,1.0507,1.0507,1.0194,1.0045,1.0035,1.0035,1.0109,1.0312,1.0322,1.0293,1.0332,1.0443,1.0507,1.0517,1.066,1.0688,1.0688,1.0688,1.0688,1.0688,1.0688,1.0688,1.0688,1.0688,1.0688,1.0688,1.0688,1.0688,1.0688,1.0688,1.0688,1.0688,1.0688,1.0688,1.0688,1.0688,1.0688,1.0688,1.0688,1.0688,1.0688,1.0688,1.0688,1.0688,1.0688,1.0688,1.0688,1.0688,1.0688,1.0688,1.0688,1.0688,1.0688,1.0688,0.8404,0.6633,0.6433,0.4097,0.2423,0.2222,0.2188,0.2188,0.2188,0.2188,0.2188,0.2188,0.2188,0.2188,0.2188,0.2188,0.2188,0.2188,0.2188,0.2188,0.2188,0.2188,0.2188,0.2188,0.2188,0.2188,0.2188,0.2188,0.2188,0.2188,0.2188,0.2188,0.2188,0.2188,0.2188,0.2188,0.2188,0.2188,0.2188,1.0688,1.0688,1.0688,1.0688,1.0688,1.0688,1.0688,1.0688,1.0688,1.0688,1.0688,1.0688,1.0688,1.0688,1.0688,1.0688,1.0688,1.0688,1.0688,1.0688,1.0688,1.0688,1.0683,1.0666,1.0666,1.0483,1.0334,1.0226,1.0226,1.0246,1.0315,1.0392,1.0443,1.0449,1.0599,1.0666,1.0637,1.0704,1.0688,1.0688,1.0688,1.0688,1.0688,1.0688,1.0688,1.0688,1.0688,1.0688,1.0688,1.0688,1.0688,1.0688,1.0688,1.0688,1.0688,1.0688,1.0688,1.0688,1.0688,1.0688,1.0688,1.0688,1.0688,1.0688,1.0688,1.0688,1.0688,1.0688,1.0688,1.0688,1.0688,1.0688,1.0688,1.0688,1.0688,1.0688,1.0688,1.0114,0.8873,0.6667,0.5798,0.4564,0.2423,0.2188,0.2188,0.2188,0.2188,0.2188,0.2188,0.2188,0.2188,0.2188,0.2188,0.2188,0.2188,0.2188,0.2188,0.2188,0.2188,0.2188,0.2188,0.2188,0.2188,0.2188,0.2188,0.2188,0.2188,0.2188,0.2188,0.2188,0.2188,0.2188,0.2188,0.2188,0.2188,0.2188,1.0688,1.0688,1.0688,1.0688,1.0688,1.0688,1.0688,1.0688,1.0688,1.0688,1.0688,1.0688,1.0688,1.0688,1.0688,1.0688,1.0688,1.0688,1.0688,1.0688,1.0688,1.0688,1.0688,1.0688,1.0688,1.0571,1.0456,1.0378,1.0378,1.0412,1.0483,1.0561,1.0595,1.0599,1.0683,1.0688,1.0688,1.0688,1.0688,1.0688,1.0688,1.0688,1.0688,1.0688,1.0688,1.0688,1.0688,1.0688,1.0688,1.0688,1.0688,1.0688,1.0688,1.0688,1.0688,1.0688,1.0688,1.0688,1.0688,1.0688,1.0688,1.0688,1.0688,1.0688,1.0688,1.0688,1.0688,1.0688,1.0688,1.0688,1.0688,1.0688,1.0688,1.0688,1.0688,1.0688,1.0688,0.9579,0.8138,0.66,0.5265,0.3896,0.2356,0.2188,0.2188,0.2188,0.2188,0.2188,0.2188,0.2188,0.2188,0.2188,0.2188,0.2188,0.2188,0.2188,0.2188,0.2188,0.2188,0.2188,0.2188,0.2188,0.2188,0.2188,0.2188,0.2188,0.2188,0.2188,0.2188,0.2188,0.2188,0.2188,0.2188,0.2188,0.2188,0.2188,1.0688,1.0688,1.0688,1.0688,1.0688,1.0688,1.0688,1.0688,1.0688,1.0688,1.0688,1.0688,1.0688,1.0688,1.0688,1.0688,1.0688,1.0688,1.0688,1.0688,1.0688,1.0688,1.0688,1.0688,1.0688,1.0592,1.0527,1.0527,1.0527,1.0592,1.0688,1.0688,1.0688,1.0688,1.0688,1.0688,1.0688,1.0688,1.0688,1.0688,1.0688,1.0688,1.0688,1.0688,1.0688,1.0688,1.0688,1.0688,1.0688,1.0688,1.0688,1.0688,1.0688,1.0688,1.0688,1.0688,1.0688,1.0688,1.0688,1.0688,1.0688,1.0688,1.0688,1.0688,1.0688,1.0688,1.0688,1.0688,1.0688,1.0688,1.0688,1.0688,1.0688,1.0688,1.0688,1.0688,1.0688,0.8607,0.69,0.6466,0.4297,0.2658,0.2256,0.2188,0.2188,0.2188,0.2188,0.2188,0.2188,0.2188,0.2188,0.2188,0.2188,0.2188,0.2188,0.2188,0.2188,0.2188,0.2188,0.2188,0.2188,0.2188,0.2188,0.2188,0.2188,0.2188,0.2188,0.2188,0.2188,0.2188,0.2188,0.2188,0.2188,0.2188,0.2188,0.2188,1.0688,1.0688,1.0688,1.0688,1.0688,1.0688,1.0688,1.0688,1.0688,1.0688,1.0688,1.0688,1.0688,1.0688,1.0688,1.0688,1.0688,1.0688,1.0688,1.0688,1.0688,1.0688,1.0688,1.0688,1.0688,1.0664,1.0683,1.0683,1.0683,1.0664,1.0688,1.0688,1.0688,1.0688,1.0688,1.0688,1.0688,1.0688,1.0688,1.0688,1.0688,1.0688,1.0688,1.0688,1.0688,1.0688,1.0688,1.0688,1.0688,1.0688,1.0688,1.0688,1.0688,1.0688,1.0688,1.0688,1.0688,1.0688,1.0688,1.0688,1.0688,1.0688,1.0688,1.0688,1.0688,1.0688,1.0688,1.0688,1.0688,1.0688,1.0688,1.0688,1.0688,1.0688,1.0688,1.0688,1.0688,1.0316,0.9141,0.67,0.5999,0.4798,0.2423,0.2188,0.2188,0.2188,0.2188,0.2188,0.2188,0.2188,0.2188,0.2188,0.2188,0.2188,0.2188,0.2188,0.2188,0.2188,0.2188,0.2188,0.2188,0.2188,0.2188,0.2188,0.2188,0.2188,0.2188,0.2188,0.2188,0.2188,0.2188,0.2188,0.2188,0.2188,0.2188,0.2188,1.0688,1.0688,1.0688,1.0688,1.0688,1.0688,1.0688,1.0688,1.0688,1.0688,1.0688,1.0688,1.0688,1.0688,1.0688,1.0688,1.0688,1.0688,1.0688,1.0688,1.0688,1.0688,1.0688,1.0688,1.0688,1.0688,1.0688,1.0688,1.0688,1.0688,1.0688,1.0688,1.0688,1.0688,1.0688,1.0688,1.0688,1.0688,1.0688,1.0688,1.0688,1.0688,1.0688,1.0688,1.0688,1.0688,1.0688,1.0688,1.0688,1.0688,1.0688,1.0688,1.0688,1.0688,1.0688,1.0688,1.0688,1.0688,1.0688,1.0688,1.0688,1.0688,1.0688,1.0688,1.0688,1.0688,1.0688,1.0688,1.0688,1.0688,1.0688,1.0688,1.0688,1.0688,1.0688,1.0452,0.9679,0.8875,0.7603,0.5501,0.4599,0.3629,0.2322,0.2188,0.2188,0.2188,0.2188,0.2188,0.2188,0.2188,0.2188,0.2188,0.2188,0.2188,0.2188,0.2188,0.2188,0.2188,0.2188,0.2188,0.2188,0.2188,0.2188,0.2188,0.2188,0.2188,0.2188,0.2188,0.2188,0.2188,0.2188,0.2188,0.2188,0.2188,0.2188,0.2188,1.0688,1.0688,1.0688,1.0688,1.0688,1.0688,1.0688,1.0688,1.0688,1.0688,1.0688,1.0688,1.0688,1.0688,1.0688,1.0688,1.0688,1.0688,1.0688,1.0688,1.0688,1.0688,1.0688,1.0688,1.0688,1.0688,1.0688,1.0688,1.0688,1.0688,1.0688,1.0688,1.0688,1.0688,1.0688,1.0688,1.0688,1.0688,1.0688,1.0688,1.0688,1.0688,1.0688,1.0688,1.0688,1.0688,1.0688,1.0688,1.0688,1.0688,1.0688,1.0688,1.0688,1.0688,1.0688,1.0688,1.0688,1.0688,1.0688,1.0688,1.0688,1.0688,1.0688,1.0688,1.0688,1.0688,1.0688,1.0688,1.0688,1.0688,1.0688,1.0688,1.0688,1.0688,1.0419,0.9845,0.8742,0.7336,0.5865,0.4467,0.3362,0.2558,0.2222,0.2188,0.2188,0.2188,0.2188,0.2188,0.2188,0.2188,0.2188,0.2188,0.2188,0.2188,0.2188,0.2188,0.2188,0.2188,0.2188,0.2188,0.2188,0.2188,0.2188,0.2188,0.2188,0.2188,0.2188,0.2188,0.2188,0.2188,0.2188,0.2188,0.2188,0.2188,0.2188,0.2188,1.0688,1.0688,1.0688,1.0688,1.0688,1.0688,1.0688,1.0688,1.0688,1.0688,1.0688,1.0688,1.0688,1.0688,1.0688,1.0688,1.0688,1.0688,1.0688,1.0688,1.0688,1.0688,1.0688,1.0688,1.0688,1.0688,1.0688,1.0688,1.0688,1.0688,1.0688,1.0688,1.0688,1.0688,1.0688,1.0688,1.0688,1.0688,1.0688,1.0688,1.0688,1.0688,1.0688,1.0688,1.0688,1.0688,1.0688,1.0688,1.0688,1.0688,1.0688,1.0688,1.0688,1.0688,1.0688,1.0688,1.0688,1.0688,1.0688,1.0688,1.0688,1.0688,1.0688,1.0688,1.0688,1.0688,1.0688,1.0688,1.0688,1.0688,1.0688,1.0688,1.0688,1.0688,0.9613,0.8706,0.8607,0.7336,0.5865,0.4467,0.4201,0.363,0.2323,0.2188,0.2188,0.2188,0.2188,0.2188,0.2188,0.2188,0.2188,0.2188,0.2188,0.2188,0.2188,0.2188,0.2188,0.2188,0.2188,0.2188,0.2188,0.2188,0.2188,0.2188,0.2188,0.2188,0.2188,0.2188,0.2188,0.2188,0.2188,0.2188,0.2188,0.2188,0.2188,0.2188,1.0688,1.0688,1.0688,1.0688,1.0688,1.0688,1.0688,1.0688,1.0688,1.0688,1.0688,1.0688,1.0688,1.0688,1.0688,1.0688,1.0688,1.0688,1.0688,1.0688,1.0688,1.0688,1.0688,1.0688,1.0688,1.0688,1.0688,1.0688,1.0688,1.0688,1.0688,1.0688,1.0688,1.0688,1.0688,1.0688,1.0688,1.0688,1.0688,1.0688,1.0688,1.0688,1.0688,1.0688,1.0688,1.0688,1.0688,1.0688,1.0688,1.0688,1.0688,1.0688,1.0688,1.0688,1.0688,1.0688,1.0688,1.0688,1.0688,1.0688,1.0688,1.0688,1.0688,1.0688,1.0688,1.0688,1.0688,1.0688,1.0688,1.0688,1.0688,1.0688,1.0688,1.0688,0.951,0.8271,0.7367,0.6003,0.4567,0.3162,0.2994,0.2792,0.2256,0.2188,0.2188,0.2188,0.2188,0.2188,0.2188,0.2188,0.2188,0.2188,0.2188,0.2188,0.2188,0.2188,0.2188,0.2188,0.2188,0.2188,0.2188,0.2188,0.2188,0.2188,0.2188,0.2188,0.2188,0.2188,0.2188,0.2188,0.2188,0.2188,0.2188,0.2188,0.2188,0.2188,1.0688,1.0688,1.0688,1.0688,1.0688,1.0688,1.0688,1.0688,1.0688,1.0688,1.0688,1.0688,1.0688,1.0688,1.0688,1.0688,1.0688,1.0688,1.0688,1.0688,1.0688,1.0688,1.0688,1.0688,1.0688,1.0688,1.0688,1.0688,1.0688,1.0688,1.0688,1.0688,1.0688,1.0688,1.0688,1.0688,1.0688,1.0688,1.0688,1.0688,1.0688,1.0688,1.0688,1.0688,1.0688,1.0688,1.0688,1.0688,1.0688,1.0688,1.0688,1.0688,1.0688,1.0688,1.0688,1.0688,1.0688,1.0688,1.0688,1.0688,1.0688,1.0688,1.0688,1.0688,1.0688,1.0688,1.0688,1.0688,1.0688,1.0688,1.0688,1.0688,1.0688,1.0688,0.9141,0.7569,0.6533,0.48,0.3295,0.2323,0.2188,0.2188,0.2188,0.2188,0.2188,0.2188,0.2188,0.2188,0.2188,0.2188,0.2188,0.2188,0.2188,0.2188,0.2188,0.2188,0.2188,0.2188,0.2188,0.2188,0.2188,0.2188,0.2188,0.2188,0.2188,0.2188,0.2188,0.2188,0.2188,0.2188,0.2188,0.2188,0.2188,0.2188,0.2188,0.2188,1.0688,1.0688,1.0688,1.0688,1.0688,1.0688,1.0688,1.0688,1.0688,1.0688,1.0688,1.0688,1.0688,1.0688,1.0688,1.0688,1.0688,1.0688,1.0688,1.0688,1.0688,1.0688,1.0688,1.0688,1.0688,1.0688,1.0688,1.0688,1.0688,1.0688,1.0688,1.0688,1.0688,1.0688,1.0688,1.0688,1.0688,1.0688,1.0688,1.0688,1.0688,1.0688,1.0688,1.0688,1.0688,1.0688,1.0688,1.0688,1.0688,1.0688,1.0688,1.0688,1.0688,1.0688,1.0688,1.0688,1.0688,1.0688,1.0688,1.0688,1.0688,1.0688,1.0688,1.0688,1.0688,1.0688,1.0688,1.0688,1.0688,1.0688,1.0688,1.0688,1.0688,1.0688,0.8271,0.64,0.64,0.3963,0.2188,0.2188,0.2188,0.2188,0.2188,0.2188,0.2188,0.2188,0.2188,0.2188,0.2188,0.2188,0.2188,0.2188,0.2188,0.2188,0.2188,0.2188,0.2188,0.2188,0.2188,0.2188,0.2188,0.2188,0.2188,0.2188,0.2188,0.2188,0.2188,0.2188,0.2188,0.2188,0.2188,0.2188,0.2188,0.2188,0.2188,0.2188,1.0688,1.0688,1.0688,1.0688,1.0688,1.0688,1.0688,1.0688,1.0688,1.0688,1.0688,1.0688,1.0688,1.0688,1.0688,1.0688,1.0688,1.0688,1.0688,1.0688,1.0688,1.0688,1.0688,1.0688,1.0688,1.0688,1.0688,1.0688,1.0688,1.0688,1.0688,1.0688,1.0688,1.0688,1.0688,1.0688,1.0688,1.0688,1.0688,1.0688,1.0688,1.0688,1.0688,1.0688,1.0688,1.0688,1.0688,1.0688,1.0688,1.0688,1.0688,1.0688,1.0688,1.0688,1.0688,1.0688,1.0688,1.0688,1.0688,1.0688,1.0688,1.0688,1.0688,1.0688,1.0688,1.0688,1.0688,1.0688,1.0688,1.0688,1.0688,1.0688,1.0688,1.0688,0.8271,0.64,0.64,0.3963,0.2188,0.2188,0.2188,0.2188,0.2188,0.2188,0.2188,0.2188,0.2188,0.2188,0.2188,0.2188,0.2188,0.2188,0.2188,0.2188,0.2188,0.2188,0.2188,0.2188,0.2188,0.2188,0.2188,0.2188,0.2188,0.2188,0.2188,0.2188,0.2188,0.2188,0.2188,0.2188,0.2188,0.2188,0.2188,0.2188,0.2188,0.2188,1.0688,1.0688,1.0688,1.0688,1.0688,1.0688,1.0688,1.0688,1.0688,1.0688,1.0688,1.0688,1.0688,1.0688,1.0688,1.0688,1.0688,1.0688,1.0688,1.0688,1.0688,1.0688,1.0688,1.0688,1.0688,1.0688,1.0688,1.0688,1.0688,1.0688,1.0688,1.0688,1.0688,1.0688,1.0688,1.0688,1.0688,1.0688,1.0688,1.0688,1.0688,1.0688,1.0688,1.0688,1.0688,1.0688,1.0688,1.0688,1.0688,1.0688,1.0688,1.0688,1.0688,1.0688,1.0688,1.0688,1.0688,1.0688,1.0688,1.0688,1.0688,1.0688,1.0688,1.0688,1.0688,1.0688,1.0688,1.0688,1.0688,1.0688,1.0688,1.0688,1.0518,0.9948,0.7902,0.6199,0.5633,0.3629,0.2188,0.2188,0.2188,0.2188,0.2188,0.2188,0.2188,0.2188,0.2188,0.2188,0.2188,0.2188,0.2188,0.2188,0.2188,0.2188,0.2188,0.2188,0.2188,0.2188,0.2188,0.2188,0.2188,0.2188,0.2188,0.2188,0.2188,0.2188,0.2188,0.2188,0.2188,0.2188,0.2188,0.2188,0.2188,0.2188,0.2188,0.2188,1.0688,1.0688,1.0688,1.0688,1.0688,1.0688,1.0688,1.0688,1.0688,1.0688,1.0688,1.0688,1.0688,1.0688,1.0688,1.0688,1.0688,1.0688,1.0688,1.0688,1.0688,1.0688,1.0688,1.0688,1.0688,1.0688,1.0688,1.0688,1.0688,1.0688,1.0688,1.0688,1.0688,1.0688,1.0688,1.0688,1.0688,1.0688,1.0688,1.0688,1.0688,1.0688,1.0688,1.0688,1.0688,1.0688,1.0688,1.0688,1.0688,1.0688,1.0688,1.0688,1.0688,1.0688,1.0688,1.0688,1.0688,1.0688,1.0688,1.0688,1.0688,1.0688,1.0688,1.0688,1.0688,1.0688,1.0688,1.0688,1.0688,1.0688,1.0688,1.0585,1.0084,0.8809,0.7269,0.5767,0.4467,0.3095,0.2188,0.2188,0.2188,0.2188,0.2188,0.2188,0.2188,0.2188,0.2188,0.2188,0.2188,0.2188,0.2188,0.2188,0.2188,0.2188,0.2188,0.2188,0.2188,0.2188,0.2188,0.2188,0.2188,0.2188,0.2188,0.2188,0.2188,0.2188,0.2188,0.2188,0.2188,0.2188,0.2188,0.2188,0.2188,0.2188,0.2188,0.2188,1.0688,1.0688,1.0688,1.0688,1.0688,1.0688,1.0688,1.0688,1.0688,1.0688,1.0688,1.0688,1.0688,1.0688,1.0688,1.0688,1.0688,1.0688,1.0688,1.0688,1.0688,1.0688,1.0688,1.0688,1.0688,1.0688,1.0688,1.0688,1.0688,1.0688,1.0688,1.0688,1.0688,1.0688,1.0688,1.0688,1.0688,1.0688,1.0688,1.0688,1.0688,1.0688,1.0688,1.0688,1.0688,1.0688,1.0688,1.0688,1.0688,1.0688,1.0688,1.0688,1.0688,1.0688,1.0688,1.0688,1.0688,1.0688,1.0688,1.0688,1.0688,1.0688,1.0688,1.0688,1.0688,1.0688,1.0688,1.0688,1.0688,1.0688,1.0688,0.9815,0.8942,0.864,0.6437,0.4634,0.4333,0.3095,0.2188,0.2188,0.2188,0.2188,0.2188,0.2188,0.2188,0.2188,0.2188,0.2188,0.2188,0.2188,0.2188,0.2188,0.2188,0.2188,0.2188,0.2188,0.2188,0.2188,0.2188,0.2188,0.2188,0.2188,0.2188,0.2188,0.2188,0.2188,0.2188,0.2188,0.2188,0.2188,0.2188,0.2188,0.2188,0.2188,0.2188,0.2188,1.0688,1.0688,1.0688,1.0688,1.0688,1.0688,1.0688,1.0688,1.0688,1.0688,1.0688,1.0688,1.0688,1.0688,1.0688,1.0688,1.0688,1.0688,1.0688,1.0688,1.0688,1.0688,1.0688,1.0688,1.0688,1.0688,1.0688,1.0688,1.0688,1.0688,1.0688,1.0688,1.0688,1.0688,1.0688,1.0688,1.0688,1.0688,1.0688,1.0688,1.0688,1.0688,1.0688,1.0688,1.0688,1.0688,1.0688,1.0688,1.0688,1.0688,1.0688,1.0688,1.0688,1.0688,1.0688,1.0688,1.0688,1.0688,1.0688,1.0688,1.0688,1.0688,1.0688,1.0688,1.0688,1.0688,1.0688,1.0688,1.0688,1.0688,1.0688,0.9546,0.8371,0.7669,0.5735,0.4066,0.3396,0.2658,0.2188,0.2188,0.2188,0.2188,0.2188,0.2188,0.2188,0.2188,0.2188,0.2188,0.2188,0.2188,0.2188,0.2188,0.2188,0.2188,0.2188,0.2188,0.2188,0.2188,0.2188,0.2188,0.2188,0.2188,0.2188,0.2188,0.2188,0.2188,0.2188,0.2188,0.2188,0.2188,0.2188,0.2188,0.2188,0.2188,0.2188,0.2188,1.0688,1.0688,1.0688,1.0688,1.0688,1.0688,1.0688,1.0688,1.0688,1.0688,1.0688,1.0688,1.0688,1.0688,1.0688,1.0688,1.0688,1.0688,1.0688,1.0688,1.0688,1.0688,1.0688,1.0688,1.0688,1.0688,1.0688,1.0688,1.0688,1.0688,1.0688,1.0688,1.0688,1.0688,1.0688,1.0688,1.0688,1.0688,1.0688,1.0688,1.0688,1.0688,1.0688,1.0688,1.0688,1.0688,1.0688,1.0688,1.0688,1.0688,1.0688,1.0688,1.0688,1.0688,1.0688,1.0688,1.0688,1.0688,1.0688,1.0688,1.0688,1.0688,1.0688,1.0688,1.0688,1.0688,1.0688,1.0688,1.0688,1.0688,1.0688,0.9344,0.7836,0.66,0.5034,0.353,0.2356,0.2188,0.2188,0.2188,0.2188,0.2188,0.2188,0.2188,0.2188,0.2188,0.2188,0.2188,0.2188,0.2188,0.2188,0.2188,0.2188,0.2188,0.2188,0.2188,0.2188,0.2188,0.2188,0.2188,0.2188,0.2188,0.2188,0.2188,0.2188,0.2188,0.2188,0.2188,0.2188,0.2188,0.2188,0.2188,0.2188,0.2188,0.2188,0.2188,1.0688,1.0688,1.0688,1.0688,1.0688,1.0688,1.0688,1.0688,1.0688,1.0688,1.0688,1.0688,1.0688,1.0688,1.0688,1.0688,1.0688,1.0688,1.0688,1.0688,1.0688,1.0688,1.0688,1.0688,1.0688,1.0688,1.0688,1.0688,1.0688,1.0688,1.0688,1.0688,1.0688,1.0688,1.0688,1.0688,1.0688,1.0688,1.0688,1.0688,1.0688,1.0688,1.0688,1.0688,1.0688,1.0688,1.0688,1.0688,1.0688,1.0688,1.0688,1.0688,1.0688,1.0688,1.0688,1.0688,1.0688,1.0688,1.0688,1.0688,1.0688,1.0688,1.0688,1.0688,1.0688,1.0688,1.0688,1.0688,1.0688,1.0688,1.0688,0.8504,0.6633,0.6433,0.4198,0.2423,0.2222,0.2188,0.2188,0.2188,0.2188,0.2188,0.2188,0.2188,0.2188,0.2188,0.2188,0.2188,0.2188,0.2188,0.2188,0.2188,0.2188,0.2188,0.2188,0.2188,0.2188,0.2188,0.2188,0.2188,0.2188,0.2188,0.2188,0.2188,0.2188,0.2188,0.2188,0.2188,0.2188,0.2188,0.2188,0.2188,0.2188,0.2188,0.2188,0.2188,1.0688,1.0688,1.0688,1.0688,1.0688,1.0688,1.0688,1.0688,1.0688,1.0688,1.0688,1.0688,1.0688,1.0688,1.0688,1.0688,1.0688,1.0688,1.0688,1.0688,1.0688,1.0688,1.0688,1.0688,1.0688,1.0688,1.0688,1.0688,1.0688,1.0688,1.0688,1.0688,1.0688,1.0688,1.0688,1.0688,1.0688,1.0688,1.0688,1.0688,1.0688,1.0688,1.0688,1.0688,1.0688,1.0688,1.0688,1.0688,1.0688,1.0688,1.0688,1.0688,1.0688,1.0688,1.0688,1.0688,1.0688,1.0688,1.0688,1.0688,1.0688,1.0688,1.0688,1.0688,1.0688,1.0688,1.0688,1.0688,1.0688,1.0688,1.0688,0.8338,0.64,0.64,0.403,0.2188,0.2188,0.2188,0.2188,0.2188,0.2188,0.2188,0.2188,0.2188,0.2188,0.2188,0.2188,0.2188,0.2188,0.2188,0.2188,0.2188,0.2188,0.2188,0.2188,0.2188,0.2188,0.2188,0.2188,0.2188,0.2188,0.2188,0.2188,0.2188,0.2188,0.2188,0.2188,0.2188,0.2188,0.2188,0.2188,0.2188,0.2188,0.2188,0.2188,0.2188]},{"header":{"parameterUnit":"m.s-1","parameterCategory":1,"la1":30.6,"la2":28.766,"lo1":-90.7593,"lo2":-88.6598,"dy":0.0162,"dx":0.0183,"nx":116,"ny":114,"refTime":"2023-05-29T06:00:00:Z","depth":0,"parameterNumber":3,"parameterNumberName":"V-component_of_WINDS"},"data":[0.0,0.0,0.0,0.0,0.0,0.0,0.0,0.0,0.0,0.0,0.0,0.0,0.0,0.0,0.0,0.0,0.0,0.0,0.0,0.0,0.0,0.0,0.0,0.0,0.0,0.0,0.0,0.0,0.0,0.0,0.0,0.0,0.0,0.0,0.0,0.0,0.0,0.0,0.0,0.0,0.0,0.0,0.0,0.0,0.0,0.0,0.0,0.0,0.0,0.0,0.0,0.0,0.0,0.0,0.0,0.0,0.0,0.0,0.0,0.0,0.0,0.0,0.0,0.0,0.0,0.0,0.0,0.0,0.0,0.0,0.0,0.0,0.0,0.0,0.0,0.0,0.0,0.0,0.0,0.0,0.0,0.0,0.0,0.0,0.0,0.0,0.0,0.0,0.0,0.0,0.0,0.0,0.0,0.0,0.0,0.0,0.0,0.0,0.0,0.0,0.0,0.0,0.0,0.0,0.0,0.0,0.0,0.0,0.0,0.0,0.0,0.0,0.0,0.0,0.0,0.0,0.0,0.0,0.0,0.0,0.0,0.0,0.0,0.0,0.0,0.0,0.0,0.0,0.0,0.0,0.0,0.0,0.0,0.0,0.0,0.0,0.0,0.0,0.0,0.0,0.0,0.0,0.0,0.0,0.0,0.0,0.0,0.0,0.0,0.0,0.0,0.0,0.0,0.0,0.0,0.0,0.0,0.0,0.0,0.0,0.0,0.0,0.0,0.0,0.0,0.0,0.0,0.0,0.0,0.0,0.0,0.0,0.0,0.0,0.0,0.0,0.0,0.0,0.0,0.0,0.0,0.0,0.0,0.0,0.0,0.0,0.0,0.0,0.0,0.0,0.0,0.0,0.0,0.0,0.0,0.0,0.0,0.0,0.0,0.0,0.0,0.0,0.0,0.0,0.0,0.0,0.0,0.0,0.0,0.0,0.0,0.0,0.0,0.0,0.0,0.0,0.0,0.0,0.0,0.0,0.0,0.0,0.0,0.0,0.0,0.0,0.0,0.0,0.0,0.0,0.0,0.0,0.0,0.0,0.0,0.0,0.0,0.0,0.0,0.0,0.0,0.0,0.0,0.0,0.0,0.0,0.0,0.0,0.0,0.0,0.0,0.0,0.0,0.0,0.0,0.0,0.0,0.0,0.0,0.0,0.0,0.0,0.0,0.0,0.0,0.0,0.0,0.0,0.0,0.0,0.0,0.0,0.0,0.0,0.0,0.0,0.0,0.0,0.0,0.0,0.0,0.0,0.0,0.0,0.0,0.0,0.0,0.0,0.0,0.0,0.0,0.0,0.0,0.0,0.0,0.0,0.0,0.0,0.0,0.0,0.0,0.0,0.0,0.0,0.0,0.0,0.0,0.0,0.0,0.0,0.0,0.0,0.0,0.0,0.0,0.0,0.0,0.0,0.0,0.0,0.0,0.0,0.0,0.0,0.0,0.0,0.0,0.0,0.0,0.0,0.0,0.0,0.0,0.0,0.0,0.0,0.0,0.0,0.0,0.0,0.0,0.0,0.0,0.0,0.0,0.0,0.0,0.0,0.0,0.0,0.0,0.0,0.0,0.0,0.0,0.0,0.0,0.0,0.0,0.0,0.0,0.0,0.0,0.0,0.0,0.0,0.0,0.0,0.0,0.0,0.0,0.0,0.0,0.0,0.0,0.0,0.0,0.0,0.0,0.0,0.0,0.0,0.0,0.0,0.0,0.0,0.0,0.0,0.0,0.0,0.0,0.0,0.0,0.0,0.0,0.0,0.0,0.0,0.0,0.0,0.0,0.0,0.0,0.0,0.0,0.0,0.0,0.0,0.0,0.0,0.0,0.0,0.0,0.0,0.0,0.0,0.0,0.0,0.0,0.0,0.0,0.0,0.0,0.0,0.0,0.0,0.0,0.0,0.0,0.0,0.0,0.0,0.0,0.0,0.0,0.0,0.0,0.0,0.0,0.0,0.0,0.0,0.0,0.0,0.0,0.0,0.0,0.0,0.0,0.0,0.0,0.0,0.0,0.0,0.0,0.0,0.0,0.0,0.0,0.0,0.0,0.0,0.0,0.0,0.0,0.0,0.0,0.0,0.0,0.0,0.0,0.0,0.0,0.0,0.0,0.0,0.0,0.0,0.0,0.0,0.0,0.0,0.0,0.0,0.0,0.0,0.0,0.0,0.0,0.0,0.0,0.0,0.0,0.0,0.0,0.0,0.0,0.0,0.0,0.0,0.0,0.0,0.0,0.0,0.0,0.0,0.0,0.0,0.0,0.0,0.0,0.0,0.0,0.0,0.0,0.0,0.0,0.0,0.0,0.0,0.0,0.0,0.0,0.0,0.0,0.0,0.0,0.0,0.0,0.0,0.0,0.0,0.0,0.0,0.0,0.0,0.0,0.0,0.0,0.0,0.0,0.0,0.0,0.0,0.0,0.0,0.0,0.0,0.0,0.0,0.0,0.0,0.0,0.0,0.0,0.0,0.0,0.0,0.0,0.0,0.0,0.0,0.0,0.0,0.0,0.0,0.0,0.0,0.0,0.0,0.0,0.0,0.0,0.0,0.0,0.0,0.0,0.0,0.0,0.0,0.0,0.0,0.0,0.0,0.0,0.0,0.0,0.0,0.0,0.0,0.0,0.0,0.0,0.0,0.0,0.0,0.0,0.0,0.0,0.0,0.0,0.0,0.0,0.0,0.0,0.0,0.0,0.0,0.0,0.0,0.0,0.0,0.0,0.0,0.0,0.0,0.0,0.0,0.0,0.0,0.0,0.0,0.0,0.0,0.0,0.0,0.0,0.0,0.0,0.0,0.0,0.0,0.0,0.0,0.0,0.0,0.0,0.0,0.0,0.0,0.0,0.0,0.0,0.0,0.0,0.0,0.0,0.0,0.0,0.0,0.0,0.0,0.0,0.0,0.0,0.0,0.0,0.0,0.0,0.0,0.0,0.0,0.0,0.0,0.0,0.0,0.0,0.0,0.0,0.0,0.0,0.0,0.0,0.0,0.0,0.0,0.0,0.0,0.0,0.0,0.0,0.0,0.0,0.0,0.0,0.0,0.0,0.0,0.0,0.0,0.0,0.0,0.0,0.0,0.0,0.0,0.0,0.0,0.0,0.0,0.0,0.0,0.0,0.0,0.0,0.0,0.0,0.0,0.0,0.0,0.0,0.0,0.0,0.0,0.0,0.0,0.0,0.0,0.0,0.0,0.0,0.0,0.0,0.0,0.0,0.0,0.0,0.0,0.0,0.0,0.0,0.0,0.0,0.0,0.0,0.0,0.0,0.0,0.0,0.0,0.0,0.0,0.0,0.0,0.0,0.0,0.0,0.0,0.0,0.0,0.0,0.0,0.0,0.0,0.0,0.0,0.0,0.0,0.0,0.0,0.0,0.0,0.0,0.0,0.0,0.0,0.0,0.0,0.0,0.0,0.0,0.0,0.0,0.0,0.0,0.0,0.0,0.0,0.0,0.0,0.0,0.0,0.0,0.0,0.0,0.0,0.0,0.0,0.0,0.0,0.0,0.0,0.0,0.0,0.0,0.0,0.0,0.0,0.0,0.0,0.0,0.0,0.0,0.0,0.0,0.0,0.0,0.0,0.0,0.0,0.0,0.0,0.0,0.0,0.0,0.0,0.0,0.0,0.0,0.0,0.0,0.0,0.0,0.0,0.0,0.0,0.0,0.0,0.0,0.0,0.0,0.0,0.0,0.0,0.0,0.0,0.0,0.0,0.0,0.0,0.0,0.0,0.0,0.0,0.0,0.0,0.0,0.0,0.0,0.0,0.0,0.0,0.0,0.0,0.0,0.0,0.0,0.0,0.0,0.0,0.0,0.0,0.0,0.0,0.0,0.0,0.0,0.0,0.0,0.0,0.0,0.0,0.0,0.0,0.0,0.0,0.0,0.0,0.0,0.0,0.0,0.0,0.0,0.0,0.0,0.0,0.0,0.0,0.0,0.0,0.0,0.0,0.0,0.0,0.0,0.0,0.0,0.0,0.0,0.0,0.0,0.0,0.0,0.0,0.0,0.0,0.0,0.0,0.0,0.0,0.0,0.0,0.0,0.0,0.0,0.0,0.0,0.0,0.0,0.0,0.0,0.0,0.0,0.0,0.0,0.0,0.0,0.0,0.0,0.0,0.0,0.0,0.0,0.0,0.0,0.0,0.0,0.0,0.0,0.0,0.0,0.0,0.0,0.0,0.0,0.0,0.0,0.0,0.0,0.0,0.0,0.0,0.0,0.0,0.0,0.0,0.0,0.0,0.0,0.0,0.0,0.0,0.0,0.0,0.0,0.0,0.0,0.0,0.0,0.0,0.0,0.0,0.0,0.0,0.0,0.0,0.0,0.0,0.0,0.0,0.0,0.0,0.0,0.0,0.0,0.0,0.0,0.0,0.0,0.0,0.0,0.0,0.0,0.0,0.0,0.0,0.0,0.0,0.0,0.0,0.0,0.0,0.0,0.0,0.0,0.0,0.0,0.0,0.0,0.0,0.0,0.0,0.0,0.0,0.0,0.0,0.0,0.0,0.0,0.0,0.0,0.0,0.0,0.0,0.0,0.0,0.0,0.0,0.0,0.0,0.0,0.0,0.0,0.0,0.0,0.0,0.0,0.0,0.0,0.0,0.0,0.0,0.0,0.0,0.0,0.0,0.0,0.0,0.0,0.0,0.0,0.0,0.0,0.0,0.0,0.0,0.0,0.0,0.0,0.0,0.0,0.0,0.0,0.0,0.0,0.0,0.0,0.0,0.0,0.0,0.0,0.0,0.0,0.0,0.0,0.0,0.0,0.0,0.0,0.0,0.0,0.0,0.0,0.0,0.0,0.0,0.0,0.0,0.0,0.0,0.0,0.0,0.0,0.0,0.0,0.0,0.0,0.0,0.0,0.0,0.0,0.0,0.0,0.0,0.0,0.0,0.0,0.0,0.0,0.0,0.0,0.0,0.0,0.0,0.0,0.0,0.0,0.0,0.0,0.0,0.0,0.0,0.0,0.0,0.0,0.0,0.0,0.0,0.0,0.0,0.0,0.0,0.0,0.0,0.0,0.0,0.0,0.0,0.0,0.0,0.0,0.0,0.0,0.0,0.0,0.0,0.0,0.0,0.0,0.0,0.0,0.0,0.0,0.0,0.0,0.0,0.0,0.0,0.0,0.0,0.0,0.0,0.0,0.0,0.0,0.0,0.0,0.0,0.0,0.0,0.0,0.0,0.0,0.0,0.0,0.0,0.0,0.0,0.0,0.0,0.0,0.0,0.0,0.0,0.0,0.0,0.0,0.0,0.0,0.0,0.0,0.0,0.0,0.0,0.0,0.0,0.0,0.0,0.0,0.0,0.0,0.0,0.0,0.0,0.0,0.0,0.0,0.0,0.0,0.0,0.0,0.0,0.0,0.0,0.0,0.0,0.0,0.0,0.0,0.0,0.0,0.0,0.0,0.0,0.0,0.0,0.0,0.0,0.0,0.0,0.0,0.0,0.0,0.0,0.0,0.0,0.0,0.0,0.0,0.0,0.0,0.0,0.0,0.0,0.0,0.0,0.0,0.0,0.0,0.0,0.0,0.0,0.0,0.0,0.0,0.0,0.0,0.0,0.0,0.0,0.0,0.0,0.0,0.0,0.0,0.0,0.0,0.0,0.0,0.0,0.0,0.0,0.0,0.0,0.0,0.0,0.0,0.0,0.0,0.0,0.0,0.0,0.0,0.0,0.0,0.0,0.0,0.0,0.0,0.0,0.0,0.0,0.0,0.0,0.0,0.0,0.0,0.0,0.0,0.0,0.0,0.0,0.0,0.0,0.0,0.0,0.0,0.0,0.0,0.0,0.0,0.0,0.0,0.0,0.0,0.0,0.0,0.0,0.0,0.0,0.0,0.0,0.0,0.0,0.0,0.0,0.0,0.0,0.0,0.0,0.0,0.0,0.0,0.0,0.0,0.0,0.0,0.0,0.0,0.0,0.0,0.0,0.0,0.0,0.0,0.0,0.0,0.0,0.0,0.0,0.0,0.0,0.0,0.0,0.0,0.0,0.0,0.0,0.0,0.0,0.0,0.0,0.0,0.0,0.0,0.0,0.0,0.0,0.0,0.0,0.0,0.0,0.0,0.0,0.0,0.0,0.0,0.0,0.0,0.0,3.9398,3.9101,0.0,0.0,0.0,0.0,0.0,0.0,0.0,0.0,0.0,0.0,0.0,0.0,0.0,0.0,0.0,0.0,0.0,0.0,0.0,0.0,0.0,0.0,0.0,0.0,0.0,0.0,0.0,0.0,0.0,0.0,0.0,0.0,0.0,0.0,0.0,0.0,0.0,0.0,0.0,0.0,0.0,0.0,0.0,0.0,0.0,0.0,0.0,0.0,0.0,0.0,0.0,0.0,0.0,0.0,0.0,0.0,0.0,0.0,0.0,0.0,0.0,0.0,0.0,0.0,0.0,0.0,0.0,0.0,0.0,0.0,0.0,0.0,0.0,0.0,0.0,0.0,0.0,0.0,0.0,0.0,0.0,0.0,0.0,0.0,0.0,0.0,0.0,0.0,0.0,0.0,0.0,0.0,0.0,0.0,0.0,0.0,0.0,0.0,0.0,0.0,0.0,0.0,0.0,0.0,0.0,0.0,0.0,0.0,0.0,0.0,0.0,0.0,0.0,0.0,4.0427,4.0016,0.0,0.0,0.0,0.0,0.0,0.0,0.0,0.0,0.0,0.0,0.0,0.0,0.0,0.0,0.0,0.0,0.0,0.0,0.0,0.0,0.0,0.0,0.0,0.0,0.0,0.0,0.0,0.0,0.0,0.0,0.0,0.0,0.0,0.0,0.0,0.0,0.0,0.0,0.0,0.0,0.0,0.0,0.0,0.0,0.0,0.0,0.0,0.0,0.0,0.0,0.0,0.0,0.0,0.0,0.0,0.0,0.0,0.0,0.0,0.0,0.0,0.0,0.0,0.0,0.0,0.0,0.0,0.0,0.0,0.0,0.0,0.0,0.0,0.0,0.0,0.0,0.0,0.0,0.0,0.0,0.0,0.0,0.0,0.0,0.0,0.0,0.0,0.0,0.0,0.0,0.0,0.0,0.0,0.0,0.0,0.0,0.0,0.0,0.0,0.0,0.0,0.0,0.0,0.0,0.0,0.0,0.0,0.0,4.2686,4.3355,4.4005,4.4153,4.4302,4.4321,4.2341,4.1719,4.2064,4.1192,0.0,0.0,0.0,0.0,0.0,0.0,0.0,0.0,0.0,0.0,0.0,0.0,0.0,0.0,0.0,0.0,0.0,0.0,0.0,0.0,0.0,0.0,2.5865,2.649,2.6133,0.0,0.0,0.0,0.0,0.0,0.0,0.0,0.0,0.0,0.0,0.0,0.0,0.0,3.2293,3.3685,3.427,3.4087,3.2072,0.0,0.0,0.0,0.0,0.0,0.0,0.0,0.0,0.0,0.0,0.0,0.0,0.0,0.0,0.0,0.0,0.0,0.0,0.0,0.0,0.0,0.0,0.0,0.0,0.0,0.0,0.0,0.0,0.0,0.0,0.0,0.0,0.0,0.0,0.0,0.0,0.0,0.0,0.0,0.0,0.0,0.0,0.0,3.8706,3.8736,0.0,0.0,0.0,0.0,0.0,0.0,0.0,0.0,0.0,0.0,0.0,0.0,0.0,4.2314,4.2314,4.3113,4.3578,4.367,4.3782,4.3893,4.4023,4.4785,4.5517,4.6141,4.5825,0.0,4.2679,4.2541,0.0,0.0,0.0,0.0,0.0,0.0,0.0,0.0,0.0,0.0,0.0,0.0,0.0,0.0,0.0,0.0,0.0,0.0,0.0,0.0,0.0,2.6343,2.6674,2.7418,2.7653,2.783,0.0,0.0,0.0,0.0,0.0,0.0,0.0,0.0,0.0,0.0,3.1752,3.2812,3.395,3.4601,3.4899,3.4883,3.4308,3.3612,3.2812,3.2398,0.0,0.0,0.0,0.0,0.0,0.0,0.0,0.0,0.0,0.0,0.0,0.0,0.0,0.0,0.0,0.0,0.0,0.0,0.0,0.0,0.0,0.0,0.0,0.0,0.0,0.0,0.0,0.0,0.0,0.0,0.0,0.0,0.0,0.0,0.0,0.0,0.0,0.0,0.0,3.8716,3.9132,3.8847,3.9194,3.9338,0.0,0.0,0.0,0.0,0.0,0.0,0.0,0.0,0.0,4.2407,4.3113,4.3708,4.4191,4.5008,4.6104,4.7497,4.7943,4.863,4.9522,4.9893,5.0265,5.0599,5.0599,4.9726,4.8071,4.4968,4.4223,4.4833,0.0,0.0,0.0,0.0,4.3926,4.448,0.0,0.0,0.0,0.0,0.0,0.0,0.0,0.0,0.0,0.0,0.0,0.0,2.6784,2.7277,2.783,2.852,2.8975,2.9143,2.8932,0.0,0.0,0.0,0.0,0.0,0.0,0.0,0.0,3.2972,3.3552,3.4397,3.5462,3.5843,3.6038,3.6038,3.6406,3.5644,3.4049,3.3503,3.2729,0.0,0.0,0.0,0.0,0.0,0.0,0.0,0.0,0.0,0.0,0.0,0.0,0.0,0.0,0.0,0.0,0.0,0.0,0.0,0.0,0.0,0.0,0.0,0.0,0.0,0.0,0.0,0.0,0.0,0.0,0.0,0.0,0.0,0.0,0.0,0.0,0.0,0.0,3.9305,3.9803,3.8984,3.9782,4.0052,0.0,0.0,0.0,0.0,0.0,0.0,4.2508,4.3503,4.4413,4.5231,4.5677,4.629,4.7163,4.7961,4.928,5.1138,5.1732,5.2642,5.3813,5.4007,5.4167,5.4252,5.4252,5.4129,5.3527,4.8397,4.7137,4.8173,4.5403,4.4672,4.5317,4.6256,4.6976,4.7735,0.0,0.0,0.0,0.0,0.0,0.0,0.0,0.0,0.0,0.0,0.0,2.6807,2.6978,2.8243,2.9306,2.9854,2.9526,2.9817,3.1063,2.9444,0.0,0.0,0.0,0.0,0.0,0.0,0.0,3.3735,3.5843,3.692,3.7023,3.8424,3.9083,3.905,3.8394,3.6874,3.4833,3.48,3.3967,3.2575,0.0,0.0,0.0,0.0,0.0,0.0,0.0,0.0,0.0,0.0,0.0,0.0,0.0,0.0,0.0,0.0,0.0,0.0,0.0,0.0,0.0,0.0,0.0,0.0,0.0,0.0,0.0,0.0,0.0,0.0,0.0,0.0,0.0,0.0,0.0,0.0,0.0,0.0,0.0,3.9291,4.0535,0.0,0.0,0.0,0.0,4.143,4.2927,4.4191,4.5072,4.6605,4.7813,4.863,5.019,5.1416,5.2215,5.3023,5.3487,5.3617,5.3664,5.372,5.3822,5.4583,5.5147,5.5506,5.5506,5.6284,5.7213,5.3127,5.105,5.0387,4.9762,4.9561,4.9701,5.0783,5.1197,5.1398,0.0,0.0,0.0,0.0,0.0,0.0,0.0,0.0,0.0,2.5835,2.6513,2.7554,2.9027,3.0116,3.1198,3.2352,3.2282,3.2001,3.1523,3.0827,0.0,0.0,0.0,0.0,0.0,0.0,3.3768,3.5926,3.6721,3.7582,3.8523,3.905,3.9299,3.9282,3.902,3.8208,3.6957,3.6009,3.5032,3.4049,3.3309,3.2288,0.0,0.0,0.0,0.0,0.0,0.0,0.0,0.0,0.0,0.0,0.0,0.0,0.0,0.0,0.0,0.0,0.0,0.0,0.0,0.0,0.0,0.0,0.0,0.0,0.0,0.0,0.0,0.0,0.0,0.0,0.0,0.0,0.0,0.0,0.0,0.0,0.0,4.2073,4.364,0.0,4.3912,4.3678,4.4106,4.5435,4.6531,4.7757,4.915,5.0265,5.1231,5.2029,5.2633,5.333,5.4137,5.4434,5.5103,5.619,5.619,5.657,5.7286,5.7576,5.7919,5.8301,5.8301,5.8602,5.8946,5.7171,5.544,5.3753,5.2504,5.2027,5.2129,5.3075,5.3755,5.4342,0.0,0.0,0.0,0.0,0.0,0.0,0.0,0.0,0.0,2.6271,2.7207,2.86,3.0587,3.1957,3.3088,3.4013,3.3927,3.3265,3.199,3.1477,0.0,0.0,3.0737,0.0,0.0,3.3569,3.5015,3.747,3.7715,3.8341,3.9299,3.9299,3.9521,3.9937,3.9937,3.982,3.9489,3.8003,3.657,3.5214,3.4468,3.3591,3.2668,0.0,0.0,0.0,0.0,0.0,0.0,0.0,0.0,0.0,0.0,0.0,0.0,0.0,0.0,0.0,0.0,0.0,0.0,0.0,0.0,0.0,0.0,0.0,0.0,0.0,0.0,0.0,0.0,0.0,0.0,0.0,0.0,0.0,0.0,4.3332,4.488,4.4613,4.6681,4.772,4.6605,4.6513,4.6958,4.8017,4.9373,5.0748,5.2141,5.3255,5.4221,5.501,5.5057,5.5419,5.6236,5.6255,5.6812,5.7899,5.7899,5.8363,5.9206,5.9206,5.9475,5.9965,5.9965,6.0026,6.0108,5.9744,5.8743,5.7242,5.5588,5.4909,5.5025,5.5876,5.6511,5.7049,0.0,0.0,0.0,0.0,0.0,0.0,0.0,0.0,2.6036,2.6977,2.8375,2.991,3.1504,3.3596,3.4868,3.4781,3.4178,3.3429,3.2561,3.1246,0.0,0.0,0.0,0.0,3.388,3.5316,3.6796,3.8291,3.8987,3.9362,3.9392,3.9365,4.003,4.1256,4.1243,4.1637,4.223,4.0803,3.866,3.6153,3.5316,3.4956,3.4769,0.0,0.0,0.0,0.0,0.0,0.0,0.0,0.0,0.0,0.0,0.0,0.0,0.0,0.0,0.0,0.0,0.0,0.0,0.0,0.0,0.0,0.0,0.0,0.0,0.0,0.0,0.0,0.0,0.0,0.0,0.0,0.0,0.0,4.4042,4.6197,4.7497,4.6735,4.9485,5.0209,4.707,4.8147,4.9094,4.916,5.1398,5.3097,5.3914,5.5484,5.6729,5.7509,5.7555,5.7945,5.8725,5.8743,5.8735,5.8764,5.8727,5.8897,5.9243,5.9271,5.9656,6.0314,6.0346,6.0527,6.0806,6.0806,6.0806,6.0633,5.9011,5.8377,5.8467,5.9261,5.955,5.955,0.0,0.0,0.0,0.0,0.0,0.0,0.0,2.5782,2.6152,2.6987,2.8375,3.029,3.2917,3.422,3.5318,3.6357,3.4809,3.3475,3.2696,0.0,0.0,0.0,0.0,0.0,3.6362,3.6998,3.8285,4.0299,4.0167,4.0574,4.1476,4.1033,4.1453,4.2549,4.2163,4.2334,4.2854,4.2454,4.1847,4.0915,3.812,3.6385,3.5464,0.0,0.0,0.0,0.0,0.0,0.0,0.0,0.0,0.0,0.0,0.0,0.0,0.0,0.0,0.0,0.0,0.0,0.0,0.0,0.0,0.0,0.0,0.0,0.0,0.0,0.0,0.0,0.0,0.0,0.0,0.0,4.5509,4.5602,4.5026,4.7534,4.9596,5.0005,5.1361,5.2382,5.2633,5.254,5.32,5.4992,5.5772,5.6496,5.7313,5.7777,5.813,5.8353,5.8929,5.9356,5.956,5.956,5.9727,5.9991,5.9364,5.9387,6.0019,6.0597,6.08,6.0698,6.1338,6.1298,6.0806,6.0806,6.0806,6.0748,6.0281,6.0108,6.0146,6.0358,6.0435,6.0339,0.0,0.0,0.0,0.0,0.0,0.0,0.0,2.5809,2.6285,2.7341,2.8797,3.0715,3.3342,3.4579,3.5444,3.6038,3.4795,3.3472,3.2326,0.0,0.0,0.0,0.0,3.5843,3.8344,3.8738,3.9858,4.1771,4.1491,4.1737,4.2456,4.2219,4.2765,4.3919,4.3614,4.3812,4.4376,4.4058,4.3919,4.3696,4.1316,3.9547,3.83,3.7905,3.6964,3.5821,3.5779,3.5743,3.5642,3.5204,0.0,0.0,0.0,0.0,0.0,0.0,0.0,0.0,0.0,0.0,0.0,0.0,0.0,0.0,0.0,0.0,0.0,0.0,0.0,0.0,0.0,0.0,0.0,0.0,4.7943,4.889,4.8426,5.0265,5.1964,5.281,5.424,5.5261,5.5512,5.5419,5.5819,5.6905,5.7438,5.7909,5.8394,5.8895,5.9328,5.9656,5.9787,6.0209,6.0903,6.0537,6.0652,6.1249,6.0749,6.0803,6.1351,6.1454,6.1631,6.1858,6.2037,6.1806,6.1345,6.1345,6.1133,6.0806,0.0,0.0,0.0,0.0,6.0806,6.0729,0.0,0.0,0.0,0.0,0.0,0.0,0.0,2.5798,2.6377,2.7794,2.9258,3.0964,3.3114,3.4533,3.5169,3.4789,3.4319,3.3397,3.1847,0.0,0.0,3.5277,3.6257,3.7767,3.9983,4.0594,4.1572,4.2962,4.2899,4.2946,4.3095,4.3268,4.4046,4.5305,4.5246,4.5621,4.6261,4.5593,4.527,4.5169,4.4513,4.3372,4.1941,4.0706,3.9898,3.9382,3.879,3.7926,3.7041,3.6952,0.0,0.0,0.0,0.0,0.0,0.0,0.0,0.0,0.0,0.0,0.0,0.0,0.0,0.0,0.0,0.0,0.0,0.0,0.0,0.0,0.0,0.0,0.0,0.0,5.0302,5.281,5.2995,5.371,5.4453,5.5066,5.709,5.7899,5.658,5.7082,5.7269,5.6669,5.7557,5.8153,5.8198,5.9303,0.0,0.0,0.0,6.0933,6.2418,6.1662,6.1679,6.2496,6.2401,6.2531,6.2835,6.2153,6.2386,6.3275,6.2647,6.2326,6.223,6.223,6.1729,6.0941,6.0845,6.0806,6.0806,6.0806,6.0806,6.0806,0.0,0.0,0.0,0.0,0.0,0.0,0.0,2.5637,2.6204,2.7727,2.8688,3.0209,3.2718,3.3356,3.3991,3.5012,3.3863,3.2951,0.0,0.0,3.4325,3.6316,3.8363,4.0088,4.1458,4.2647,4.3663,4.4565,4.4122,4.4459,4.5503,4.5078,4.5506,4.6611,4.6193,4.63,4.6836,4.6693,4.6622,4.6593,4.6462,4.4879,4.2658,4.2745,4.2111,4.1158,4.1402,4.1345,4.1066,4.0414,3.9664,3.8763,3.7532,0.0,0.0,0.0,0.0,0.0,0.0,0.0,0.0,0.0,0.0,0.0,0.0,0.0,0.0,0.0,0.0,0.0,0.0,0.0,0.0,5.0859,5.2624,5.4035,5.5391,5.6283,5.6589,5.6116,5.6469,5.6896,5.7249,5.7416,5.7818,5.8587,5.885,5.9107,5.9429,6.0278,6.0839,6.099,6.2166,6.2943,6.3255,6.3103,6.3237,6.3654,6.3001,0.0,6.322,6.3764,6.3732,6.3333,6.3878,6.3724,6.3064,6.3064,6.2589,6.1787,6.1075,6.0806,6.0806,6.0806,6.0806,6.0806,0.0,0.0,0.0,0.0,0.0,0.0,0.0,2.5768,2.6358,2.7637,2.8724,3.0102,3.194,3.2694,3.3214,3.3616,3.2971,0.0,0.0,3.4764,3.6281,3.9175,4.0429,4.1929,4.3816,4.4385,4.4959,4.5607,4.5326,4.5469,4.6,4.5827,4.604,4.659,4.632,4.6556,4.7156,4.7323,4.7601,4.7921,4.77,4.6752,4.5436,4.4869,4.4013,4.3133,4.3373,4.3215,4.284,4.2437,4.177,4.0895,3.9727,3.879,3.8005,0.0,0.0,0.0,0.0,0.0,0.0,0.0,0.0,0.0,0.0,0.0,0.0,0.0,0.0,4.5287,4.733,0.0,5.0822,5.2865,5.4593,5.5999,5.7004,5.7845,5.8051,5.7257,5.7509,5.7987,5.8586,5.8661,5.8884,5.9466,5.9654,6.0004,6.0613,6.1222,6.1932,6.278,6.3186,6.3823,6.4691,6.4263,6.4355,6.4949,6.4541,6.4442,6.4609,6.4609,6.4609,6.4609,6.4609,6.4359,6.391,6.3487,6.3064,6.2627,6.1787,6.1172,6.0806,6.0806,6.0806,6.0806,0.0,0.0,0.0,0.0,0.0,0.0,0.0,0.0,0.0,2.7525,2.8644,2.9754,3.0823,3.1742,3.2193,3.1951,3.235,0.0,0.0,3.6278,3.8129,4.161,4.2055,4.3277,4.5535,4.5563,4.5776,4.6198,4.6198,4.6087,4.5887,4.61,4.6286,4.6409,4.6409,4.686,4.7631,4.7908,4.839,4.8935,4.8574,4.8341,4.8056,4.6759,4.5766,4.506,4.4899,4.4257,4.3508,4.3508,4.2965,4.219,4.1548,4.0895,4.0199,3.9347,3.8534,0.0,0.0,0.0,0.0,0.0,0.0,0.0,0.0,4.2674,4.4265,4.6104,4.7516,4.8909,5.0525,5.2577,5.4148,5.4549,5.642,5.7946,5.8302,5.8911,5.9089,5.8518,5.8965,5.945,5.9766,5.995,6.005,6.0142,6.0539,6.1093,6.1806,6.233,6.3211,6.457,6.4083,6.4474,6.5878,6.5205,6.5205,6.5904,6.5904,6.5904,6.5878,6.5166,6.5243,6.5865,6.5166,6.4859,6.4782,6.391,6.3545,6.3468,6.2647,6.1806,6.1037,6.0864,6.0806,6.0806,0.0,0.0,0.0,0.0,0.0,0.0,0.0,0.0,0.0,2.7385,2.766,2.814,2.9159,2.954,3.0143,3.121,0.0,0.0,3.5711,3.6892,3.8666,4.1174,4.2597,4.3801,4.4797,4.5675,4.6135,4.6198,4.6198,4.6186,4.6161,4.6186,4.6537,4.7174,4.7174,4.7739,4.8728,4.8753,4.8967,4.9257,4.9204,4.8782,4.8181,4.8002,4.7419,4.6652,4.5927,4.4721,4.3508,4.3508,4.2965,4.2279,4.219,4.2101,4.1777,4.0514,3.9608,3.9075,3.9348,4.0189,4.1046,4.1315,4.2002,4.3353,0.0,4.6997,4.7831,5.0228,5.0859,5.1472,5.3079,5.4193,5.5452,5.7248,5.8362,5.9148,5.9532,5.9676,5.9809,6.0012,5.9861,5.975,5.9809,6.0451,6.0979,6.1287,6.2063,6.2694,6.3085,6.3878,6.4416,6.4589,6.5263,6.5705,6.5904,6.5801,6.5801,6.5904,6.5904,6.5904,6.5904,6.5807,6.5801,6.5878,6.5807,6.5743,6.5686,6.4801,6.4455,6.4378,6.3506,6.2666,6.1864,6.1095,6.0806,6.0806,0.0,0.0,0.0,0.0,0.0,0.0,0.0,0.0,0.0,0.0,2.771,2.827,2.894,2.9255,2.9825,3.082,0.0,0.0,3.5943,3.7421,3.9511,4.2398,4.36,4.4631,4.5548,4.5991,4.6124,4.5963,4.5963,4.6119,4.6422,4.6422,4.6821,4.752,4.752,4.8021,4.8856,4.9232,4.9673,5.0154,5.0056,4.9519,4.8746,4.7848,4.6723,4.5559,4.522,4.4417,0.0,0.0,4.2894,4.2912,4.2458,4.2087,4.1636,4.0598,4.0212,4.0395,4.1597,4.2376,4.309,4.4175,4.5417,4.6847,4.8723,4.9875,5.0989,5.2494,5.3571,5.4611,5.5735,5.6759,5.7726,5.8549,5.9565,6.0211,6.0118,6.0487,6.0547,5.9914,6.0156,6.0388,6.0388,6.0694,6.1151,6.1812,6.2196,6.2881,6.4,6.4397,6.4839,6.534,6.5705,6.5904,6.5904,6.5904,6.5904,6.5904,6.5904,6.5904,6.5904,6.5904,6.5904,6.5904,6.5904,6.5904,6.5859,6.5513,6.5359,6.5263,6.4397,6.3858,6.3378,6.2056,6.1248,6.0806,0.0,0.0,0.0,0.0,0.0,0.0,0.0,0.0,0.0,0.0,0.0,0.0,0.0,2.8922,2.9506,3.0308,0.0,0.0,0.0,3.745,3.9646,4.2657,4.3746,4.4719,4.5673,4.587,4.5875,4.5688,4.5688,4.5897,4.6272,4.6272,4.6669,4.741,4.7617,4.8159,4.8979,4.9612,5.0121,5.0479,5.035,4.9543,4.83,4.6991,4.539,4.3868,4.3932,4.3204,0.0,0.0,4.1998,4.2302,4.2223,4.1922,4.1505,4.1008,4.1099,4.1697,4.3285,4.4352,4.5361,4.681,4.8556,5.0209,5.1286,5.2605,5.3905,5.4936,5.6116,5.7168,5.7846,5.8642,5.9336,5.9767,6.0559,6.1054,6.0823,6.1093,6.0859,5.9642,5.9858,6.0204,6.0416,6.0883,6.1518,6.2364,6.2653,6.3422,6.4878,6.4955,6.5243,6.5878,6.5904,6.5904,6.5904,6.5904,6.5904,6.5904,6.5904,6.5904,6.5904,6.5904,6.5904,6.5904,6.5904,6.5904,6.5878,6.5628,6.5686,6.5788,6.4686,6.4243,6.407,6.2633,6.1691,6.1114,0.0,0.0,0.0,0.0,0.0,0.0,0.0,0.0,0.0,0.0,0.0,0.0,0.0,0.0,2.873,2.9463,0.0,0.0,0.0,3.6674,3.8565,4.0889,4.2425,4.3594,4.4337,4.5057,4.5423,4.541,4.541,4.5427,4.5432,4.5432,4.5858,4.6652,4.7376,4.8284,4.9336,5.0067,5.0124,4.9728,4.9736,4.8349,4.6205,4.5444,4.3831,4.2026,4.2286,0.0,0.0,4.0048,3.9905,3.9635,4.1369,4.1904,4.1921,4.2179,4.2474,4.2931,4.3748,4.5743,4.7794,4.863,5.0673,5.2902,5.449,5.5549,5.6636,5.8223,5.8595,5.8728,5.9084,5.9187,5.9694,6.1197,6.1452,6.1621,6.1989,6.1333,6.0487,5.9608,5.8833,5.8684,5.9454,6.1075,6.2403,6.3198,6.4051,6.4916,6.5801,6.5865,6.5859,6.5904,6.5904,6.5904,6.5904,6.5904,6.5904,6.5904,6.5904,6.5904,6.5904,6.5904,6.5904,6.5904,6.5904,6.5904,6.582,6.4993,6.5147,6.5731,6.4006,6.3333,6.3237,6.2403,6.2076,6.1941,0.0,0.0,0.0,0.0,0.0,0.0,0.0,0.0,0.0,0.0,0.0,0.0,0.0,0.0,0.0,0.0,2.9963,3.1248,0.0,3.5576,3.7502,3.9296,4.1314,4.2521,4.2763,4.4022,4.4665,4.4665,4.5169,4.5673,4.6203,4.6203,4.66,4.7341,4.7582,4.7897,4.8266,4.8697,4.9091,4.9356,4.8504,4.7703,4.678,4.4794,4.2939,4.1344,0.0,0.0,3.896,3.8381,3.8728,3.9517,4.0121,4.0427,4.0734,4.1593,4.3081,4.4748,4.6085,4.8277,5.0599,5.2484,5.4017,5.5484,5.709,5.7685,5.8037,5.8595,5.7852,5.7202,5.7491,5.7296,5.7493,5.8765,6.0616,6.1748,6.1294,6.1935,6.1525,5.9006,5.9454,5.9627,5.88,5.9723,6.0973,6.2403,6.3281,6.4122,6.4993,6.559,6.5904,6.5904,6.5904,6.5904,6.5904,6.5904,6.5904,6.5904,6.5904,6.5904,6.5904,6.5904,6.5904,6.5904,6.5904,6.5904,6.5878,6.557,6.5282,6.4974,6.4397,6.3814,6.3198,6.2403,6.2095,6.1979,0.0,0.0,0.0,0.0,0.0,0.0,0.0,0.0,0.0,0.0,0.0,0.0,0.0,0.0,0.0,0.0,0.0,3.0472,3.2748,0.0,3.6059,3.7329,3.9313,4.0382,4.0382,4.1883,4.2521,4.2263,4.3285,4.391,4.4147,4.4423,4.4958,4.5682,4.5958,4.6234,4.6506,4.6672,4.689,4.7021,4.5909,4.5147,4.4462,4.2678,4.1263,0.0,0.0,0.0,3.8922,3.8016,3.8199,3.8875,3.9237,3.9899,4.0824,4.2444,4.4459,4.6651,4.8853,5.1026,5.32,5.5363,5.6533,5.7425,5.8465,5.8706,5.8562,5.808,5.7169,5.6398,5.6206,5.5925,5.6207,5.7666,5.9521,6.0864,6.1229,6.1666,6.1256,5.9415,5.9627,5.9608,5.8819,5.9204,6.0223,6.196,6.2858,6.3679,6.4551,6.5436,6.5904,6.5904,6.6192,6.6192,6.5904,6.6192,6.6192,6.5904,6.5904,6.5904,6.5904,6.5904,6.5904,6.5904,6.5904,6.5904,6.5904,6.5904,6.5397,6.457,6.4256,6.3628,6.2762,6.1941,6.1633,6.1556,0.0,0.0,0.0,0.0,0.0,0.0,0.0,0.0,0.0,0.0,0.0,0.0,0.0,0.0,0.0,0.0,0.0,0.0,3.2645,0.0,0.0,3.5052,3.6553,3.7381,3.7381,3.883,3.9244,3.8537,4.0049,4.04,3.9715,4.0486,4.1228,4.1987,4.2741,4.3465,4.4138,4.4138,4.3724,4.3,4.2211,4.1015,3.9697,3.9382,0.0,0.0,0.0,0.0,3.8822,3.8822,3.8368,3.7977,3.899,4.0401,4.2211,4.47,4.6587,4.8593,5.1844,5.3896,5.5512,5.7146,5.813,5.8687,5.865,5.8615,5.8226,5.6902,5.6552,5.6185,5.5238,5.5065,5.5759,5.7831,5.8313,5.93,6.1749,6.0742,6.0031,6.0787,5.9492,5.8838,5.9569,5.9665,6.0377,6.2037,6.2878,6.3679,6.4551,6.5474,6.5936,6.5904,6.6731,6.6769,6.5904,6.6654,6.6654,6.5904,6.5904,6.5904,6.5904,6.5904,6.5904,6.5904,6.5904,6.5904,6.5904,6.5904,6.5397,6.4512,6.3641,6.282,6.1979,6.1114,6.0806,6.0806,0.0,0.0,0.0,0.0,0.0,0.0,0.0,0.0,0.0,0.0,0.0,0.0,0.0,0.0,0.0,0.0,0.0,0.0,3.1179,0.0,0.0,0.0,0.0,0.0,0.0,0.0,0.0,3.7778,3.8726,3.9365,3.9698,3.9917,4.0434,4.1193,4.1395,4.1585,4.1774,4.1774,4.1671,4.1429,0.0,4.0233,4.0066,0.0,0.0,0.0,0.0,0.0,3.9017,3.9017,3.971,4.0733,4.1594,4.2556,4.3875,4.6364,4.8686,5.1026,5.3673,5.5605,5.7109,5.813,5.8539,5.8539,5.7945,5.7496,5.694,5.6009,5.4484,5.3345,5.334,5.3378,5.4068,5.6036,5.8492,6.0614,6.1922,6.2781,6.2916,6.1883,6.1916,6.1871,6.1479,6.1973,6.2525,6.2948,6.3179,6.3679,6.4551,6.5994,6.6519,6.5923,6.7321,6.7378,6.5904,6.6096,6.6096,6.5904,6.5904,6.5904,6.5904,6.5904,6.5904,6.5904,6.5904,6.5904,6.5904,6.5904,6.5397,6.4512,6.3641,6.282,6.1979,6.1114,6.0806,6.0806,0.0,0.0,0.0,0.0,0.0,0.0,0.0,0.0,0.0,0.0,0.0,0.0,0.0,0.0,0.0,0.0,0.0,0.0,0.0,0.0,0.0,0.0,0.0,0.0,0.0,0.0,0.0,0.0,0.0,0.0,3.7243,3.7243,3.7657,3.8416,3.8744,3.9071,3.941,3.941,0.0,0.0,0.0,0.0,0.0,0.0,0.0,0.0,0.0,0.0,4.0308,4.0985,4.1846,4.2853,4.4042,4.5212,4.6791,4.9968,5.1899,5.358,5.6385,5.7573,5.8223,5.9022,5.9074,5.8618,5.7423,5.7031,5.6415,5.4646,5.3286,5.2309,5.1894,5.2135,5.3001,5.4879,5.7401,5.9825,6.1826,6.2903,6.3435,6.323,6.3262,6.3121,6.2666,6.3051,6.3468,6.3833,6.4224,6.4647,6.5147,6.6397,6.7071,6.6994,6.7532,6.7378,6.6442,6.6423,6.625,6.5904,6.5904,6.5904,6.5904,6.5904,6.5904,6.5904,6.5904,6.5904,6.5904,6.5904,6.5397,6.4512,6.3641,6.282,6.1979,6.1114,6.0806,6.0845,0.0,0.0,0.0,0.0,0.0,0.0,0.0,0.0,0.0,0.0,0.0,0.0,0.0,0.0,0.0,0.0,0.0,0.0,0.0,0.0,0.0,0.0,0.0,0.0,0.0,3.2421,3.2748,3.2748,3.3448,0.0,0.0,0.0,0.0,0.0,0.0,0.0,0.0,0.0,0.0,0.0,0.0,0.0,0.0,0.0,0.0,0.0,0.0,4.0157,4.1828,4.3388,4.4098,4.4655,4.655,4.8184,5.0163,5.4156,5.54,5.6182,5.9291,5.9543,5.9126,5.9858,5.9494,5.8537,5.6961,5.6595,5.5829,5.3099,5.2468,5.2079,5.0917,5.1356,5.2505,5.4357,5.6074,5.8363,6.1787,6.2364,6.3018,6.4589,6.4109,6.3679,6.3795,6.3795,6.416,6.5051,6.5917,6.6308,6.6077,6.6942,6.784,6.8699,6.7782,6.7269,6.7269,6.7154,6.6692,6.5904,6.5904,6.5904,6.5904,6.5904,6.5904,6.5904,6.5904,6.5904,6.5904,6.5904,6.5455,6.4686,6.3814,6.2974,6.2178,6.1443,6.1108,6.1133,0.0,0.0,0.0,0.0,0.0,0.0,0.0,0.0,0.0,0.0,2.7782,2.7445,0.0,0.0,0.0,0.0,0.0,0.0,0.0,0.0,0.0,0.0,0.0,0.0,3.18,3.1921,3.199,3.199,3.2137,3.2507,0.0,0.0,0.0,0.0,0.0,0.0,0.0,0.0,0.0,0.0,0.0,0.0,0.0,0.0,0.0,0.0,3.8877,4.0045,4.1764,0.0,4.4859,4.6587,4.9596,5.1193,5.2624,5.606,5.7536,5.8557,6.0777,6.0809,6.0294,6.0717,5.916,5.7305,5.6349,5.4757,5.3143,5.1953,5.1363,5.0984,5.0741,5.1356,5.2697,5.5107,5.6934,5.9261,6.2621,6.3705,6.4532,6.5551,6.5532,6.5705,6.6378,6.6436,6.6801,6.768,6.8552,6.8417,6.6981,6.8398,6.9629,7.0437,6.8975,6.816,6.816,6.7455,6.6692,6.5904,6.5904,6.5904,6.5904,6.5904,6.5904,6.5904,6.5904,6.5904,6.5904,6.5904,6.5801,6.559,6.4705,6.3852,6.3094,6.3115,6.267,6.2172,0.0,0.0,0.0,0.0,0.0,0.0,0.0,2.8596,2.8776,2.8946,2.8661,2.8299,2.7902,2.7523,0.0,0.0,0.0,0.0,0.0,0.0,0.0,0.0,0.0,0.0,0.0,3.2179,3.2585,3.2999,0.0,3.2955,3.4076,3.3283,3.3327,3.4121,3.45,3.488,3.5235,0.0,0.0,3.558,3.6521,3.6808,0.0,0.0,0.0,0.0,0.0,3.9966,4.1741,4.3328,4.5309,4.7776,5.1472,5.3515,5.5169,5.8456,5.9375,5.9851,6.2327,6.1787,6.067,6.1431,5.9523,5.7139,5.5865,5.4218,5.2592,5.1338,5.0877,5.0707,5.0707,5.1356,5.2447,5.4126,5.5838,5.7973,6.091,6.2454,6.3782,6.507,6.5994,6.6673,6.7058,6.7513,6.7955,6.8372,6.9206,6.934,6.8494,6.9648,7.011,6.961,6.9667,6.9071,6.7744,6.7763,6.7148,6.5904,6.5904,6.5904,6.5904,6.5904,6.5904,6.591,6.5967,6.5999,6.6011,6.6072,6.6099,6.6021,6.5195,6.4595,6.4184,6.3848,6.3436,6.3219,0.0,0.0,0.0,0.0,0.0,0.0,0.0,2.9365,2.9387,2.9704,2.9765,2.9541,2.8954,2.8083,2.8135,0.0,0.0,0.0,0.0,0.0,0.0,0.0,0.0,0.0,0.0,0.0,0.0,3.3845,3.3214,0.0,0.0,0.0,0.0,0.0,3.4707,3.5052,3.5262,3.616,3.633,0.0,0.0,3.711,0.0,0.0,0.0,0.0,0.0,3.9765,4.1439,4.3192,4.5271,4.7799,5.1751,5.4518,5.684,5.9608,6.0471,6.1021,6.3177,6.241,6.1188,6.1978,5.9717,5.692,5.5619,5.3941,5.2299,5.0976,5.0707,5.0707,5.0707,5.1221,5.1986,5.3024,5.4318,5.6184,5.9088,6.0845,6.2576,6.4628,6.6032,6.7058,6.7596,6.8109,6.8545,6.8911,6.9571,6.9956,6.9956,7.0552,7.0302,6.8968,7.0206,6.9763,6.7398,6.8064,6.7571,6.5904,6.5904,6.591,6.5946,6.5946,6.5956,6.5996,6.6103,6.6133,6.6148,6.6255,6.6291,6.6233,6.5596,6.525,6.5043,6.4577,6.4283,6.4247,0.0,0.0,0.0,0.0,0.0,0.0,0.0,2.9836,3.0207,3.054,3.0584,3.0567,3.0498,2.9187,2.892,0.0,0.0,0.0,0.0,0.0,0.0,0.0,0.0,0.0,0.0,0.0,0.0,3.3007,3.2938,0.0,0.0,0.0,0.0,0.0,0.0,3.4569,3.5207,3.5317,0.0,0.0,0.0,0.0,0.0,0.0,0.0,0.0,0.0,3.9312,4.0501,4.2894,4.438,4.5848,4.9268,5.3096,5.6506,5.7546,6.0112,6.2596,6.2429,6.2474,6.2514,6.2183,5.8965,5.5844,5.569,5.3192,5.088,5.0726,5.0707,5.0707,5.0707,5.0765,5.1323,5.2933,5.3332,5.4857,5.8934,6.0319,6.2133,6.5384,6.5923,6.6917,6.9244,6.8814,6.9026,7.0552,7.0744,7.0783,7.0783,7.086,7.0821,7.0687,7.0821,7.0052,6.8295,6.8353,6.7571,6.5904,6.5904,6.5968,6.6077,6.6077,6.6143,6.6267,6.6283,6.6287,6.6272,6.6287,6.6291,6.6291,6.6213,6.5732,6.521,6.6034,6.5844,6.5299,0.0,0.0,0.0,0.0,0.0,0.0,3.0464,3.04,3.0534,3.1269,3.1188,3.1141,3.1333,3.0429,3.0032,0.0,0.0,0.0,0.0,0.0,0.0,0.0,0.0,0.0,0.0,0.0,3.2835,3.362,3.362,0.0,0.0,0.0,0.0,0.0,0.0,3.5335,3.5235,3.5931,0.0,0.0,0.0,0.0,0.0,0.0,0.0,0.0,0.0,0.0,4.034,4.1767,4.3214,4.4707,4.6498,4.9266,5.254,5.6052,5.8466,6.0386,6.2097,6.2673,6.2689,6.222,5.8863,5.5708,5.5708,5.3112,5.0707,5.0707,5.0707,5.0707,5.0707,5.0707,5.0919,5.1592,5.1707,5.2626,5.5338,5.6876,5.8998,6.2416,6.4185,6.5917,6.7936,6.8763,6.9667,7.0802,7.0898,7.0898,7.0898,7.0898,7.0898,7.0898,7.0898,7.011,6.841,6.8391,6.7609,6.6008,6.6008,6.6093,6.6228,6.6228,6.6247,6.6318,6.6426,6.648,6.6489,6.6561,6.6607,6.6607,6.6607,6.6414,6.6167,6.6571,6.6505,6.6257,0.0,0.0,0.0,0.0,0.0,3.0317,3.1162,3.0825,3.0744,3.1559,3.1532,3.1532,3.1764,3.1343,3.1033,3.1033,0.0,0.0,0.0,0.0,0.0,0.0,0.0,0.0,0.0,0.0,3.3076,3.4103,3.4103,3.4845,0.0,0.0,3.5207,3.5197,0.0,0.0,0.0,0.0,0.0,0.0,0.0,0.0,0.0,0.0,0.0,0.0,0.0,0.0,0.0,0.0,0.0,4.3743,4.4506,4.6048,0.0,5.3505,5.637,5.8379,6.0672,6.1936,6.2378,6.1547,5.8498,5.5651,5.5401,5.2938,5.0707,5.0707,5.0707,5.0707,5.0707,5.0707,5.0707,0.0,0.0,5.1284,5.2972,5.4645,5.6882,6.0031,6.2224,6.4339,6.6538,6.8532,7.0033,7.0841,7.0898,7.0939,7.0979,7.0985,7.0985,7.0985,7.0748,6.9938,6.855,6.8293,6.749,6.6157,6.6157,6.6241,6.6399,6.6399,6.6403,6.6467,6.6607,6.6657,6.6664,6.6759,6.6796,6.6796,6.6796,6.6796,6.6796,6.6796,6.6796,6.6796,0.0,0.0,0.0,0.0,0.0,0.0,3.1257,3.1014,3.0925,3.1266,3.1589,3.18,3.18,3.1783,3.1792,3.1792,0.0,0.0,0.0,0.0,0.0,0.0,0.0,0.0,0.0,0.0,3.2568,3.4103,3.4103,3.4845,3.6284,3.5542,3.5207,3.5173,0.0,0.0,0.0,0.0,0.0,0.0,0.0,0.0,0.0,0.0,0.0,0.0,0.0,0.0,0.0,0.0,0.0,0.0,0.0,0.0,0.0,0.0,5.3882,5.7453,5.7683,5.9888,6.1691,5.9954,5.7607,5.5497,5.4684,5.2534,5.0707,5.0707,5.0707,5.0707,5.0707,5.0707,5.0707,5.0707,5.0707,5.1284,5.2972,5.4645,5.6646,5.9204,6.03,6.2191,6.5577,6.8205,7.0033,7.0841,7.0898,7.0985,7.1198,7.1189,7.1189,7.1189,7.0361,6.958,6.8894,6.8031,6.7177,6.6307,6.6307,6.6409,6.659,6.659,6.6666,6.6795,6.6795,6.6795,6.6795,6.6796,6.6796,6.6796,6.6796,6.6796,6.6796,6.6796,6.6796,6.6796,0.0,0.0,0.0,0.0,0.0,0.0,0.0,3.0524,3.0541,3.1504,3.1334,3.1295,3.1746,3.18,3.18,3.18,0.0,0.0,0.0,0.0,0.0,0.0,0.0,0.0,0.0,0.0,3.2568,3.4103,3.4103,3.4845,3.6284,3.5542,3.4931,3.4431,3.4207,3.4224,0.0,0.0,0.0,0.0,0.0,0.0,3.8715,0.0,0.0,0.0,0.0,0.0,0.0,0.0,0.0,0.0,0.0,0.0,0.0,4.6909,5.0309,5.3677,5.5121,5.7032,5.8344,5.7184,5.5434,5.3914,5.3664,5.2111,5.0707,5.0707,5.0707,5.0707,5.0707,5.0707,5.0707,5.0707,5.0707,5.088,5.1419,5.3919,5.6646,5.9204,6.282,6.5538,6.6615,6.7994,6.9161,7.0014,7.0728,7.1136,7.1189,7.1339,7.1414,7.1414,7.0571,6.9725,6.8902,6.8039,6.7233,6.6518,6.6518,6.66,6.6746,6.6746,6.6759,6.6796,6.6796,6.6796,6.6796,6.6796,6.6796,6.6796,6.6796,6.6796,6.6796,6.6796,6.6796,6.6796,0.0,0.0,0.0,0.0,0.0,0.0,0.0,3.0669,3.0675,3.1351,3.1179,3.1142,3.156,3.1615,3.1662,3.1791,0.0,0.0,0.0,0.0,0.0,0.0,0.0,0.0,0.0,3.18,3.2568,3.4103,3.4103,3.4845,3.6284,3.5542,3.4811,3.4103,3.4103,3.4103,0.0,0.0,0.0,0.0,0.0,0.0,3.8715,0.0,0.0,0.0,0.0,0.0,0.0,0.0,0.0,0.0,0.0,0.0,0.0,0.0,4.8046,5.0702,5.2916,5.4972,5.6305,5.5458,5.4222,5.3101,5.2774,5.1664,5.0707,5.0707,5.0707,5.0707,5.0707,5.0707,5.0707,5.0707,5.0707,5.0803,5.1106,5.3785,5.6901,6.0094,6.4128,6.6769,6.7077,6.8225,6.9321,7.0188,7.0924,7.1334,7.1393,7.1502,7.1465,7.1202,7.0275,6.9552,6.9086,6.7892,6.7091,6.6689,6.6689,6.6716,6.6796,6.6796,6.6796,6.6796,6.6796,6.6796,0.0,6.6796,6.6796,6.6796,6.6796,6.6796,6.6796,6.6796,6.6796,6.6796,0.0,0.0,0.0,0.0,0.0,0.0,0.0,0.0,3.1179,3.0915,3.1113,3.1305,3.1324,3.1334,3.1466,3.1764,0.0,0.0,0.0,0.0,0.0,0.0,0.0,0.0,0.0,3.1852,3.262,3.4103,3.4155,3.4914,3.6284,3.5542,3.4828,3.4172,3.4121,3.4121,0.0,0.0,0.0,0.0,0.0,0.0,0.0,0.0,0.0,0.0,0.0,0.0,0.0,0.0,0.0,0.0,0.0,0.0,0.0,0.0,0.0,0.0,0.0,5.3491,5.517,5.4414,5.3626,5.2813,5.2005,5.1241,0.0,5.0707,5.0707,5.0707,5.0707,5.0707,5.0707,5.0707,5.0707,5.0976,5.1793,5.4357,5.769,6.1787,6.4576,6.6378,6.6962,6.876,7.0208,7.0963,7.1332,7.1547,7.1597,7.1688,7.1406,7.0716,6.9673,6.9183,6.9313,6.7636,6.6796,6.6796,6.6796,6.6796,6.6796,6.6796,6.6796,6.6796,6.6796,6.6796,6.6796,6.6796,6.6796,6.6796,6.6796,6.6796,6.6796,6.6796,6.6796,6.6796,0.0,0.0,0.0,0.0,0.0,0.0,0.0,0.0,0.0,0.0,3.1401,3.1408,3.1653,3.1681,3.1709,0.0,0.0,0.0,0.0,0.0,0.0,0.0,0.0,0.0,0.0,3.2352,3.311,3.4103,3.4673,3.5414,3.6284,3.5542,3.5121,3.4931,3.4345,3.4414,0.0,0.0,0.0,0.0,0.0,0.0,0.0,0.0,0.0,0.0,4.0232,4.1297,0.0,0.0,0.0,0.0,0.0,0.0,0.0,0.0,4.72,4.837,4.9644,0.0,5.1823,5.163,5.1438,5.1226,0.0,5.0842,5.0707,5.0707,5.0707,5.0707,5.0707,5.0707,5.0707,5.0707,5.0707,5.0976,5.1793,5.6915,6.1441,6.3743,6.6859,6.8129,6.6346,6.8432,6.9705,6.9255,7.0732,7.1376,7.074,7.1482,7.1543,7.0737,6.9806,6.9026,6.8415,6.7342,6.6796,6.6796,6.6796,6.6796,6.6796,6.6796,6.6796,6.6796,6.6796,6.6796,6.6796,6.6796,6.6796,6.6796,6.6796,6.6796,6.6796,6.6796,6.6796,6.6796,0.0,0.0,0.0,0.0,0.0,0.0,0.0,0.0,0.0,0.0,0.0,0.0,0.0,0.0,0.0,0.0,0.0,0.0,0.0,0.0,0.0,0.0,0.0,3.2145,3.1809,3.2524,3.3283,3.4103,3.4845,3.5576,3.6284,3.5887,3.5525,3.519,3.4776,3.5018,0.0,0.0,0.0,0.0,3.8407,0.0,0.0,0.0,0.0,0.0,4.0744,4.1709,0.0,4.3368,4.3822,4.4228,0.0,0.0,0.0,0.0,4.7835,4.8894,4.9764,5.0341,5.0707,5.0707,5.0707,5.0707,5.0707,5.0707,5.0707,5.0707,5.0707,5.0707,5.0707,5.0707,5.0707,5.0707,5.0707,5.1399,5.3376,5.7838,6.1973,6.4839,6.7167,6.845,6.8349,6.9737,7.0301,6.9487,7.0918,7.1283,7.0013,7.0875,7.0816,6.9546,6.9059,6.8571,6.8102,6.7244,6.6796,6.6796,6.6796,6.6796,6.6796,6.6796,6.6796,6.6796,6.6796,6.6796,6.6796,6.6796,6.6796,6.6796,6.6796,6.6796,6.6796,6.6796,6.6796,6.6796,0.0,0.0,0.0,0.0,0.0,0.0,0.0,0.0,0.0,0.0,0.0,0.0,0.0,0.0,0.0,0.0,0.0,0.0,0.0,0.0,0.0,0.0,0.0,3.2655,3.1907,3.2771,3.3593,3.4259,3.5018,3.568,3.6301,3.6301,3.5973,3.538,3.538,3.5725,0.0,0.0,0.0,0.0,3.858,0.0,0.0,0.0,0.0,0.0,0.0,0.0,0.0,4.4086,4.439,4.4445,4.4763,0.0,0.0,0.0,0.0,0.0,5.0457,5.0707,5.0707,5.0707,5.0707,5.0707,5.0707,5.0707,5.0707,5.0707,5.0707,5.0707,5.0707,5.0707,5.0707,5.0707,5.1034,5.2496,5.5997,5.855,6.1531,6.5442,6.6846,6.8378,7.0593,7.112,7.1042,7.0459,7.1146,7.0953,6.949,7.0094,6.9761,6.8141,6.8102,6.8043,6.7908,6.7166,6.6796,6.6796,6.6796,6.6796,6.6796,6.6796,6.6796,6.6796,6.6796,6.6796,6.6796,6.6796,6.6796,6.6796,6.6796,6.6796,6.6796,6.6796,6.6796,6.6796,0.0,0.0,0.0,0.0,0.0,0.0,0.0,0.0,0.0,0.0,0.0,0.0,0.0,0.0,0.0,0.0,0.0,0.0,0.0,0.0,0.0,3.3267,3.3352,3.3066,3.2327,3.3981,3.4904,3.5035,3.5766,3.6197,3.6301,3.6301,3.6232,3.6128,3.6128,3.6197,3.6353,0.0,0.0,0.0,3.9215,0.0,0.0,0.0,0.0,0.0,0.0,0.0,0.0,4.4266,4.439,4.4486,4.4971,0.0,0.0,0.0,0.0,0.0,5.0457,5.0707,5.0707,5.0707,5.0707,5.0707,5.0707,5.0707,5.0707,5.0707,5.0707,5.0707,5.0707,5.0707,5.0707,5.0707,5.2515,5.5338,5.944,6.1589,6.3506,6.5647,6.7917,6.9239,6.9109,6.9874,7.0393,7.04,7.0034,6.9685,6.9412,6.9528,6.9137,6.8121,6.8102,6.7752,6.7011,6.6874,6.6796,6.6796,6.6796,6.6796,6.6796,6.6796,6.6796,6.6796,6.6796,6.6796,6.6796,6.6796,6.6796,6.6796,6.6796,6.6796,6.6796,6.6796,6.6796,6.6796,0.0,0.0,0.0,0.0,0.0,0.0,0.0,0.0,0.0,0.0,0.0,0.0,0.0,0.0,0.0,0.0,0.0,0.0,0.0,0.0,0.0,3.3885,3.444,3.4297,3.3335,3.454,3.5207,3.5207,3.5939,3.6301,3.6301,3.6301,3.6301,3.6301,3.6301,3.6419,3.6668,3.7255,3.7927,0.0,0.0,0.0,0.0,0.0,0.0,0.0,0.0,0.0,0.0,0.0,4.4926,4.5332,4.5401,0.0,0.0,0.0,0.0,0.0,5.0592,5.0707,5.0707,5.0707,5.0707,5.0707,5.0707,5.0707,5.0707,5.0707,5.0707,5.0707,5.0707,5.1438,5.2496,5.3881,5.5478,5.7376,5.9762,6.1166,6.2935,6.559,6.6513,6.7816,6.9992,6.9781,6.96,6.9839,6.957,6.8983,6.8046,6.8435,6.8298,6.7439,6.74,6.7205,6.6796,6.6366,6.6366,6.6796,6.6796,6.6796,6.6796,6.6796,6.6796,6.6796,6.6796,6.6796,6.6796,6.6796,6.6796,6.6796,6.6796,6.6796,6.6796,6.6796,6.6796,6.6796,0.0,0.0,0.0,0.0,0.0,0.0,0.0,0.0,0.0,0.0,0.0,0.0,0.0,0.0,0.0,0.0,0.0,0.0,0.0,0.0,3.4003,3.4297,3.5261,3.5311,3.4252,3.5046,3.5466,3.5466,3.6025,3.6301,3.6301,3.6301,3.6301,3.6301,3.6388,3.6607,3.6956,3.7647,3.8516,0.0,0.0,0.0,0.0,0.0,0.0,0.0,0.0,0.0,0.0,0.0,0.0,0.0,0.0,0.0,0.0,4.8606,4.949,5.0707,5.0707,5.0707,5.0707,5.0707,5.0707,5.0745,5.0938,5.0976,5.1034,5.1246,5.113,5.0976,5.0976,5.2202,5.403,5.6593,5.7896,5.9088,6.0492,6.1262,6.2878,6.609,6.5761,6.6825,7.0811,6.9671,6.8863,6.9365,6.9022,6.8299,6.7167,6.7537,6.7498,6.6816,6.6796,6.6718,6.6523,6.5917,6.5995,6.6796,6.6601,6.6621,6.6796,6.6796,6.6796,6.6796,6.6796,6.6699,6.6523,6.6523,6.6406,6.6211,6.6211,6.6347,6.6543,6.6738,6.6796,6.6796,0.0,0.0,0.0,0.0,0.0,0.0,0.0,0.0,0.0,0.0,0.0,0.0,0.0,0.0,0.0,0.0,0.0,0.0,0.0,0.0,3.4621,3.4657,3.5391,3.5436,3.4661,3.5671,3.6215,3.6215,3.6266,3.6301,3.6301,3.6301,3.6301,3.6322,3.6698,3.687,3.6993,3.859,3.9357,3.9672,0.0,0.0,0.0,0.0,0.0,0.0,0.0,0.0,0.0,0.0,0.0,0.0,0.0,0.0,4.9394,4.9317,4.9976,5.0707,5.0707,5.0707,5.0707,5.0707,5.0707,5.0899,5.164,5.1813,5.2043,5.2851,5.237,5.1813,5.1813,5.2563,5.403,5.6593,5.8363,6.055,6.3782,6.4282,6.5301,6.791,6.7626,6.8011,7.0093,6.8897,6.8378,6.9329,6.7909,6.7283,6.7966,6.7303,6.6855,6.6796,6.6796,6.6445,6.5682,6.5624,6.5995,6.6796,6.6034,6.6073,6.6796,6.6796,6.6796,6.6796,6.6796,6.6385,6.5682,6.5682,6.5214,6.4473,6.4473,6.4961,6.578,6.6523,6.6796,6.6796,0.0,0.0,0.0,0.0,0.0,0.0,0.0,0.0,0.0,0.0,0.0,0.0,0.0,0.0,0.0,0.0,0.0,0.0,0.0,3.4623,3.489,3.535,3.5661,3.5778,3.5702,3.6082,3.6301,3.6301,3.6301,3.6301,3.6301,3.6301,3.643,3.6706,3.7351,3.7956,3.8528,3.9666,4.067,4.1562,4.2366,0.0,0.0,0.0,0.0,0.0,0.0,0.0,0.0,0.0,4.6465,4.7839,4.7477,4.8663,5.0091,4.9553,5.0014,5.0707,5.0707,5.0707,5.0707,5.0707,5.0707,5.1053,5.239,5.2717,5.2794,5.3121,5.378,5.426,5.426,5.4972,5.6401,5.894,6.0762,6.2685,6.507,6.5416,6.5998,6.7599,6.7075,6.7362,6.9322,6.8043,6.751,6.8528,6.748,6.6738,6.6541,6.6229,6.58,6.5254,6.5254,6.5098,6.4786,6.4258,6.4414,6.5235,6.4942,6.5235,6.6034,6.5489,6.5254,6.5254,6.5254,6.5079,6.4786,6.4786,6.4591,6.4298,6.4298,6.4825,6.5565,6.5332,6.5586,6.6053,0.0,0.0,0.0,0.0,0.0,0.0,0.0,0.0,0.0,0.0,0.0,0.0,0.0,0.0,0.0,0.0,0.0,0.0,3.4497,3.4618,3.493,3.5436,3.5683,3.5915,3.6142,3.6248,3.6301,3.6301,3.6301,3.6301,3.6301,3.6301,3.6655,3.7316,3.7994,3.8829,3.9848,4.0822,4.181,4.2724,4.2999,4.3465,0.0,0.0,0.0,0.0,0.0,0.0,0.0,0.0,4.7007,4.8523,4.8198,4.9303,5.0572,4.9995,5.0226,5.0707,5.0707,5.0707,5.0707,5.0707,5.0707,5.1284,5.3491,5.3799,5.376,5.4299,5.4895,5.5401,5.5651,5.6189,5.742,5.9973,6.2031,6.3814,6.5282,6.5731,6.6266,6.7276,6.6666,6.6833,6.8558,6.7479,6.6959,6.7632,6.6893,6.617,6.5624,6.5331,6.4922,6.4317,6.4298,6.4161,6.3888,6.3301,6.3301,6.3888,6.3615,6.4082,6.5175,6.4571,6.4298,6.4298,6.4298,6.4142,6.3888,6.3888,6.3732,6.3517,6.3771,6.4258,6.4746,6.4415,6.4688,6.5194,0.0,0.0,0.0,0.0,0.0,0.0,0.0,0.0,0.0,0.0,0.0,0.0,0.0,0.0,0.0,0.0,0.0,0.0,3.4101,3.4472,3.4691,3.4703,3.5396,3.5805,3.5799,3.6131,3.6301,3.6301,3.6301,3.6301,3.6301,3.6301,3.6963,3.8124,3.8542,3.9418,4.0702,4.2045,4.2657,4.278,4.3647,4.4005,4.4005,0.0,0.0,0.0,0.0,0.0,0.0,0.0,4.7696,4.8064,5.0071,5.0688,5.0707,5.0707,5.0707,5.0707,5.0707,5.0707,5.0707,5.0707,5.0707,5.1592,5.4939,5.5074,5.4977,5.6651,5.5689,5.4761,5.5574,5.5728,5.6549,5.9088,6.1641,6.3602,6.4474,6.5346,6.6272,6.7262,6.6752,6.6722,6.7784,6.7223,6.6796,6.6796,6.6034,6.5585,6.5585,6.4766,6.4278,6.4278,6.4278,6.3868,6.3008,6.2989,6.2989,6.2989,6.2109,6.2618,6.4298,6.4278,6.4278,6.4278,6.4278,6.379,6.2989,6.2989,6.248,6.1797,6.2657,6.2989,6.3106,6.3966,6.4278,6.4298,0.0,0.0,0.0,0.0,0.0,0.0,0.0,0.0,0.0,0.0,0.0,0.0,0.0,0.0,0.0,0.0,0.0,0.0,3.4101,3.4213,3.4505,3.5026,3.5259,3.5622,3.6142,3.6248,3.6301,3.6301,3.6301,3.6402,3.6592,3.7106,3.7898,3.8931,4.0119,4.1187,4.2142,4.3114,4.3542,4.3647,4.3904,4.4005,4.4005,0.0,0.0,0.0,0.0,0.0,0.0,0.0,0.0,0.0,4.9591,5.0207,5.0707,5.0707,5.0707,5.0707,5.0707,5.0707,5.0707,5.0707,5.1592,5.2876,5.4491,5.4203,5.4414,5.7319,5.703,5.6516,5.7376,5.7992,5.8627,5.9377,6.1641,6.3649,6.4596,6.5487,6.6245,6.6761,6.6633,6.6665,6.709,6.6413,6.5956,6.5956,6.5176,6.4415,6.3809,6.3535,6.3106,6.248,6.2461,6.2343,6.209,6.209,6.209,6.207,6.1816,6.2285,6.336,6.2755,6.2461,6.2461,6.2461,6.2324,6.209,6.209,6.1934,6.1738,6.1973,6.2461,6.2969,6.2598,6.2852,6.3399,0.0,0.0,0.0,0.0,0.0,0.0,0.0,0.0,0.0,0.0,0.0,0.0,0.0,0.0,0.0,0.0,0.0,0.0,0.0,3.425,3.4602,3.5178,3.535,3.5711,3.629,3.6301,3.6343,3.6454,3.6454,3.67,3.7147,3.7676,3.8703,4.0158,4.1088,4.2129,4.3209,4.3693,4.3945,4.4005,4.4005,4.4005,4.4002,0.0,0.0,0.0,0.0,0.0,0.0,0.0,0.0,0.0,4.9707,5.0284,5.0707,5.0707,5.0707,5.0707,5.0707,5.0707,5.0784,5.1106,5.2202,5.351,5.4703,5.5357,5.6395,5.88,5.8357,5.7877,5.9069,5.9146,5.9242,5.9915,6.1631,6.3105,6.3729,6.4604,6.5281,6.5536,6.5577,6.5639,6.5796,6.5371,6.5077,6.5077,6.4278,6.3556,6.3028,6.2676,6.2246,6.1719,6.1699,6.1699,6.1699,6.1699,6.1699,6.1699,6.1699,6.1973,6.2461,6.1934,6.1699,6.1699,6.1699,6.1699,6.1699,6.1699,6.1699,6.1699,6.1699,6.2012,6.2422,6.1895,6.2031,6.248,0.0,0.0,0.0,0.0,0.0,0.0,0.0,0.0,0.0,0.0,0.0,0.0,0.0,0.0,0.0,0.0,0.0,0.0,0.0,0.0,3.4806,3.5178,3.5611,3.5991,3.629,3.6322,3.6489,3.6806,3.6737,3.7098,3.7875,3.8161,3.9447,4.1559,4.1659,4.2519,4.3905,4.3905,4.3934,4.4005,4.4005,4.4005,4.4025,4.4289,0.0,0.0,0.0,0.0,0.0,0.0,0.0,0.0,5.0149,5.0707,5.0707,5.0707,5.0707,5.0707,5.0707,5.0745,5.0976,5.1717,5.2736,5.401,5.5761,5.7953,5.98,6.0441,5.9473,5.8992,6.0512,5.955,5.9036,6.0566,6.1646,6.2307,6.2345,6.32,6.3868,6.4016,6.403,6.4105,6.4273,6.4239,6.4181,6.4181,6.336,6.2872,6.2872,6.2129,6.1699,6.1699,6.1699,6.1699,6.1699,6.1699,6.1699,6.1699,6.1699,6.1699,6.1699,6.1699,6.1699,6.1699,6.1699,6.1699,6.1699,6.1699,6.1699,6.1699,6.1699,6.1699,6.1699,6.1699,6.1699,6.1699,0.0,0.0,0.0,0.0,0.0,0.0,0.0,0.0,0.0,0.0,0.0,0.0,0.0,0.0,0.0,0.0,0.0,0.0,0.0,0.0,3.4517,3.5166,3.5843,3.6227,3.6301,3.6513,3.6939,3.7558,3.698,3.7268,3.8374,3.9255,4.0462,4.193,4.2762,4.3455,4.3974,4.3974,4.3989,4.4005,4.4005,4.4005,4.4025,4.4289,4.439,0.0,0.0,0.0,0.0,0.0,0.0,0.0,5.0149,5.0707,5.0707,5.0707,5.0707,5.0707,5.0707,5.1164,5.1678,5.1865,5.4068,5.6805,5.9171,6.0133,6.0204,5.9069,5.9608,6.0358,6.0729,6.0517,6.0401,6.0885,6.1703,6.2383,6.2662,6.3423,6.4021,6.4211,6.424,6.4244,6.4297,6.3673,6.3282,6.3282,6.2461,6.1973,6.1973,6.1797,6.1699,6.1699,6.1699,6.1699,6.1699,6.1699,6.1699,6.1699,6.1699,6.1699,6.1699,6.1699,6.1699,6.1699,6.1699,6.1699,6.1699,6.1699,6.1699,6.1699,6.1699,6.1699,6.1699,6.1699,6.1699,6.1699,0.0,0.0,0.0,0.0,0.0,0.0,0.0,0.0,0.0,0.0,0.0,0.0,0.0,0.0,0.0,0.0,0.0,0.0,0.0,0.0,3.4723,3.5453,3.6131,3.6492,3.6492,3.6718,3.7336,3.8325,3.7937,3.846,3.9822,4.0501,4.1515,4.2794,4.3352,4.3755,4.4005,4.4005,4.4005,4.4005,4.4005,4.4005,4.4041,4.445,4.4592,4.4663,4.5206,0.0,0.0,0.0,0.0,0.0,0.0,0.0,5.0707,5.0707,5.0707,5.0707,5.0707,5.1015,5.1625,5.2832,5.5395,5.8074,5.9781,6.0498,6.055,5.9685,6.0185,6.0806,6.0806,6.0806,6.0827,6.089,6.1388,6.1838,6.2,6.2532,6.295,6.3044,6.3067,6.3067,6.3067,6.2637,6.2383,6.2383,6.1953,6.1699,6.1699,6.1699,6.1699,6.1699,6.1699,6.1699,6.1699,6.1699,6.1699,6.1699,6.1699,6.1699,6.1699,6.1699,6.1699,6.1699,6.1699,6.1699,6.1699,6.1699,6.1699,6.1699,6.1699,6.1699,6.1699,6.1699,6.1699,6.1699,0.0,0.0,0.0,0.0,0.0,0.0,0.0,0.0,0.0,0.0,0.0,0.0,0.0,0.0,0.0,0.0,0.0,0.0,0.0,0.0,0.0,3.5783,3.6377,3.6702,3.6702,3.6928,3.7731,3.9111,3.9138,4.0002,4.1617,4.1695,4.2403,4.3595,4.3656,4.3795,4.4005,4.4005,4.4005,4.4005,4.4005,4.4005,4.4056,4.4604,4.4794,4.4861,4.541,4.5594,4.5859,4.7528,0.0,0.0,0.0,0.0,5.0707,5.0707,5.0707,5.0707,5.0707,5.0803,5.1515,5.4068,5.6299,5.8107,5.9069,5.9954,6.0569,6.0569,6.071,6.0806,6.0806,6.0806,6.081,6.0856,6.1064,6.1226,6.1275,6.1532,6.1699,6.1699,6.1699,6.1699,6.1699,6.1699,6.1699,6.1699,6.1699,6.1699,6.1699,6.1699,6.1699,6.1699,6.1699,6.1699,6.1699,6.1699,6.1699,6.1699,6.1699,6.1699,6.1699,6.1699,6.1699,6.1699,6.1699,6.1699,6.1699,6.1699,6.1699,6.1699,6.1699,6.1699,6.1699,6.1699,6.1699,6.1699,0.0,0.0,0.0,0.0,0.0,0.0,0.0,0.0,0.0,0.0,3.4101,0.0,0.0,0.0,0.0,0.0,0.0,0.0,3.4594,0.0,0.0,3.5805,3.6377,3.6702,3.6702,3.7074,3.8131,3.9936,4.0112,4.1261,4.3267,4.2603,4.2764,4.3604,4.3844,4.3974,4.4005,4.4005,4.4005,4.4005,4.4005,4.4005,4.4056,4.4604,4.4794,4.4861,4.541,4.5594,4.5859,4.7528,4.8101,0.0,0.0,0.0,5.0707,5.0707,5.0707,5.0707,5.0707,5.1202,5.2351,5.4895,5.5805,5.6472,5.8083,5.9088,5.9665,5.9665,6.0262,6.0806,6.0806,6.0806,6.0883,6.112,6.1181,6.1294,6.1582,6.1671,6.1699,6.1699,6.1699,6.1699,6.1699,6.1699,6.1699,6.1699,6.1699,6.1699,6.1699,6.1699,6.1699,6.1699,6.1699,6.1699,6.1699,6.1699,6.1699,6.1699,6.1699,6.1699,6.1699,6.1699,6.1699,6.1699,6.1699,6.1699,6.1699,6.1699,6.1699,6.1699,6.1699,6.1699,6.1699,6.1699,6.1699,6.1699,0.0,0.0,0.0,0.0,0.0,0.0,0.0,0.0,0.0,0.0,0.0,3.4101,0.0,0.0,0.0,3.4101,3.4101,3.4345,3.4949,3.5487,3.5948,3.6286,3.6667,3.6926,3.7034,3.7912,3.9058,4.05,4.1183,4.2313,4.3828,4.3466,4.3484,4.3828,4.3958,4.4005,4.4005,4.4005,4.4005,4.4002,4.4166,4.4228,4.4275,4.4818,4.503,4.5074,4.5452,4.5594,4.5782,4.7009,4.7735,4.8312,4.9591,0.0,0.0,0.0,5.0707,5.0707,5.0707,5.1298,5.2178,5.3294,5.4645,5.5901,5.6665,5.7877,5.8833,5.8833,5.9578,6.0345,6.0733,6.0856,6.0944,6.1062,6.1242,6.1414,6.1576,6.164,6.1699,6.1699,6.1699,6.1699,6.1699,6.1699,6.1699,6.1699,6.1699,6.1699,6.1699,6.1699,6.1699,6.1699,6.1699,6.1699,6.1699,6.1699,6.1699,6.1699,6.1699,6.1699,6.1699,6.1699,6.1699,6.1699,6.1699,6.1699,6.1699,6.1699,6.1699,6.1699,6.1699,6.1699,6.1699,6.1699,6.1699,6.1699,0.0,0.0,0.0,0.0,0.0,0.0,0.0,0.0,0.0,0.0,0.0,0.0,0.0,0.0,0.0,0.0,3.425,3.4566,3.5305,3.5783,3.6223,3.6681,3.6938,3.7143,3.7305,3.8546,3.9729,4.0804,4.1869,4.295,4.4005,4.4005,4.4005,4.4005,4.4005,4.4005,4.4005,4.4005,4.4033,4.4113,4.4318,4.4431,4.4553,4.5011,4.5201,4.5232,4.5504,4.5594,4.5725,4.6601,4.7428,4.8255,4.9125,4.9995,0.0,0.0,0.0,5.0707,5.0707,5.1144,5.164,5.1846,5.3505,5.5123,5.5396,5.6788,5.8032,5.8069,5.8842,5.9671,6.0174,6.0703,6.0991,6.082,6.1201,6.1519,6.1541,6.1633,6.1699,6.1699,6.1699,6.1699,6.1699,6.1699,6.1699,6.1699,6.1699,6.1699,6.1699,6.1699,6.1699,6.1699,6.1699,6.1699,6.1699,6.1699,6.1699,6.1699,6.1699,6.1699,6.1699,6.1699,6.1699,6.1699,6.1699,6.1699,6.1699,6.1699,6.1699,6.1699,6.1699,6.1699,6.1699,6.1699,6.1699,6.1699,0.0,0.0,0.0,0.0,0.0,0.0,0.0,0.0,0.0,0.0,0.0,0.0,3.4101,3.4101,3.425,3.4647,3.4667,3.4972,3.5728,3.6325,3.6671,3.6702,3.7083,0.0,3.7297,3.8546,3.9729,4.0804,4.1869,4.295,4.4005,4.4005,4.4005,4.4005,4.4005,4.4005,4.4005,4.4005,4.4151,4.4388,4.4383,4.4553,4.48,4.5091,4.5201,4.5232,4.5504,4.5594,4.5725,4.6601,4.7428,4.8255,4.9125,4.9995,5.0707,0.0,0.0,0.0,5.0707,5.0726,5.0957,5.1717,5.262,5.3585,5.4538,5.6057,5.7295,5.7418,5.8148,5.877,5.8801,6.0116,6.0987,6.0341,6.0955,6.1541,6.1668,6.1697,6.1699,6.1699,6.1699,6.1699,6.1699,6.1699,6.1699,6.1699,6.1699,6.1699,6.1699,6.1699,6.1699,6.1699,6.1699,6.1699,6.1699,6.1699,6.1699,6.1699,6.1699,6.1699,6.1699,6.1699,6.1699,6.1699,6.1699,6.1699,6.1699,6.1699,6.1699,6.1699,6.1699,6.1699,6.1699,6.1699,6.1699,6.1699,0.0,0.0,0.0,0.0,0.0,0.0,0.0,0.0,0.0,0.0,0.0,0.0,0.0,3.4485,3.4643,3.4996,3.5264,3.5566,3.5974,3.644,3.6823,3.7066,3.7211,3.767,3.8492,3.9641,4.0759,4.1824,4.2897,4.363,4.4005,4.4005,4.4005,4.4005,4.4005,4.4005,4.4005,4.4005,4.4158,4.443,4.4585,4.4812,4.5085,4.5352,4.5467,4.5476,4.5568,4.5594,4.5648,4.5956,4.6971,4.8139,4.8471,4.9553,5.0707,5.0707,5.0707,5.0707,5.0707,5.0707,5.0765,5.1048,5.1818,5.2737,5.3668,5.4839,5.5887,5.6453,5.7328,5.7828,5.7263,5.8565,5.9824,6.0154,6.0054,6.0173,6.078,6.0372,6.0021,6.0021,6.0528,6.0861,6.0861,6.1368,6.1699,6.1699,6.1699,6.1699,6.1699,6.1699,6.1699,6.1699,6.1699,6.1699,6.1699,6.1699,6.1699,6.1699,6.1699,6.1699,6.1699,6.1699,6.1699,6.1699,6.1699,6.1699,6.1699,6.1699,6.1699,6.1699,6.1699,6.1699,6.1699,6.1699,6.1699,6.1699,0.0,0.0,0.0,0.0,0.0,0.0,0.0,0.0,0.0,0.0,0.0,0.0,0.0,0.0,3.5043,3.5459,3.5865,3.6184,3.6388,3.6728,3.7025,3.7295,3.7706,3.8321,3.9183,4.0333,4.1423,4.2396,4.3209,4.3745,4.4005,4.4005,4.4005,4.4005,4.4005,4.4005,4.4005,4.4005,4.4218,4.4546,4.4726,4.5019,4.5347,4.5527,4.5594,4.5594,4.5594,4.5782,4.6033,4.6033,4.7144,4.8548,4.8548,4.9529,5.0707,5.0707,5.0707,5.0707,5.0707,5.0707,5.0707,5.0707,5.136,5.2217,5.2887,5.3992,5.5089,5.5699,5.6604,5.7092,5.6507,5.7342,5.8412,5.925,5.9235,5.9299,5.9885,5.9474,5.9103,5.9103,5.9866,6.0295,5.9983,6.1016,6.1582,6.1289,6.1524,6.1699,6.1699,6.1699,6.1699,6.1699,6.1699,6.1699,6.1699,6.1699,6.1699,6.1699,6.1699,6.1699,6.1699,6.1699,6.1699,6.1699,6.1699,6.1699,6.1699,6.1699,6.1699,6.1699,6.1699,6.1699,6.1699,6.1699,6.1699,6.1699,0.0,0.0,0.0,0.0,0.0,0.0,0.0,0.0,0.0,3.4703,0.0,0.0,0.0,0.0,0.0,3.6122,3.6516,3.6821,3.7023,3.7209,3.7324,3.7351,3.8528,3.9227,3.9281,4.0563,4.1622,4.2449,4.2709,4.3225,4.4005,4.4005,4.4005,4.4005,4.4013,4.4002,4.4002,4.4002,4.4322,4.4794,4.48,4.5123,4.5594,4.5633,4.5633,4.5633,4.5671,4.622,4.6947,4.6947,4.8029,4.9394,4.9433,5.0014,5.0707,5.0707,5.0707,5.0707,0.0,0.0,0.0,5.0707,5.1284,5.1948,5.2234,5.3636,5.493,5.5238,5.5999,5.6584,5.6605,5.6605,5.686,5.7641,5.848,5.9025,5.9064,5.9045,5.9025,5.9025,5.9788,5.9983,5.9142,6.0645,6.1309,6.0451,6.1211,6.1699,6.1699,6.1699,6.1699,6.1699,6.1699,6.1699,6.1699,6.1699,6.1699,6.1699,6.1699,6.1699,6.1699,6.1699,6.1699,6.1699,6.1699,6.1699,6.1699,6.1699,6.1699,6.1699,6.1699,6.1699,6.1699,6.1699,6.1699,6.1699,0.0,0.0,0.0,0.0,0.0,0.0,0.0,3.4618,3.4787,0.0,0.0,0.0,3.6338,3.7161,3.7728,3.7884,3.7657,3.7568,3.7785,3.7482,3.7706,3.8636,3.9004,3.9926,4.1484,4.1889,4.2559,4.3558,4.3621,4.3782,4.4005,4.4005,4.4005,4.4013,4.4199,4.4282,4.4282,4.4282,4.4498,4.4812,4.5013,4.5283,4.5667,4.6297,4.6547,4.6624,4.7201,4.7567,4.7774,4.7774,4.8509,4.951,5.0149,5.0515,5.0707,5.0707,5.0707,5.0707,5.0707,0.0,0.0,0.0,0.0,0.0,5.2012,5.3084,5.4189,5.4983,5.5801,5.6439,5.658,5.6605,5.6663,5.6899,5.7132,5.7483,5.8089,5.766,5.7288,5.7288,5.8011,5.8421,5.8187,5.9749,6.0666,6.0412,6.1211,6.1699,6.1699,6.1699,6.1699,6.1699,6.1699,6.1699,6.1699,6.1699,6.1699,6.1699,6.1699,6.1699,6.1699,6.1699,6.1699,6.1699,6.1699,6.1699,6.1699,6.1699,6.1699,6.1699,6.1699,6.1699,6.1699,6.1699,6.1699,6.1699,0.0,0.0,0.0,0.0,0.0,0.0,3.4866,3.5055,3.5241,0.0,0.0,0.0,3.749,3.819,3.8622,3.8711,3.8432,3.8447,3.8852,3.8591,3.8849,3.9837,4.0293,4.1126,4.2378,4.2511,4.3037,4.4005,4.3652,4.367,4.4005,4.4005,4.4064,4.4162,4.4332,4.4459,4.4572,4.4688,4.4825,4.5009,4.5535,4.5893,4.622,4.7081,4.7408,4.7466,4.7928,4.8332,4.8644,4.8644,4.9221,5.0034,5.0534,5.0707,5.0707,5.0707,5.0707,5.0707,0.0,0.0,5.0707,5.0707,0.0,0.0,5.1523,5.2667,5.3805,5.4509,5.5581,5.647,5.6581,5.6605,5.6605,5.6605,5.6605,5.6761,5.7231,5.6899,5.6605,5.6605,5.7309,5.7798,5.7798,5.9378,6.0393,6.0393,6.1211,6.1699,6.1699,6.1699,6.1699,6.1699,6.1699,6.1699,6.1699,6.1699,6.1699,6.1699,6.1699,6.1699,6.1699,6.1699,6.1699,6.1699,6.1699,6.1699,6.1699,6.1699,6.1699,6.1699,6.1699,6.1699,6.1699,6.1699,6.1699,6.1699,0.0,0.0,0.0,3.5201,3.5268,3.5358,3.5376,3.578,3.6071,0.0,3.7058,3.7985,3.8657,3.8851,3.9026,3.9212,3.9205,3.9492,4.0131,4.0125,4.0348,4.0939,4.1895,4.2468,4.2592,4.2809,4.328,4.4005,4.328,4.3314,4.4041,4.4041,4.4196,4.4457,4.4472,4.4624,4.4855,4.5123,4.53,4.5453,4.6223,4.668,4.7005,4.7889,4.8235,4.8255,4.8355,4.8894,4.9529,4.9529,5.0053,5.0707,5.0707,5.0707,5.0707,5.0707,5.0707,0.0,0.0,0.0,0.0,5.0822,5.0919,0.0,5.1078,5.2366,5.3627,5.3883,5.5233,5.6425,5.6528,5.6554,5.6577,5.6577,5.6582,5.6605,5.6605,5.6605,5.6605,5.6605,5.7231,5.766,5.766,5.9143,6.01,6.01,6.1016,6.1602,6.1699,6.1699,6.1699,6.1699,6.1699,6.1699,6.1699,6.1699,6.1699,6.1699,6.1699,6.1699,6.1699,6.1699,6.1699,6.1699,6.1699,6.1699,6.1699,6.1699,6.1699,6.1699,6.1699,6.1699,6.1699,6.1699,6.1699,6.1699,0.0,0.0,0.0,3.5201,3.5743,3.6258,3.6525,3.7188,3.7746,3.8024,3.8768,3.9319,3.9468,4.0463,4.1099,4.1161,4.1097,4.1129,4.1287,4.0889,4.1078,4.2057,4.228,4.2807,4.3674,4.374,4.3838,4.4005,4.3838,4.3957,4.4318,4.4318,4.4478,4.4732,4.4943,4.5074,4.5129,4.541,4.5936,4.6584,4.6757,4.6857,4.7062,4.8567,4.9144,4.924,4.9938,5.0303,5.0457,5.0457,5.0553,5.0707,5.0707,5.0707,5.0707,5.0707,5.0707,5.0707,5.0707,5.1164,5.1678,5.1678,5.2197,0.0,5.1871,5.253,5.3317,5.3474,5.4347,5.5294,5.6058,5.6285,5.6354,5.6354,5.6499,5.6605,5.6605,5.6605,5.6605,5.6605,5.6742,5.6821,5.6821,5.7738,5.8305,5.8305,5.9768,6.0959,6.166,6.1699,6.1699,6.1699,6.1699,6.1699,6.1699,6.1699,6.1699,6.1699,6.1699,6.1699,6.1699,6.1699,6.1699,6.1699,6.1699,6.1699,6.1699,6.1699,6.1699,6.1699,6.1699,6.1699,6.1699,6.1699,6.1699,6.1699,0.0,3.5633,3.5874,3.6276,3.6678,3.7121,3.7672,3.8088,3.8402,3.8583,3.9485,4.028,4.0793,4.1605,4.2108,4.2108,4.2075,4.2157,4.2377,4.2147,4.2361,4.3148,4.3201,4.3442,4.3986,4.4005,4.4005,4.4005,4.4005,4.4071,4.4199,4.4339,4.4539,4.4806,4.508,4.5263,4.541,4.5531,4.6105,4.6947,4.7331,4.7755,4.8298,4.9553,5.0053,5.0111,5.0534,5.0957,5.1298,5.1298,5.1587,5.1952,5.1952,5.1952,5.1952,5.1952,5.1952,5.1952,5.1952,5.2241,5.2544,5.2544,5.287,0.0,0.0,5.2992,5.3455,5.4033,5.4497,5.5068,5.5948,5.6202,5.629,5.629,5.6472,5.6605,5.6605,5.6605,5.6605,5.6605,5.6605,5.6761,5.7153,5.7562,5.8169,5.9026,5.9905,6.0783,6.1641,6.1699,6.1699,6.1699,6.1699,6.1699,6.1699,6.1699,6.1699,6.1699,6.1699,6.1699,6.1699,6.1699,6.1699,6.1699,6.1699,6.1699,6.1699,6.1699,6.1699,6.1699,6.1699,6.1699,6.1699,6.1699,6.1699,6.1699,3.5921,3.624,3.6743,3.7392,3.7726,3.8123,3.8726,3.8933,3.9082,3.9177,4.0092,4.1085,4.1995,4.2424,4.2621,4.2621,4.2735,4.2959,4.3326,4.3352,4.3559,4.3971,4.4005,4.4005,4.4005,4.4005,4.4005,4.4005,4.4005,4.4048,4.4158,4.4374,4.465,4.4948,4.5185,4.5496,4.584,4.584,4.6432,4.7447,4.8279,4.8913,4.949,5.0361,5.0803,5.0957,5.1111,5.1606,5.2159,5.2159,5.262,5.3197,5.3197,5.3197,5.3197,5.3197,5.3197,5.3197,5.3197,5.3313,5.3453,5.3453,5.3568,5.3666,0.0,0.0,0.0,5.466,5.4828,5.5068,5.5879,5.6152,5.6205,5.6066,5.6345,5.6546,5.6372,5.6488,5.6605,5.6605,5.6605,5.686,5.7504,5.7562,5.8285,6.0022,6.0159,6.0607,6.1641,6.1699,6.1699,6.1699,6.1699,6.1699,6.1699,6.1699,6.1699,6.1699,6.1699,6.1699,6.1699,6.1699,6.1699,6.1699,6.1699,6.1699,6.1699,6.1699,6.1699,6.1699,6.1699,6.1699,6.1699,6.1699,6.1699,6.1699,3.6386,3.6859,3.7381,3.7467,3.8588,3.9474,3.9572,4.0175,4.0805,4.1282,4.1472,4.1789,4.2384,4.2848,4.3122,4.3122,4.3559,4.3841,4.3908,4.3908,4.3931,4.3997,4.4005,4.4005,4.4005,4.4005,4.4005,4.4005,4.4005,4.4236,4.4701,4.4732,4.5011,4.5508,4.5531,4.5991,4.6755,4.6755,4.7663,4.9183,5.0053,4.9995,4.949,5.0361,5.1144,5.187,5.264,5.2967,5.3044,5.3044,5.3121,5.3197,5.3197,5.3197,5.3197,5.3197,5.3197,5.3197,5.3197,5.376,5.4357,5.4357,5.4895,5.5233,5.4522,0.0,5.4403,5.452,0.0,5.4799,5.5608,0.0,0.0,5.5177,5.5939,5.6333,5.5553,5.6118,5.6605,5.6605,5.6605,5.6644,5.6722,5.6742,5.7425,5.9123,5.9259,5.9962,6.1602,6.1699,6.1699,6.1699,6.1699,6.1699,6.1699,6.1699,6.1699,6.1699,6.1699,6.1699,6.1699,6.1699,6.1699,6.1699,6.1699,6.1699,6.1699,6.1699,6.1699,6.1699,6.1699,6.1699,6.1699,6.1699,6.1699,6.1699,3.7709,3.7916,3.8261,3.8709,3.9284,3.9865,4.0331,4.0874,4.1468,4.2084,4.2364,4.2658,4.3041,4.3872,4.4276,4.392,4.4524,4.4733,4.4254,4.4236,4.4166,4.4013,4.4005,4.4005,4.4005,4.4005,4.4079,4.4236,4.4236,4.443,4.4794,4.4967,4.514,4.5405,4.6055,4.6567,4.6928,4.7408,4.8298,4.9471,5.0341,5.0765,5.0947,5.1818,5.2356,5.2697,5.3063,5.353,5.3953,5.3953,5.426,5.4645,5.4645,5.4645,5.4645,5.4645,5.4645,5.4645,5.4645,5.4914,5.5208,5.5208,5.5458,5.5612,5.5266,5.4838,5.4626,5.5112,0.0,0.0,0.0,0.0,0.0,0.0,5.5943,5.6206,5.5925,5.6204,5.6472,5.6582,5.6605,5.6605,5.6605,5.6605,5.7093,5.8265,5.8811,5.963,6.0881,6.1426,6.1699,6.1699,6.1699,6.1699,6.1699,6.1699,6.1699,6.1699,6.1699,6.1699,6.1699,6.1699,6.1699,6.1699,6.1699,6.1699,6.1699,6.1699,6.1699,6.1699,6.1699,6.1699,6.1699,6.1699,6.1699,6.1699,3.9192,3.9054,3.9071,3.9612,3.9968,4.0434,4.1145,4.1501,4.2019,4.2878,4.3249,4.366,4.426,4.5164,4.5566,4.512,4.5688,4.5819,4.5223,4.5141,4.5028,4.4916,4.483,4.4729,4.4576,4.4576,4.4554,4.4506,4.4506,4.465,4.4908,4.5102,4.5371,4.57,4.6541,4.7158,4.7639,4.8471,4.9317,5.0183,5.1284,5.2222,5.2986,5.339,5.3568,5.3587,5.3818,5.4299,5.4818,5.4818,5.5228,5.5708,5.5708,5.5708,5.5708,5.5708,5.5708,5.5708,5.5708,5.5708,5.5708,5.5708,5.5708,5.5708,5.5708,5.5439,5.5285,5.5631,5.5439,0.0,0.0,0.0,5.5829,5.5617,0.0,5.6054,5.5925,5.6136,5.6361,5.658,5.6605,5.6605,5.6605,5.6605,5.6938,5.7739,5.8382,5.9123,6.0002,6.086,6.1348,6.1348,6.1582,6.1699,6.1699,6.1699,6.1699,6.1699,6.1699,6.1699,6.1699,6.1699,6.1699,6.1699,6.1699,6.1699,6.1699,6.1699,6.1699,6.1699,6.1699,6.1699,6.1699,6.1699,6.1699,6.1699,4.0676,4.021,3.9664,3.9698,4.0675,4.1591,4.2084,4.2167,4.2671,4.4061,4.4245,4.4811,4.6242,4.6658,4.6843,4.682,4.7088,4.7239,4.722,4.696,4.6937,4.7176,4.6958,4.6565,4.6038,4.6026,4.5628,4.4782,4.4782,4.4914,4.5191,4.5201,0.0,0.0,4.6885,4.7793,4.9375,5.0245,5.1087,5.1967,5.3683,5.4857,5.5497,5.4741,5.4453,5.4549,5.5343,5.5651,5.567,5.567,5.5689,5.5708,5.5708,5.5708,5.5708,5.5708,5.5708,5.5708,5.5708,5.5708,5.5708,5.5708,5.5708,5.5708,5.5708,5.6324,5.6689,5.5862,5.6343,5.667,5.5843,5.5803,5.5655,0.0,5.5493,0.0,0.0,5.5738,5.6361,5.658,5.6605,5.6605,5.6605,5.6605,5.6938,5.7739,5.7837,5.8226,5.9103,5.9963,6.0432,6.0432,6.125,6.1699,6.1699,6.1699,6.1699,6.1699,6.1699,6.1699,6.1699,6.1699,6.1699,6.1699,6.1699,6.1699,6.1699,6.1699,6.1699,6.1699,6.1699,6.1699,6.1699,6.1699,6.1699,6.1699,4.1645,4.1534,4.1261,4.096,4.1483,4.2146,4.2656,4.3216,4.406,4.5386,4.6091,4.6956,4.8226,4.8951,4.929,4.915,4.9193,4.8993,4.8452,4.7805,4.7396,4.729,4.7212,4.7085,4.6904,4.6885,4.6845,4.6714,4.6714,4.6849,4.7122,4.7122,0.0,0.0,4.8298,4.8875,4.949,5.0894,5.1659,5.2038,5.3799,5.4972,5.567,5.5401,5.5285,5.5324,5.5593,5.5708,5.5708,5.5708,5.5708,5.5708,5.5708,5.5708,5.5708,5.5708,5.5708,5.5708,5.5708,5.6112,5.6555,5.6555,5.6555,5.6555,5.6555,5.6786,5.6747,5.5882,5.6382,5.6728,5.5862,5.5747,5.5677,0.0,0.0,5.577,0.0,5.6,5.6361,5.658,5.6605,5.6605,5.6605,5.6605,5.6702,5.6996,5.7504,5.7933,5.8226,5.9065,5.9807,6.0373,6.0686,6.1114,6.1699,6.1699,6.1699,6.1699,6.1699,6.1699,6.1699,6.1699,6.1699,6.1699,6.1699,6.1699,6.1699,6.1699,6.1699,6.1699,6.1699,6.1699,6.1699,6.1699,6.1699,6.1699,4.2136,4.232,4.23,4.1867,4.2435,4.3101,4.3606,4.4656,4.5818,4.697,4.7993,4.903,5.0084,5.0889,5.1337,5.1206,5.1235,5.0916,5.0079,4.9422,4.8896,4.852,4.8381,4.8242,4.805,4.805,4.7985,4.7846,4.7846,4.7937,4.8101,4.8101,0.0,0.0,4.9144,4.9721,5.0375,5.1774,5.2544,5.2947,5.4357,5.5247,5.5708,5.5708,5.5708,5.5708,5.5708,5.5708,5.5708,5.5708,5.5708,5.5708,5.5708,5.5708,5.5708,5.5708,5.5708,5.5766,5.6074,5.6574,5.7074,5.7382,5.7459,5.7459,5.7459,5.769,5.7651,5.6799,5.7305,5.7536,5.6382,5.6151,5.6055,0.0,0.0,0.0,0.0,5.6087,5.6294,5.6472,5.6555,5.6605,5.6605,5.6605,5.6605,5.6605,5.7074,5.7367,5.7367,5.8187,5.9046,5.9905,6.0237,6.0822,6.1699,6.1699,6.1699,6.1699,6.1699,6.1699,6.1699,6.1699,6.1699,6.1699,6.1699,6.1699,6.1699,6.1699,6.1699,6.1699,6.1699,6.1699,6.1699,6.1699,6.1699,6.1699,4.2313,4.2734,4.2935,4.2562,4.3508,4.4474,4.4888,4.64,4.7836,4.8767,4.9938,5.1043,5.1931,5.2601,5.2988,5.3,5.3163,5.2909,5.2077,5.1751,5.1365,5.0856,5.0481,5.0082,4.9601,4.951,4.9086,4.8293,4.8255,4.8235,4.8235,4.8235,0.0,4.9471,4.951,5.0414,5.1962,5.287,5.378,5.4626,5.5401,5.5708,5.5708,5.5708,5.5728,5.5766,5.5728,5.5708,5.5708,5.5708,5.5708,5.5708,5.5708,5.5728,5.5766,5.5766,5.5785,5.6016,5.6843,5.7093,5.7324,5.8146,5.8352,5.8352,5.8352,5.8954,5.9281,5.8467,5.8929,5.8992,5.7305,5.7003,5.6709,0.0,0.0,0.0,5.5885,5.602,5.6146,5.6279,5.6475,5.6605,5.6605,5.6605,5.6605,5.6605,5.6605,5.6605,5.6605,5.7328,5.8168,5.9064,5.9905,6.0764,6.1699,6.1699,6.1699,6.1699,6.1699,6.1699,6.1699,6.1699,6.1699,6.1699,6.1699,6.1699,6.1699,6.1699,6.1699,6.1699,6.1699,6.1699,6.1699,6.1699,6.1699,6.1699,4.3879,4.4766,4.5313,4.5223,4.492,4.4935,4.5747,4.7531,4.9118,5.0022,5.2226,5.409,5.5175,5.5446,5.5644,5.5903,5.4849,5.4068,5.3857,5.317,5.2703,5.2563,5.1858,5.1699,5.2217,5.0996,5.0548,5.0928,5.0337,5.0034,5.0034,5.0034,5.0149,5.0399,5.0991,5.1505,5.2,5.353,5.4645,5.542,5.5612,5.5708,5.5708,5.5708,5.6093,5.6574,5.5939,5.5708,5.5708,5.5708,5.5708,5.5708,5.5708,5.6132,5.667,5.667,5.7132,5.7684,5.7915,5.8396,5.8915,5.9146,5.9184,5.9184,5.9184,5.9358,5.9281,5.8467,5.8929,5.8992,5.7305,5.7003,5.6709,5.5843,5.5708,5.5743,5.5885,5.602,5.6146,5.6279,5.6475,5.6605,5.6605,5.6605,5.6605,5.6605,5.6605,5.6605,5.6605,5.68,5.7581,5.9045,5.9318,6.0157,6.1699,6.1699,6.1699,6.1699,6.1699,6.1699,6.1699,6.1699,6.1699,6.1699,6.1699,6.1699,6.1699,6.1699,6.1699,6.1699,6.1699,6.1699,6.1699,6.1699,6.1699,6.1699,4.5086,4.5679,4.6192,4.6605,4.694,4.7364,4.7992,4.8965,5.0141,5.1515,5.3513,5.5042,5.5692,5.6671,5.7362,5.7538,5.6362,5.5439,5.5054,5.4241,5.3606,5.3217,5.2736,5.2697,5.3197,5.1895,5.1447,5.1904,5.1087,5.0707,5.0707,5.0707,5.0707,5.0745,5.1543,5.2115,5.2582,5.4299,5.5285,5.5708,5.5708,5.5708,0.0,5.6112,5.6343,5.6478,5.6742,5.6593,5.6209,5.5824,5.5958,5.6266,5.6266,5.6863,5.7574,5.7574,5.7915,5.8377,5.8723,5.9165,5.9588,5.9973,6.0069,6.0069,6.0069,6.0069,5.9935,5.9492,5.9742,5.9665,5.8344,5.8094,5.769,5.6478,5.5958,5.5731,5.5808,5.593,5.6057,5.6208,5.6367,5.6502,5.6583,5.6605,5.6605,5.6605,5.6605,5.6605,5.6605,5.6938,5.7738,5.9064,5.9474,6.0314,6.1699,6.1699,6.1699,6.1699,6.1699,6.1699,6.1699,6.1699,6.1699,6.1699,6.1699,6.1699,6.1699,6.1699,6.1699,6.1699,6.1699,6.1699,6.1699,6.1699,6.1699,6.1699,4.6048,4.6159,4.6516,4.7353,4.9103,5.0551,5.1005,5.0987,5.1553,5.3333,5.4632,5.5423,5.5423,5.7245,5.8467,5.8467,5.7555,5.667,5.592,5.5112,5.4318,5.3568,5.3433,5.3414,5.353,5.2563,5.2077,5.2077,5.126,5.0803,5.0707,5.0707,5.0707,5.0745,5.1659,5.2601,5.3626,5.5088,5.5708,5.5708,5.5824,5.5862,5.5978,5.6843,5.6766,5.6376,5.78,5.7742,5.6901,5.6266,5.6536,5.717,5.717,5.7761,5.8467,5.8467,5.8544,5.8781,5.9473,5.9665,5.9858,6.0614,6.0806,6.0806,6.0806,6.0806,6.0806,6.0806,6.0806,6.0531,5.9665,5.9415,5.8869,5.7425,5.6557,5.6057,5.6081,5.6197,5.6277,5.6278,5.6398,0.0,5.6553,5.6582,5.6605,5.6605,5.6605,5.6605,5.6605,5.7367,5.8207,5.9064,5.9944,6.0822,6.1699,6.1699,6.1699,6.1699,6.1699,6.1699,6.1699,6.1699,6.1699,6.1699,6.1699,6.1699,6.1699,6.1699,6.1699,6.1699,6.1699,6.1699,6.1699,6.1699,6.1699,6.1699,4.6902,4.7592,4.8154,4.8475,5.015,5.2043,5.3857,5.4783,5.5462,5.5927,5.7558,5.8677,5.8677,5.9042,5.93,5.93,5.7882,5.6945,5.6786,5.5978,5.542,5.5261,5.4626,5.4587,5.5241,5.376,5.2967,5.2967,5.2101,5.1356,5.0707,5.0707,5.0707,5.0765,5.2299,5.3818,5.528,5.5574,5.5708,5.5766,5.6478,5.6766,5.6863,5.7742,5.8396,5.88,5.8429,5.7742,5.7093,5.7646,5.7953,5.8069,5.8069,5.8627,5.93,5.93,5.98,6.0396,6.0531,6.0575,6.0614,6.0768,6.0806,6.0806,6.0806,6.0806,6.0806,6.0806,6.0806,6.0531,5.9665,5.8954,5.8443,5.8269,5.8024,5.7919,5.8134,5.8185,5.7954,5.725,5.7394,5.7223,5.6435,5.6502,5.6605,5.6605,5.6605,5.6605,5.6605,5.7367,5.8207,5.9064,5.9944,6.0822,6.1699,6.1699,6.1699,6.1699,6.1699,6.1699,6.1699,6.1699,6.1699,6.1699,6.1699,6.1699,6.1699,6.1699,6.1699,6.1699,6.1699,6.1699,6.1699,6.1699,6.1699,6.1699,4.7729,4.8292,4.9034,5.0064,5.2035,5.4126,5.6101,5.7704,5.8323,5.7341,5.8042,5.8609,5.8609,5.9544,6.0165,6.0165,5.9017,5.8305,5.8305,5.7093,5.6362,5.6362,5.5574,5.5304,5.5689,5.4491,5.3876,5.3876,5.3005,5.214,5.1318,5.1318,5.1106,5.0765,5.2452,5.4126,5.5708,5.5708,5.5708,5.5747,5.6151,5.6593,5.7099,5.7973,5.8544,5.8929,5.9415,5.9031,5.8305,5.83,5.8583,5.8915,5.8915,5.9492,6.0165,6.0165,6.0473,6.0806,6.0806,6.0806,6.0806,6.0806,6.0806,6.0806,6.0806,6.0806,6.0806,6.0806,6.0806,6.0671,6.0242,5.9492,5.8935,5.9014,5.8673,5.8442,5.8572,5.8662,5.8402,5.7595,5.7628,5.7363,5.6545,5.6533,5.6605,5.6605,5.6605,5.6605,5.6605,5.7797,5.8674,5.9084,6.0372,6.127,6.1699,6.1699,6.1699,6.1699,6.1699,6.1699,6.1699,6.1699,6.1699,6.1699,6.1699,6.1699,6.1699,6.1699,6.1699,6.1699,6.1699,6.1699,6.1699,6.1699,6.1699,6.1699,4.8984,4.9324,5.0131,5.1948,5.4139,5.6141,5.7589,5.951,6.0222,5.8643,5.8445,5.8445,5.8445,5.9853,6.0806,6.0806,5.9992,5.9492,5.9492,5.794,5.7003,5.7003,5.617,5.5708,5.5708,5.5068,5.4664,5.4491,5.3818,5.2947,5.1904,5.2096,5.1933,5.1573,5.2895,5.4299,5.5708,5.5901,5.5978,5.6016,5.6362,5.692,5.7632,5.8492,5.8833,5.8992,6.0325,6.0358,5.9685,5.905,5.9261,5.9781,5.9781,6.0242,6.0806,6.0806,6.0806,6.0806,6.0806,6.0806,6.0806,6.0806,6.0806,6.0806,6.0806,6.0806,6.0806,6.0806,6.0806,6.0806,6.0806,6.0242,5.9798,5.981,5.9359,5.9025,5.9126,5.9186,5.8955,5.8247,5.8002,5.7622,5.6878,5.6677,5.6605,5.6605,5.6605,5.6605,5.6605,5.8186,5.9103,5.9103,6.0782,6.1699,6.1699,6.1699,6.1699,6.1699,6.1699,6.1699,6.1699,6.1699,6.1699,6.1699,6.1699,6.1699,6.1699,6.1699,6.1699,6.1699,6.1699,6.1699,6.1699,6.1699,6.1699,6.1699,5.1206,5.1646,5.2277,5.4091,5.6107,5.7529,5.7761,5.951,6.0737,6.0546,6.0527,6.0527,6.0527,6.0698,6.0806,6.0806,5.9992,5.9492,5.9492,5.794,5.7003,5.7003,5.617,5.5708,5.5708,5.5631,5.5228,5.4491,5.4414,5.353,5.1923,5.2717,5.3453,5.4145,5.4299,5.4876,5.5747,5.6536,5.6887,5.7016,5.8531,5.9184,5.9358,6.0223,6.0575,6.0589,6.0748,6.0748,6.0671,6.0589,6.0614,6.0691,6.0691,6.0729,6.0806,6.0806,6.0806,6.0806,6.0806,6.0806,6.0806,6.0806,6.0806,6.0806,6.0806,6.0806,6.0806,6.0806,6.0806,6.0806,6.0806,6.0729,6.0721,6.0843,6.0692,6.0727,6.1165,6.1068,6.0699,6.0044,5.9377,5.8571,5.7595,5.6967,5.6605,5.6605,5.6605,5.6605,5.6605,5.8186,5.9103,5.9103,6.0782,6.1699,6.1699,6.1699,6.1699,6.1699,6.1699,6.1699,6.1699,6.1699,6.1699,6.1699,6.1699,6.1699,6.1699,6.1699,6.1699,6.1699,6.1699,6.1699,6.1699,6.1699,6.1699,6.1699,5.336,5.3688,5.4431,5.62,5.7366,5.8417,5.9439,6.0286,6.0806,6.0806,6.0806,6.0806,6.0806,6.0806,6.0806,6.0806,6.0473,6.0281,6.0281,5.9165,5.8492,5.8492,5.7209,5.6478,5.6478,5.5978,5.5535,5.5228,5.5228,5.4626,5.3472,5.3818,5.4164,5.4491,5.4491,5.4953,5.5766,5.6632,5.7003,5.7099,5.83,5.9069,5.955,5.9896,6.0339,6.0806,6.0806,6.0806,6.0806,6.0806,6.0806,6.0806,6.0806,6.0806,6.0806,6.0806,6.0806,6.0806,6.0806,6.0806,6.0806,6.0806,6.0806,6.0806,6.0806,6.0806,6.0806,6.0806,6.0806,6.0806,6.0806,6.0806,6.0816,6.0872,6.0906,6.0983,6.1167,6.1302,6.1092,6.0297,6.0004,5.9526,5.8585,5.8252,5.8108,5.8108,5.7171,5.6605,5.6605,5.8186,5.9103,5.9103,6.0782,6.1699,6.1699,6.1699,6.1699,6.1699,6.1699,6.1699,6.1699,6.1699,6.1699,6.1699,6.1699,6.1699,6.1699,6.1699,6.1699,6.1699,6.1699,6.1699,6.1699,6.1699,6.1699,6.1699,5.5541,5.5878,5.6582,5.8298,5.885,5.9435,6.0614,6.0806,6.0806,6.0806,6.0806,6.0806,6.0806,6.0806,6.0806,6.0806,6.0806,6.0806,6.0806,5.9973,5.9492,5.9492,5.7882,5.7003,5.7003,5.6151,5.5708,5.5708,5.5708,5.5285,5.4491,5.4491,5.4626,5.4857,5.5131,5.5555,5.6151,5.7267,5.7747,5.7805,5.8684,5.9377,5.9877,5.9877,6.0262,6.0806,6.0806,6.0806,6.0806,6.0806,6.0806,6.0806,6.0806,6.0806,6.0806,6.0806,6.0806,6.0806,6.0806,6.0806,6.0806,6.0806,6.0806,6.0806,6.0806,6.0806,6.0806,6.0806,6.0806,6.0806,6.0806,6.0806,6.0806,6.0806,6.0883,6.0949,6.0988,6.1241,6.1203,6.0646,6.0472,6.0159,5.9533,5.9259,5.9103,5.9103,5.7991,5.7347,5.7347,5.8693,5.9474,5.9474,6.0919,6.1699,6.1699,6.1699,6.1699,6.1699,6.1699,6.1699,6.1699,6.1699,6.1699,6.1699,6.1699,6.1699,6.1699,6.1699,6.1699,6.1699,6.1699,6.1699,6.1699,6.1699,6.1699,6.1699,5.775,5.8216,5.8794,6.0473,6.0762,6.0787,6.0806,6.0806,6.0806,6.0806,6.0806,6.0806,6.0806,6.0806,6.0806,6.0806,6.0806,6.0806,6.0806,5.9973,5.9492,5.9492,5.7882,5.7003,5.7003,5.6151,5.5708,5.5708,5.5708,5.5285,5.4491,5.4491,5.4914,5.5728,5.6593,5.6983,5.7093,5.8761,5.9473,5.955,6.0416,6.0787,6.0787,6.0787,6.0787,6.0806,6.0806,6.0806,6.0806,6.0806,6.0806,6.0806,6.0806,6.0806,6.0806,6.0806,6.0806,6.0806,6.0806,6.0806,6.0806,6.0806,6.0806,6.0806,6.0806,6.0806,6.0806,6.0806,6.0806,6.0806,6.0806,6.0806,6.0806,6.0806,6.0806,6.0853,6.0969,6.1128,6.1263,6.1459,6.0844,6.0393,6.0393,5.9611,5.9103,5.9103,5.9084,5.9064,5.9064,5.9905,6.0373,6.0373,6.1231,6.1699,6.1699,6.1699,6.1699,6.1699,6.1699,6.1699,6.1699,6.1699,6.1699,6.1699,6.1699,6.1699,6.1699,6.1699,6.1699,6.1699,6.1699,6.1699,6.1699,6.1699,6.1699,6.1699,5.9842,5.9981,6.0165,6.0704,6.0806,6.0806,6.0806,6.0806,6.0806,6.0806,6.0806,6.0806,6.0806,6.0806,6.0806,6.0806,6.0806,6.0806,6.0806,6.0531,6.0396,6.0396,5.93,5.8704,5.8704,5.7305,5.6593,5.6593,5.5997,5.5574,5.5324,5.5939,5.6343,5.6613,5.7497,5.7896,5.7953,5.905,5.9492,5.9588,6.0454,6.0806,6.0806,6.0806,6.0806,6.0806,6.0806,6.0806,6.0806,6.0806,6.0806,6.0806,6.0806,6.0806,6.0806,6.0806,6.0806,6.0806,6.0806,6.0806,6.0806,6.0806,6.0806,6.0806,6.0806,6.0806,6.0806,6.0806,6.0806,6.0806,6.0806,6.0806,6.0806,6.0806,6.0806,6.081,6.0869,6.0988,6.112,6.1279,6.1203,6.1185,6.1286,6.1036,6.088,6.088,6.088,6.0353,5.9162,5.9924,6.0393,6.0393,6.125,6.1699,6.1699,6.1699,6.1699,6.1699,6.1699,6.1699,6.1699,6.1699,6.1699,6.1699,6.1699,6.1699,6.1699,6.1699,6.1699,6.1699,6.1699,6.1699,6.1699,6.1699,6.1699,6.1699,6.0806,6.0806,6.0806,6.0806,6.0806,6.0806,6.0806,6.0806,6.0806,6.0806,6.0806,6.0806,6.0806,6.0806,6.0806,6.0806,6.0806,6.0806,6.0806,6.0806,6.0806,6.0806,5.9973,5.9492,5.9492,5.7863,5.7003,5.7003,5.6439,5.6362,5.6684,5.7228,5.7497,5.7536,5.8377,5.8756,5.8819,5.9646,5.9992,6.0031,6.0569,6.0806,6.0806,6.0806,6.0806,6.0806,6.0806,6.0806,6.0806,6.0806,6.0806,6.0806,6.0806,6.0806,6.0806,6.0806,6.0806,6.0806,6.0806,6.0806,6.0806,6.0806,6.0806,6.0806,6.0806,6.0806,6.0806,6.0806,6.0806,6.0806,6.0806,6.0806,6.0806,6.0806,6.0806,6.0806,6.0806,6.0959,6.1112,6.1199,6.1422,6.1618,6.1696,6.1699,6.1699,6.1699,6.1699,6.1211,6.0138,6.0587,6.0881,6.0881,6.1426,6.1699,6.1699,6.1699,6.1699,6.1699,6.1699,6.1699,6.1699,6.1699,6.1699,6.1699,6.1699,6.1699,6.1699,6.1699,6.1699,6.1699,6.1699,6.1699,6.1699,6.1699,6.1699,6.1699,6.0806,6.0806,6.0806,6.0806,6.0806,6.0806,6.0806,6.0806,6.0806,6.0806,6.0806,6.0806,6.0806,6.0806,6.0806,6.0806,6.0806,6.0806,6.0806,6.0806,6.0806,6.0806,6.0012,5.9588,5.9588,5.7998,5.7151,5.7093,5.7093,5.7517,5.8294,5.8352,5.8377,5.8409,5.9223,5.9588,5.9646,6.0454,6.0806,6.0806,6.0806,6.0806,6.0806,6.0806,6.0806,6.0806,6.0806,6.0806,6.0806,6.0806,6.0806,6.0806,6.0806,6.0806,6.0806,6.0806,6.0806,6.0806,6.0806,6.0806,6.0806,6.0806,6.0806,6.0806,6.0806,6.0806,6.0806,6.0806,6.0806,6.0806,6.0806,6.0806,6.0806,6.0806,6.0806,6.0806,6.0806,6.1006,6.1184,6.1206,6.1485,6.1671,6.1698,6.1699,6.1699,6.1699,6.1699,6.1699,6.1699,6.1699,6.1699,6.1699,6.1699,6.1699,6.1699,6.1699,6.1699,6.1699,6.1699,6.1699,6.1699,6.1699,6.1699,6.1699,6.1699,6.1699,6.1699,6.1699,6.1699,6.1699,6.1699,6.1699,6.1699,6.1699,6.1699,6.1699,6.0806,6.0806,6.0806,6.0806,6.0806,6.0806,6.0806,6.0806,6.0806,6.0806,6.0806,6.0806,6.0806,6.0806,6.0806,6.0806,6.0806,6.0806,6.0806,6.0806,6.0806,6.0806,6.0589,6.0492,6.0492,5.9454,5.8607,5.7992,5.7992,5.8107,5.8313,5.8934,5.9223,5.9261,6.0108,6.0492,6.0517,6.0704,6.0806,6.0806,6.0806,6.0806,6.0806,6.0806,6.0806,6.0806,6.0806,6.0806,6.0806,6.0806,6.0806,6.0806,6.0806,6.0806,6.0806,6.0806,6.0806,6.0806,6.0806,6.0806,6.0806,6.0806,6.0806,6.0806,6.0806,6.0806,6.0806,6.0806,6.0806,6.0806,6.0806,6.0806,6.0806,6.0806,6.0806,6.0806,6.0806,6.0845,6.0959,6.1181,6.1269,6.1413,6.1671,6.1699,6.1699,6.1699,6.1699,6.1699,6.1699,6.1699,6.1699,6.1699,6.1699,6.1699,6.1699,6.1699,6.1699,6.1699,6.1699,6.1699,6.1699,6.1699,6.1699,6.1699,6.1699,6.1699,6.1699,6.1699,6.1699,6.1699,6.1699,6.1699,6.1699,6.1699,6.1699,6.1699,6.0806,6.0806,6.0806,6.0806,6.0806,6.0806,6.0806,6.0806,6.0806,6.0806,6.0806,6.0806,6.0806,6.0806,6.0806,6.0806,6.0806,6.0806,6.0806,6.0806,6.0806,6.0806,6.0806,6.0806,6.0806,5.9954,5.93,5.8858,5.8858,5.905,5.9454,5.9896,6.0089,6.0108,6.0589,6.0806,6.0806,6.0806,6.0806,6.0806,6.0806,6.0806,6.0806,6.0806,6.0806,6.0806,6.0806,6.0806,6.0806,6.0806,6.0806,6.0806,6.0806,6.0806,6.0806,6.0806,6.0806,6.0806,6.0806,6.0806,6.0806,6.0806,6.0806,6.0806,6.0806,6.0806,6.0806,6.0806,6.0806,6.0806,6.0806,6.0806,6.0806,6.0806,6.0806,6.0806,6.0806,6.0911,6.1042,6.1188,6.1337,6.1498,6.1674,6.1699,6.1699,6.1699,6.1699,6.1699,6.1699,6.1699,6.1699,6.1699,6.1699,6.1699,6.1699,6.1699,6.1699,6.1699,6.1699,6.1699,6.1699,6.1699,6.1699,6.1699,6.1699,6.1699,6.1699,6.1699,6.1699,6.1699,6.1699,6.1699,6.1699,6.1699,6.1699,6.1699,6.0806,6.0806,6.0806,6.0806,6.0806,6.0806,6.0806,6.0806,6.0806,6.0806,6.0806,6.0806,6.0806,6.0806,6.0806,6.0806,6.0806,6.0806,6.0806,6.0806,6.0806,6.0806,6.0806,6.0806,6.0806,6.0069,5.9704,5.9704,5.9704,6.0069,6.0806,6.0806,6.0806,6.0806,6.0806,6.0806,6.0806,6.0806,6.0806,6.0806,6.0806,6.0806,6.0806,6.0806,6.0806,6.0806,6.0806,6.0806,6.0806,6.0806,6.0806,6.0806,6.0806,6.0806,6.0806,6.0806,6.0806,6.0806,6.0806,6.0806,6.0806,6.0806,6.0806,6.0806,6.0806,6.0806,6.0806,6.0806,6.0806,6.0806,6.0806,6.0806,6.0806,6.0806,6.0806,6.0806,6.0806,6.0997,6.1155,6.1202,6.1451,6.1642,6.1697,6.1699,6.1699,6.1699,6.1699,6.1699,6.1699,6.1699,6.1699,6.1699,6.1699,6.1699,6.1699,6.1699,6.1699,6.1699,6.1699,6.1699,6.1699,6.1699,6.1699,6.1699,6.1699,6.1699,6.1699,6.1699,6.1699,6.1699,6.1699,6.1699,6.1699,6.1699,6.1699,6.1699,6.0806,6.0806,6.0806,6.0806,6.0806,6.0806,6.0806,6.0806,6.0806,6.0806,6.0806,6.0806,6.0806,6.0806,6.0806,6.0806,6.0806,6.0806,6.0806,6.0806,6.0806,6.0806,6.0806,6.0806,6.0806,6.0671,6.0589,6.0589,6.0589,6.0671,6.0806,6.0806,6.0806,6.0806,6.0806,6.0806,6.0806,6.0806,6.0806,6.0806,6.0806,6.0806,6.0806,6.0806,6.0806,6.0806,6.0806,6.0806,6.0806,6.0806,6.0806,6.0806,6.0806,6.0806,6.0806,6.0806,6.0806,6.0806,6.0806,6.0806,6.0806,6.0806,6.0806,6.0806,6.0806,6.0806,6.0806,6.0806,6.0806,6.0806,6.0806,6.0806,6.0806,6.0806,6.0806,6.0806,6.0806,6.0831,6.0939,6.1177,6.125,6.1395,6.1671,6.1699,6.1699,6.1699,6.1699,6.1699,6.1699,6.1699,6.1699,6.1699,6.1699,6.1699,6.1699,6.1699,6.1699,6.1699,6.1699,6.1699,6.1699,6.1699,6.1699,6.1699,6.1699,6.1699,6.1699,6.1699,6.1699,6.1699,6.1699,6.1699,6.1699,6.1699,6.1699,6.1699,6.0806,6.0806,6.0806,6.0806,6.0806,6.0806,6.0806,6.0806,6.0806,6.0806,6.0806,6.0806,6.0806,6.0806,6.0806,6.0806,6.0806,6.0806,6.0806,6.0806,6.0806,6.0806,6.0806,6.0806,6.0806,6.0806,6.0806,6.0806,6.0806,6.0806,6.0806,6.0806,6.0806,6.0806,6.0806,6.0806,6.0806,6.0806,6.0806,6.0806,6.0806,6.0806,6.0806,6.0806,6.0806,6.0806,6.0806,6.0806,6.0806,6.0806,6.0806,6.0806,6.0806,6.0806,6.0806,6.0806,6.0806,6.0806,6.0806,6.0806,6.0806,6.0806,6.0806,6.0806,6.0806,6.0806,6.0806,6.0806,6.0806,6.0806,6.0806,6.0806,6.0806,6.0806,6.0806,6.0827,6.0896,6.0978,6.1091,6.1336,6.143,6.1534,6.1675,6.1699,6.1699,6.1699,6.1699,6.1699,6.1699,6.1699,6.1699,6.1699,6.1699,6.1699,6.1699,6.1699,6.1699,6.1699,6.1699,6.1699,6.1699,6.1699,6.1699,6.1699,6.1699,6.1699,6.1699,6.1699,6.1699,6.1699,6.1699,6.1699,6.1699,6.1699,6.1699,6.1699,6.0806,6.0806,6.0806,6.0806,6.0806,6.0806,6.0806,6.0806,6.0806,6.0806,6.0806,6.0806,6.0806,6.0806,6.0806,6.0806,6.0806,6.0806,6.0806,6.0806,6.0806,6.0806,6.0806,6.0806,6.0806,6.0806,6.0806,6.0806,6.0806,6.0806,6.0806,6.0806,6.0806,6.0806,6.0806,6.0806,6.0806,6.0806,6.0806,6.0806,6.0806,6.0806,6.0806,6.0806,6.0806,6.0806,6.0806,6.0806,6.0806,6.0806,6.0806,6.0806,6.0806,6.0806,6.0806,6.0806,6.0806,6.0806,6.0806,6.0806,6.0806,6.0806,6.0806,6.0806,6.0806,6.0806,6.0806,6.0806,6.0806,6.0806,6.0806,6.0806,6.0806,6.0806,6.0833,6.0869,6.0998,6.1124,6.1263,6.1478,6.1588,6.1666,6.1698,6.1699,6.1699,6.1699,6.1699,6.1699,6.1699,6.1699,6.1699,6.1699,6.1699,6.1699,6.1699,6.1699,6.1699,6.1699,6.1699,6.1699,6.1699,6.1699,6.1699,6.1699,6.1699,6.1699,6.1699,6.1699,6.1699,6.1699,6.1699,6.1699,6.1699,6.1699,6.1699,6.1699,6.0806,6.0806,6.0806,6.0806,6.0806,6.0806,6.0806,6.0806,6.0806,6.0806,6.0806,6.0806,6.0806,6.0806,6.0806,6.0806,6.0806,6.0806,6.0806,6.0806,6.0806,6.0806,6.0806,6.0806,6.0806,6.0806,6.0806,6.0806,6.0806,6.0806,6.0806,6.0806,6.0806,6.0806,6.0806,6.0806,6.0806,6.0806,6.0806,6.0806,6.0806,6.0806,6.0806,6.0806,6.0806,6.0806,6.0806,6.0806,6.0806,6.0806,6.0806,6.0806,6.0806,6.0806,6.0806,6.0806,6.0806,6.0806,6.0806,6.0806,6.0806,6.0806,6.0806,6.0806,6.0806,6.0806,6.0806,6.0806,6.0806,6.0806,6.0806,6.0806,6.0806,6.0806,6.0906,6.0983,6.0997,6.1124,6.1263,6.1478,6.1517,6.1553,6.1694,6.1699,6.1699,6.1699,6.1699,6.1699,6.1699,6.1699,6.1699,6.1699,6.1699,6.1699,6.1699,6.1699,6.1699,6.1699,6.1699,6.1699,6.1699,6.1699,6.1699,6.1699,6.1699,6.1699,6.1699,6.1699,6.1699,6.1699,6.1699,6.1699,6.1699,6.1699,6.1699,6.1699,6.0806,6.0806,6.0806,6.0806,6.0806,6.0806,6.0806,6.0806,6.0806,6.0806,6.0806,6.0806,6.0806,6.0806,6.0806,6.0806,6.0806,6.0806,6.0806,6.0806,6.0806,6.0806,6.0806,6.0806,6.0806,6.0806,6.0806,6.0806,6.0806,6.0806,6.0806,6.0806,6.0806,6.0806,6.0806,6.0806,6.0806,6.0806,6.0806,6.0806,6.0806,6.0806,6.0806,6.0806,6.0806,6.0806,6.0806,6.0806,6.0806,6.0806,6.0806,6.0806,6.0806,6.0806,6.0806,6.0806,6.0806,6.0806,6.0806,6.0806,6.0806,6.0806,6.0806,6.0806,6.0806,6.0806,6.0806,6.0806,6.0806,6.0806,6.0806,6.0806,6.0806,6.0806,6.0902,6.1024,6.11,6.1289,6.1452,6.1618,6.1626,6.1636,6.1697,6.1699,6.1699,6.1699,6.1699,6.1699,6.1699,6.1699,6.1699,6.1699,6.1699,6.1699,6.1699,6.1699,6.1699,6.1699,6.1699,6.1699,6.1699,6.1699,6.1699,6.1699,6.1699,6.1699,6.1699,6.1699,6.1699,6.1699,6.1699,6.1699,6.1699,6.1699,6.1699,6.1699,6.0806,6.0806,6.0806,6.0806,6.0806,6.0806,6.0806,6.0806,6.0806,6.0806,6.0806,6.0806,6.0806,6.0806,6.0806,6.0806,6.0806,6.0806,6.0806,6.0806,6.0806,6.0806,6.0806,6.0806,6.0806,6.0806,6.0806,6.0806,6.0806,6.0806,6.0806,6.0806,6.0806,6.0806,6.0806,6.0806,6.0806,6.0806,6.0806,6.0806,6.0806,6.0806,6.0806,6.0806,6.0806,6.0806,6.0806,6.0806,6.0806,6.0806,6.0806,6.0806,6.0806,6.0806,6.0806,6.0806,6.0806,6.0806,6.0806,6.0806,6.0806,6.0806,6.0806,6.0806,6.0806,6.0806,6.0806,6.0806,6.0806,6.0806,6.0806,6.0806,6.0806,6.0806,6.0939,6.1095,6.1195,6.1414,6.1591,6.1694,6.1699,6.1699,6.1699,6.1699,6.1699,6.1699,6.1699,6.1699,6.1699,6.1699,6.1699,6.1699,6.1699,6.1699,6.1699,6.1699,6.1699,6.1699,6.1699,6.1699,6.1699,6.1699,6.1699,6.1699,6.1699,6.1699,6.1699,6.1699,6.1699,6.1699,6.1699,6.1699,6.1699,6.1699,6.1699,6.1699,6.0806,6.0806,6.0806,6.0806,6.0806,6.0806,6.0806,6.0806,6.0806,6.0806,6.0806,6.0806,6.0806,6.0806,6.0806,6.0806,6.0806,6.0806,6.0806,6.0806,6.0806,6.0806,6.0806,6.0806,6.0806,6.0806,6.0806,6.0806,6.0806,6.0806,6.0806,6.0806,6.0806,6.0806,6.0806,6.0806,6.0806,6.0806,6.0806,6.0806,6.0806,6.0806,6.0806,6.0806,6.0806,6.0806,6.0806,6.0806,6.0806,6.0806,6.0806,6.0806,6.0806,6.0806,6.0806,6.0806,6.0806,6.0806,6.0806,6.0806,6.0806,6.0806,6.0806,6.0806,6.0806,6.0806,6.0806,6.0806,6.0806,6.0806,6.0806,6.0806,6.0806,6.0806,6.1024,6.1209,6.1209,6.1493,6.1699,6.1699,6.1699,6.1699,6.1699,6.1699,6.1699,6.1699,6.1699,6.1699,6.1699,6.1699,6.1699,6.1699,6.1699,6.1699,6.1699,6.1699,6.1699,6.1699,6.1699,6.1699,6.1699,6.1699,6.1699,6.1699,6.1699,6.1699,6.1699,6.1699,6.1699,6.1699,6.1699,6.1699,6.1699,6.1699,6.1699,6.1699,6.0806,6.0806,6.0806,6.0806,6.0806,6.0806,6.0806,6.0806,6.0806,6.0806,6.0806,6.0806,6.0806,6.0806,6.0806,6.0806,6.0806,6.0806,6.0806,6.0806,6.0806,6.0806,6.0806,6.0806,6.0806,6.0806,6.0806,6.0806,6.0806,6.0806,6.0806,6.0806,6.0806,6.0806,6.0806,6.0806,6.0806,6.0806,6.0806,6.0806,6.0806,6.0806,6.0806,6.0806,6.0806,6.0806,6.0806,6.0806,6.0806,6.0806,6.0806,6.0806,6.0806,6.0806,6.0806,6.0806,6.0806,6.0806,6.0806,6.0806,6.0806,6.0806,6.0806,6.0806,6.0806,6.0806,6.0806,6.0806,6.0806,6.0806,6.0806,6.0806,6.0806,6.0806,6.1024,6.1209,6.1209,6.1493,6.1699,6.1699,6.1699,6.1699,6.1699,6.1699,6.1699,6.1699,6.1699,6.1699,6.1699,6.1699,6.1699,6.1699,6.1699,6.1699,6.1699,6.1699,6.1699,6.1699,6.1699,6.1699,6.1699,6.1699,6.1699,6.1699,6.1699,6.1699,6.1699,6.1699,6.1699,6.1699,6.1699,6.1699,6.1699,6.1699,6.1699,6.1699,6.0806,6.0806,6.0806,6.0806,6.0806,6.0806,6.0806,6.0806,6.0806,6.0806,6.0806,6.0806,6.0806,6.0806,6.0806,6.0806,6.0806,6.0806,6.0806,6.0806,6.0806,6.0806,6.0806,6.0806,6.0806,6.0806,6.0806,6.0806,6.0806,6.0806,6.0806,6.0806,6.0806,6.0806,6.0806,6.0806,6.0806,6.0806,6.0806,6.0806,6.0806,6.0806,6.0806,6.0806,6.0806,6.0806,6.0806,6.0806,6.0806,6.0806,6.0806,6.0806,6.0806,6.0806,6.0806,6.0806,6.0806,6.0806,6.0806,6.0806,6.0806,6.0806,6.0806,6.0806,6.0806,6.0806,6.0806,6.0806,6.0806,6.0806,6.0806,6.0806,6.0816,6.0872,6.1053,6.123,6.1304,6.1534,6.1699,6.1699,6.1699,6.1699,6.1699,6.1699,6.1699,6.1699,6.1699,6.1699,6.1699,6.1699,6.1699,6.1699,6.1699,6.1699,6.1699,6.1699,6.1699,6.1699,6.1699,6.1699,6.1699,6.1699,6.1699,6.1699,6.1699,6.1699,6.1699,6.1699,6.1699,6.1699,6.1699,6.1699,6.1699,6.1699,6.1699,6.1699,6.0806,6.0806,6.0806,6.0806,6.0806,6.0806,6.0806,6.0806,6.0806,6.0806,6.0806,6.0806,6.0806,6.0806,6.0806,6.0806,6.0806,6.0806,6.0806,6.0806,6.0806,6.0806,6.0806,6.0806,6.0806,6.0806,6.0806,6.0806,6.0806,6.0806,6.0806,6.0806,6.0806,6.0806,6.0806,6.0806,6.0806,6.0806,6.0806,6.0806,6.0806,6.0806,6.0806,6.0806,6.0806,6.0806,6.0806,6.0806,6.0806,6.0806,6.0806,6.0806,6.0806,6.0806,6.0806,6.0806,6.0806,6.0806,6.0806,6.0806,6.0806,6.0806,6.0806,6.0806,6.0806,6.0806,6.0806,6.0806,6.0806,6.0806,6.0806,6.0804,6.0869,6.0988,6.1132,6.1292,6.1478,6.1621,6.1699,6.1699,6.1699,6.1699,6.1699,6.1699,6.1699,6.1699,6.1699,6.1699,6.1699,6.1699,6.1699,6.1699,6.1699,6.1699,6.1699,6.1699,6.1699,6.1699,6.1699,6.1699,6.1699,6.1699,6.1699,6.1699,6.1699,6.1699,6.1699,6.1699,6.1699,6.1699,6.1699,6.1699,6.1699,6.1699,6.1699,6.1699,6.0806,6.0806,6.0806,6.0806,6.0806,6.0806,6.0806,6.0806,6.0806,6.0806,6.0806,6.0806,6.0806,6.0806,6.0806,6.0806,6.0806,6.0806,6.0806,6.0806,6.0806,6.0806,6.0806,6.0806,6.0806,6.0806,6.0806,6.0806,6.0806,6.0806,6.0806,6.0806,6.0806,6.0806,6.0806,6.0806,6.0806,6.0806,6.0806,6.0806,6.0806,6.0806,6.0806,6.0806,6.0806,6.0806,6.0806,6.0806,6.0806,6.0806,6.0806,6.0806,6.0806,6.0806,6.0806,6.0806,6.0806,6.0806,6.0806,6.0806,6.0806,6.0806,6.0806,6.0806,6.0806,6.0806,6.0806,6.0806,6.0806,6.0806,6.0806,6.0894,6.0969,6.0993,6.1245,6.1446,6.1488,6.1621,6.1699,6.1699,6.1699,6.1699,6.1699,6.1699,6.1699,6.1699,6.1699,6.1699,6.1699,6.1699,6.1699,6.1699,6.1699,6.1699,6.1699,6.1699,6.1699,6.1699,6.1699,6.1699,6.1699,6.1699,6.1699,6.1699,6.1699,6.1699,6.1699,6.1699,6.1699,6.1699,6.1699,6.1699,6.1699,6.1699,6.1699,6.1699,6.0806,6.0806,6.0806,6.0806,6.0806,6.0806,6.0806,6.0806,6.0806,6.0806,6.0806,6.0806,6.0806,6.0806,6.0806,6.0806,6.0806,6.0806,6.0806,6.0806,6.0806,6.0806,6.0806,6.0806,6.0806,6.0806,6.0806,6.0806,6.0806,6.0806,6.0806,6.0806,6.0806,6.0806,6.0806,6.0806,6.0806,6.0806,6.0806,6.0806,6.0806,6.0806,6.0806,6.0806,6.0806,6.0806,6.0806,6.0806,6.0806,6.0806,6.0806,6.0806,6.0806,6.0806,6.0806,6.0806,6.0806,6.0806,6.0806,6.0806,6.0806,6.0806,6.0806,6.0806,6.0806,6.0806,6.0806,6.0806,6.0806,6.0806,6.0806,6.0917,6.101,6.1083,6.1314,6.1526,6.1586,6.1661,6.1699,6.1699,6.1699,6.1699,6.1699,6.1699,6.1699,6.1699,6.1699,6.1699,6.1699,6.1699,6.1699,6.1699,6.1699,6.1699,6.1699,6.1699,6.1699,6.1699,6.1699,6.1699,6.1699,6.1699,6.1699,6.1699,6.1699,6.1699,6.1699,6.1699,6.1699,6.1699,6.1699,6.1699,6.1699,6.1699,6.1699,6.1699,6.0806,6.0806,6.0806,6.0806,6.0806,6.0806,6.0806,6.0806,6.0806,6.0806,6.0806,6.0806,6.0806,6.0806,6.0806,6.0806,6.0806,6.0806,6.0806,6.0806,6.0806,6.0806,6.0806,6.0806,6.0806,6.0806,6.0806,6.0806,6.0806,6.0806,6.0806,6.0806,6.0806,6.0806,6.0806,6.0806,6.0806,6.0806,6.0806,6.0806,6.0806,6.0806,6.0806,6.0806,6.0806,6.0806,6.0806,6.0806,6.0806,6.0806,6.0806,6.0806,6.0806,6.0806,6.0806,6.0806,6.0806,6.0806,6.0806,6.0806,6.0806,6.0806,6.0806,6.0806,6.0806,6.0806,6.0806,6.0806,6.0806,6.0806,6.0806,6.0928,6.1062,6.1188,6.1395,6.1578,6.1674,6.1699,6.1699,6.1699,6.1699,6.1699,6.1699,6.1699,6.1699,6.1699,6.1699,6.1699,6.1699,6.1699,6.1699,6.1699,6.1699,6.1699,6.1699,6.1699,6.1699,6.1699,6.1699,6.1699,6.1699,6.1699,6.1699,6.1699,6.1699,6.1699,6.1699,6.1699,6.1699,6.1699,6.1699,6.1699,6.1699,6.1699,6.1699,6.1699,6.0806,6.0806,6.0806,6.0806,6.0806,6.0806,6.0806,6.0806,6.0806,6.0806,6.0806,6.0806,6.0806,6.0806,6.0806,6.0806,6.0806,6.0806,6.0806,6.0806,6.0806,6.0806,6.0806,6.0806,6.0806,6.0806,6.0806,6.0806,6.0806,6.0806,6.0806,6.0806,6.0806,6.0806,6.0806,6.0806,6.0806,6.0806,6.0806,6.0806,6.0806,6.0806,6.0806,6.0806,6.0806,6.0806,6.0806,6.0806,6.0806,6.0806,6.0806,6.0806,6.0806,6.0806,6.0806,6.0806,6.0806,6.0806,6.0806,6.0806,6.0806,6.0806,6.0806,6.0806,6.0806,6.0806,6.0806,6.0806,6.0806,6.0806,6.0806,6.0992,6.1184,6.1206,6.1478,6.1671,6.1698,6.1699,6.1699,6.1699,6.1699,6.1699,6.1699,6.1699,6.1699,6.1699,6.1699,6.1699,6.1699,6.1699,6.1699,6.1699,6.1699,6.1699,6.1699,6.1699,6.1699,6.1699,6.1699,6.1699,6.1699,6.1699,6.1699,6.1699,6.1699,6.1699,6.1699,6.1699,6.1699,6.1699,6.1699,6.1699,6.1699,6.1699,6.1699,6.1699,6.0806,6.0806,6.0806,6.0806,6.0806,6.0806,6.0806,6.0806,6.0806,6.0806,6.0806,6.0806,6.0806,6.0806,6.0806,6.0806,6.0806,6.0806,6.0806,6.0806,6.0806,6.0806,6.0806,6.0806,6.0806,6.0806,6.0806,6.0806,6.0806,6.0806,6.0806,6.0806,6.0806,6.0806,6.0806,6.0806,6.0806,6.0806,6.0806,6.0806,6.0806,6.0806,6.0806,6.0806,6.0806,6.0806,6.0806,6.0806,6.0806,6.0806,6.0806,6.0806,6.0806,6.0806,6.0806,6.0806,6.0806,6.0806,6.0806,6.0806,6.0806,6.0806,6.0806,6.0806,6.0806,6.0806,6.0806,6.0806,6.0806,6.0806,6.0806,6.1015,6.1209,6.1209,6.1489,6.1699,6.1699,6.1699,6.1699,6.1699,6.1699,6.1699,6.1699,6.1699,6.1699,6.1699,6.1699,6.1699,6.1699,6.1699,6.1699,6.1699,6.1699,6.1699,6.1699,6.1699,6.1699,6.1699,6.1699,6.1699,6.1699,6.1699,6.1699,6.1699,6.1699,6.1699,6.1699,6.1699,6.1699,6.1699,6.1699,6.1699,6.1699,6.1699,6.1699,6.1699]}]]